<?xml version="1.0" encoding="UTF-8"?>
<gpx xmlns="http://www.topografix.com/GPX/1/1" xmlns:xsi="http://www.w3.org/2001/XMLSchema-instance" version="1.1" xsi:schemaLocation="http://www.topografix.com/GPX/1/1 http://www.topografix.com/GPX/1/1/gpx.xsd">
  <metadata>
    <name>Challenge Sankt Pölten</name>
  </metadata>
  <trk>
    <name>Challenge Sankt Pölten</name>
    <trkseg>
      <trkpt lat="48.220984" lon="15.650865">
        <ele>257.617972</ele>
        <time>2024-05-26T07:38:00.000Z</time>
      </trkpt>
      <trkpt lat="48.22074" lon="15.651224">
        <ele>257.617966</ele>
        <time>2024-05-26T07:38:04.000Z</time>
      </trkpt>
      <trkpt lat="48.219884" lon="15.652696">
        <ele>257.529876</ele>
        <time>2024-05-26T07:38:18.000Z</time>
      </trkpt>
      <trkpt lat="48.219404" lon="15.653506">
        <ele>257.44483</ele>
        <time>2024-05-26T07:38:26.000Z</time>
      </trkpt>
      <trkpt lat="48.219449" lon="15.653584">
        <ele>257.436317</ele>
        <time>2024-05-26T07:38:27.000Z</time>
      </trkpt>
      <trkpt lat="48.219463" lon="15.653586">
        <ele>257.435369</ele>
        <time>2024-05-26T07:38:27.000Z</time>
      </trkpt>
      <trkpt lat="48.220241" lon="15.654686">
        <ele>257.158843</ele>
        <time>2024-05-26T07:38:39.000Z</time>
      </trkpt>
      <trkpt lat="48.220245" lon="15.654682">
        <ele>257.158477</ele>
        <time>2024-05-26T07:38:39.000Z</time>
      </trkpt>
      <trkpt lat="48.220408" lon="15.654809">
        <ele>257.104766</ele>
        <time>2024-05-26T07:38:41.000Z</time>
      </trkpt>
      <trkpt lat="48.220739" lon="15.654842">
        <ele>257.002323</ele>
        <time>2024-05-26T07:38:45.000Z</time>
      </trkpt>
      <trkpt lat="48.220999" lon="15.654874">
        <ele>256.927144</ele>
        <time>2024-05-26T07:38:48.000Z</time>
      </trkpt>
      <trkpt lat="48.221035" lon="15.654933">
        <ele>256.907904</ele>
        <time>2024-05-26T07:38:49.000Z</time>
      </trkpt>
      <trkpt lat="48.221126" lon="15.654951">
        <ele>256.883557</ele>
        <time>2024-05-26T07:38:50.000Z</time>
      </trkpt>
      <trkpt lat="48.221256" lon="15.655085">
        <ele>256.814963</ele>
        <time>2024-05-26T07:38:52.000Z</time>
      </trkpt>
      <trkpt lat="48.221281" lon="15.655105">
        <ele>256.797624</ele>
        <time>2024-05-26T07:38:52.000Z</time>
      </trkpt>
      <trkpt lat="48.221289" lon="15.655135">
        <ele>256.786893</ele>
        <time>2024-05-26T07:38:52.000Z</time>
      </trkpt>
      <trkpt lat="48.221274" lon="15.655203">
        <ele>256.764461</ele>
        <time>2024-05-26T07:38:53.000Z</time>
      </trkpt>
      <trkpt lat="48.221305" lon="15.655275">
        <ele>256.742973</ele>
        <time>2024-05-26T07:38:54.000Z</time>
      </trkpt>
      <trkpt lat="48.221358" lon="15.655303">
        <ele>256.71573</ele>
        <time>2024-05-26T07:38:55.000Z</time>
      </trkpt>
      <trkpt lat="48.221387" lon="15.655321">
        <ele>256.69622</ele>
        <time>2024-05-26T07:38:55.000Z</time>
      </trkpt>
      <trkpt lat="48.221414" lon="15.655309">
        <ele>256.686092</ele>
        <time>2024-05-26T07:38:55.000Z</time>
      </trkpt>
      <trkpt lat="48.221461" lon="15.655412">
        <ele>256.640548</ele>
        <time>2024-05-26T07:38:56.000Z</time>
      </trkpt>
      <trkpt lat="48.221546" lon="15.65562">
        <ele>256.568174</ele>
        <time>2024-05-26T07:38:58.000Z</time>
      </trkpt>
      <trkpt lat="48.221623" lon="15.655985">
        <ele>256.441984</ele>
        <time>2024-05-26T07:39:01.000Z</time>
      </trkpt>
      <trkpt lat="48.221688" lon="15.656531">
        <ele>256.263444</ele>
        <time>2024-05-26T07:39:05.000Z</time>
      </trkpt>
      <trkpt lat="48.221782" lon="15.656841">
        <ele>256.155981</ele>
        <time>2024-05-26T07:39:08.000Z</time>
      </trkpt>
      <trkpt lat="48.221986" lon="15.657163">
        <ele>256.013075</ele>
        <time>2024-05-26T07:39:11.000Z</time>
      </trkpt>
      <trkpt lat="48.223481" lon="15.659265">
        <ele>255.839706</ele>
        <time>2024-05-26T07:39:34.000Z</time>
      </trkpt>
      <trkpt lat="48.223473" lon="15.659279">
        <ele>255.839209</ele>
        <time>2024-05-26T07:39:34.000Z</time>
      </trkpt>
      <trkpt lat="48.223976" lon="15.659983">
        <ele>255.718395</ele>
        <time>2024-05-26T07:39:42.000Z</time>
      </trkpt>
      <trkpt lat="48.224382" lon="15.660546">
        <ele>255.623803</ele>
        <time>2024-05-26T07:39:48.000Z</time>
      </trkpt>
      <trkpt lat="48.224712" lon="15.660949">
        <ele>255.549373</ele>
        <time>2024-05-26T07:39:53.000Z</time>
      </trkpt>
      <trkpt lat="48.224864" lon="15.661103">
        <ele>255.516489</ele>
        <time>2024-05-26T07:39:55.000Z</time>
      </trkpt>
      <trkpt lat="48.22498" lon="15.661174">
        <ele>255.496064</ele>
        <time>2024-05-26T07:39:56.000Z</time>
      </trkpt>
      <trkpt lat="48.224956" lon="15.661311">
        <ele>255.479742</ele>
        <time>2024-05-26T07:39:57.000Z</time>
      </trkpt>
      <trkpt lat="48.224975" lon="15.6616">
        <ele>255.447669</ele>
        <time>2024-05-26T07:39:59.000Z</time>
      </trkpt>
      <trkpt lat="48.225036" lon="15.66183">
        <ele>255.42009</ele>
        <time>2024-05-26T07:40:01.000Z</time>
      </trkpt>
      <trkpt lat="48.225033" lon="15.662049">
        <ele>255.396107</ele>
        <time>2024-05-26T07:40:03.000Z</time>
      </trkpt>
      <trkpt lat="48.22502" lon="15.662361">
        <ele>255.359498</ele>
        <time>2024-05-26T07:40:05.000Z</time>
      </trkpt>
      <trkpt lat="48.224944" lon="15.662594">
        <ele>255.329628</ele>
        <time>2024-05-26T07:40:07.000Z</time>
      </trkpt>
      <trkpt lat="48.224671" lon="15.663155">
        <ele>255.269138</ele>
        <time>2024-05-26T07:40:12.000Z</time>
      </trkpt>
      <trkpt lat="48.224042" lon="15.664673">
        <ele>255.668836</ele>
        <time>2024-05-26T07:40:25.000Z</time>
      </trkpt>
      <trkpt lat="48.224027" lon="15.664693">
        <ele>255.671443</ele>
        <time>2024-05-26T07:40:25.000Z</time>
      </trkpt>
      <trkpt lat="48.223845" lon="15.665131">
        <ele>255.786415</ele>
        <time>2024-05-26T07:40:29.000Z</time>
      </trkpt>
      <trkpt lat="48.223801" lon="15.665065">
        <ele>255.809263</ele>
        <time>2024-05-26T07:40:30.000Z</time>
      </trkpt>
      <trkpt lat="48.222858" lon="15.665983">
        <ele>256.388901</ele>
        <time>2024-05-26T07:40:42.000Z</time>
      </trkpt>
      <trkpt lat="48.222861" lon="15.666032">
        <ele>256.411295</ele>
        <time>2024-05-26T07:40:42.000Z</time>
      </trkpt>
      <trkpt lat="48.222966" lon="15.666386">
        <ele>256.543767</ele>
        <time>2024-05-26T07:40:45.000Z</time>
      </trkpt>
      <trkpt lat="48.223045" lon="15.66662">
        <ele>256.640924</ele>
        <time>2024-05-26T07:40:47.000Z</time>
      </trkpt>
      <trkpt lat="48.223059" lon="15.666875">
        <ele>256.731612</ele>
        <time>2024-05-26T07:40:49.000Z</time>
      </trkpt>
      <trkpt lat="48.223045" lon="15.666997">
        <ele>256.775062</ele>
        <time>2024-05-26T07:40:50.000Z</time>
      </trkpt>
      <trkpt lat="48.222984" lon="15.667326">
        <ele>256.823771</ele>
        <time>2024-05-26T07:40:53.000Z</time>
      </trkpt>
      <trkpt lat="48.222287" lon="15.668351">
        <ele>256.728495</ele>
        <time>2024-05-26T07:41:04.000Z</time>
      </trkpt>
      <trkpt lat="48.222466" lon="15.668762">
        <ele>256.696853</ele>
        <time>2024-05-26T07:41:08.000Z</time>
      </trkpt>
      <trkpt lat="48.222494" lon="15.6688">
        <ele>256.693161</ele>
        <time>2024-05-26T07:41:08.000Z</time>
      </trkpt>
      <trkpt lat="48.222863" lon="15.669623">
        <ele>256.540834</ele>
        <time>2024-05-26T07:41:15.000Z</time>
      </trkpt>
      <trkpt lat="48.22338" lon="15.670636">
        <ele>256.238628</ele>
        <time>2024-05-26T07:41:24.000Z</time>
      </trkpt>
      <trkpt lat="48.224044" lon="15.671602">
        <ele>255.958198</ele>
        <time>2024-05-26T07:41:34.000Z</time>
      </trkpt>
      <trkpt lat="48.225982" lon="15.674292">
        <ele>255.44411</ele>
        <time>2024-05-26T07:42:03.000Z</time>
      </trkpt>
      <trkpt lat="48.227533" lon="15.676457">
        <ele>253.932896</ele>
        <time>2024-05-26T07:42:27.000Z</time>
      </trkpt>
      <trkpt lat="48.227564" lon="15.676562">
        <ele>253.864279</ele>
        <time>2024-05-26T07:42:28.000Z</time>
      </trkpt>
      <trkpt lat="48.227731" lon="15.676834">
        <ele>253.619527</ele>
        <time>2024-05-26T07:42:31.000Z</time>
      </trkpt>
      <trkpt lat="48.227737" lon="15.676867">
        <ele>253.603067</ele>
        <time>2024-05-26T07:42:31.000Z</time>
      </trkpt>
      <trkpt lat="48.227736" lon="15.676902">
        <ele>253.560109</ele>
        <time>2024-05-26T07:42:31.000Z</time>
      </trkpt>
      <trkpt lat="48.227746" lon="15.676983">
        <ele>253.489773</ele>
        <time>2024-05-26T07:42:32.000Z</time>
      </trkpt>
      <trkpt lat="48.227789" lon="15.67706">
        <ele>253.413853</ele>
        <time>2024-05-26T07:42:33.000Z</time>
      </trkpt>
      <trkpt lat="48.227852" lon="15.677105">
        <ele>253.332743</ele>
        <time>2024-05-26T07:42:34.000Z</time>
      </trkpt>
      <trkpt lat="48.227901" lon="15.677085">
        <ele>253.258144</ele>
        <time>2024-05-26T07:42:35.000Z</time>
      </trkpt>
      <trkpt lat="48.227912" lon="15.677086">
        <ele>253.243293</ele>
        <time>2024-05-26T07:42:35.000Z</time>
      </trkpt>
      <trkpt lat="48.228199" lon="15.677389">
        <ele>252.813408</ele>
        <time>2024-05-26T07:42:39.000Z</time>
      </trkpt>
      <trkpt lat="48.228791" lon="15.67835">
        <ele>251.729886</ele>
        <time>2024-05-26T07:42:49.000Z</time>
      </trkpt>
      <trkpt lat="48.229352" lon="15.679343">
        <ele>251.170221</ele>
        <time>2024-05-26T07:42:59.000Z</time>
      </trkpt>
      <trkpt lat="48.229375" lon="15.679387">
        <ele>251.151123</ele>
        <time>2024-05-26T07:42:59.000Z</time>
      </trkpt>
      <trkpt lat="48.230271" lon="15.680986">
        <ele>250.616528</ele>
        <time>2024-05-26T07:43:14.000Z</time>
      </trkpt>
      <trkpt lat="48.230528" lon="15.681434">
        <ele>250.48959</ele>
        <time>2024-05-26T07:43:18.000Z</time>
      </trkpt>
      <trkpt lat="48.230539" lon="15.681524">
        <ele>250.468688</ele>
        <time>2024-05-26T07:43:19.000Z</time>
      </trkpt>
      <trkpt lat="48.230553" lon="15.681683">
        <ele>250.433302</ele>
        <time>2024-05-26T07:43:20.000Z</time>
      </trkpt>
      <trkpt lat="48.230542" lon="15.681829">
        <ele>250.402613</ele>
        <time>2024-05-26T07:43:21.000Z</time>
      </trkpt>
      <trkpt lat="48.230529" lon="15.681904">
        <ele>250.386596</ele>
        <time>2024-05-26T07:43:22.000Z</time>
      </trkpt>
      <trkpt lat="48.230533" lon="15.681905">
        <ele>250.38328</ele>
        <time>2024-05-26T07:43:22.000Z</time>
      </trkpt>
      <trkpt lat="48.230511" lon="15.682054">
        <ele>250.346679</ele>
        <time>2024-05-26T07:43:23.000Z</time>
      </trkpt>
      <trkpt lat="48.23045" lon="15.682239">
        <ele>250.304315</ele>
        <time>2024-05-26T07:43:25.000Z</time>
      </trkpt>
      <trkpt lat="48.230266" lon="15.682444">
        <ele>250.224996</ele>
        <time>2024-05-26T07:43:28.000Z</time>
      </trkpt>
      <trkpt lat="48.230063" lon="15.682617">
        <ele>250.149014</ele>
        <time>2024-05-26T07:43:31.000Z</time>
      </trkpt>
      <trkpt lat="48.229794" lon="15.682805">
        <ele>250.369871</ele>
        <time>2024-05-26T07:43:34.000Z</time>
      </trkpt>
      <trkpt lat="48.229511" lon="15.682918">
        <ele>250.892301</ele>
        <time>2024-05-26T07:43:37.000Z</time>
      </trkpt>
      <trkpt lat="48.229376" lon="15.682915">
        <ele>251.146714</ele>
        <time>2024-05-26T07:43:39.000Z</time>
      </trkpt>
      <trkpt lat="48.229241" lon="15.6829">
        <ele>251.365863</ele>
        <time>2024-05-26T07:43:41.000Z</time>
      </trkpt>
      <trkpt lat="48.229084" lon="15.682811">
        <ele>251.693077</ele>
        <time>2024-05-26T07:43:43.000Z</time>
      </trkpt>
      <trkpt lat="48.228983" lon="15.682723">
        <ele>251.882923</ele>
        <time>2024-05-26T07:43:44.000Z</time>
      </trkpt>
      <trkpt lat="48.228913" lon="15.682626">
        <ele>252.058319</ele>
        <time>2024-05-26T07:43:45.000Z</time>
      </trkpt>
      <trkpt lat="48.228867" lon="15.682528">
        <ele>252.230234</ele>
        <time>2024-05-26T07:43:46.000Z</time>
      </trkpt>
      <trkpt lat="48.228813" lon="15.682361">
        <ele>252.443923</ele>
        <time>2024-05-26T07:43:47.000Z</time>
      </trkpt>
      <trkpt lat="48.228779" lon="15.682182">
        <ele>252.668286</ele>
        <time>2024-05-26T07:43:48.000Z</time>
      </trkpt>
      <trkpt lat="48.228766" lon="15.682011">
        <ele>252.862612</ele>
        <time>2024-05-26T07:43:49.000Z</time>
      </trkpt>
      <trkpt lat="48.228814" lon="15.681782">
        <ele>253.150038</ele>
        <time>2024-05-26T07:43:51.000Z</time>
      </trkpt>
      <trkpt lat="48.228866" lon="15.681668">
        <ele>253.331557</ele>
        <time>2024-05-26T07:43:52.000Z</time>
      </trkpt>
      <trkpt lat="48.228943" lon="15.681507">
        <ele>253.302337</ele>
        <time>2024-05-26T07:43:53.000Z</time>
      </trkpt>
      <trkpt lat="48.229053" lon="15.681391">
        <ele>253.236173</ele>
        <time>2024-05-26T07:43:54.000Z</time>
      </trkpt>
      <trkpt lat="48.229149" lon="15.681316">
        <ele>253.175692</ele>
        <time>2024-05-26T07:43:55.000Z</time>
      </trkpt>
      <trkpt lat="48.229251" lon="15.681259">
        <ele>253.11322</ele>
        <time>2024-05-26T07:43:56.000Z</time>
      </trkpt>
      <trkpt lat="48.229412" lon="15.681226">
        <ele>253.026639</ele>
        <time>2024-05-26T07:43:58.000Z</time>
      </trkpt>
      <trkpt lat="48.229808" lon="15.681199">
        <ele>252.819333</ele>
        <time>2024-05-26T07:44:02.000Z</time>
      </trkpt>
      <trkpt lat="48.229859" lon="15.681182">
        <ele>252.791532</ele>
        <time>2024-05-26T07:44:03.000Z</time>
      </trkpt>
      <trkpt lat="48.230995" lon="15.681481">
        <ele>252.133226</ele>
        <time>2024-05-26T07:44:16.000Z</time>
      </trkpt>
      <trkpt lat="48.231043" lon="15.681501">
        <ele>252.099644</ele>
        <time>2024-05-26T07:44:17.000Z</time>
      </trkpt>
      <trkpt lat="48.233108" lon="15.681951">
        <ele>250.787182</ele>
        <time>2024-05-26T07:44:40.000Z</time>
      </trkpt>
      <trkpt lat="48.233143" lon="15.681966">
        <ele>250.756571</ele>
        <time>2024-05-26T07:44:40.000Z</time>
      </trkpt>
      <trkpt lat="48.234858" lon="15.682185">
        <ele>249.759833</ele>
        <time>2024-05-26T07:44:59.000Z</time>
      </trkpt>
      <trkpt lat="48.23491" lon="15.682181">
        <ele>249.730317</ele>
        <time>2024-05-26T07:45:00.000Z</time>
      </trkpt>
      <trkpt lat="48.236599" lon="15.682345">
        <ele>248.796051</ele>
        <time>2024-05-26T07:45:19.000Z</time>
      </trkpt>
      <trkpt lat="48.236648" lon="15.682339">
        <ele>248.768415</ele>
        <time>2024-05-26T07:45:20.000Z</time>
      </trkpt>
      <trkpt lat="48.238532" lon="15.682359">
        <ele>247.825243</ele>
        <time>2024-05-26T07:45:41.000Z</time>
      </trkpt>
      <trkpt lat="48.238576" lon="15.68237">
        <ele>247.801067</ele>
        <time>2024-05-26T07:45:41.000Z</time>
      </trkpt>
      <trkpt lat="48.239897" lon="15.682379">
        <ele>247.272851</ele>
        <time>2024-05-26T07:45:56.000Z</time>
      </trkpt>
      <trkpt lat="48.239954" lon="15.68239">
        <ele>247.26062</ele>
        <time>2024-05-26T07:45:57.000Z</time>
      </trkpt>
      <trkpt lat="48.241654" lon="15.682524">
        <ele>246.802157</ele>
        <time>2024-05-26T07:46:16.000Z</time>
      </trkpt>
      <trkpt lat="48.241709" lon="15.682536">
        <ele>246.780905</ele>
        <time>2024-05-26T07:46:17.000Z</time>
      </trkpt>
      <trkpt lat="48.243395" lon="15.682958">
        <ele>245.990941</ele>
        <time>2024-05-26T07:46:36.000Z</time>
      </trkpt>
      <trkpt lat="48.243448" lon="15.682974">
        <ele>245.952808</ele>
        <time>2024-05-26T07:46:37.000Z</time>
      </trkpt>
      <trkpt lat="48.244585" lon="15.683462">
        <ele>245.096508</ele>
        <time>2024-05-26T07:46:50.000Z</time>
      </trkpt>
      <trkpt lat="48.244628" lon="15.683491">
        <ele>245.059041</ele>
        <time>2024-05-26T07:46:51.000Z</time>
      </trkpt>
      <trkpt lat="48.246401" lon="15.684626">
        <ele>243.735528</ele>
        <time>2024-05-26T07:47:12.000Z</time>
      </trkpt>
      <trkpt lat="48.246447" lon="15.684653">
        <ele>243.700593</ele>
        <time>2024-05-26T07:47:13.000Z</time>
      </trkpt>
      <trkpt lat="48.248055" lon="15.686116">
        <ele>242.234589</ele>
        <time>2024-05-26T07:47:34.000Z</time>
      </trkpt>
      <trkpt lat="48.248105" lon="15.686155">
        <ele>242.193609</ele>
        <time>2024-05-26T07:47:35.000Z</time>
      </trkpt>
      <trkpt lat="48.249163" lon="15.687398">
        <ele>241.110994</ele>
        <time>2024-05-26T07:47:50.000Z</time>
      </trkpt>
      <trkpt lat="48.249215" lon="15.687433">
        <ele>241.070567</ele>
        <time>2024-05-26T07:47:51.000Z</time>
      </trkpt>
      <trkpt lat="48.250502" lon="15.68906">
        <ele>239.903546</ele>
        <time>2024-05-26T07:48:10.000Z</time>
      </trkpt>
      <trkpt lat="48.250533" lon="15.689105">
        <ele>239.869701</ele>
        <time>2024-05-26T07:48:10.000Z</time>
      </trkpt>
      <trkpt lat="48.252456" lon="15.691199">
        <ele>238.7743</ele>
        <time>2024-05-26T07:48:36.000Z</time>
      </trkpt>
      <trkpt lat="48.252507" lon="15.691249">
        <ele>238.750722</ele>
        <time>2024-05-26T07:48:37.000Z</time>
      </trkpt>
      <trkpt lat="48.253727" lon="15.692436">
        <ele>238.076467</ele>
        <time>2024-05-26T07:48:53.000Z</time>
      </trkpt>
      <trkpt lat="48.253755" lon="15.692469">
        <ele>238.052665</ele>
        <time>2024-05-26T07:48:53.000Z</time>
      </trkpt>
      <trkpt lat="48.255663" lon="15.694042">
        <ele>237.542957</ele>
        <time>2024-05-26T07:49:17.000Z</time>
      </trkpt>
      <trkpt lat="48.25571" lon="15.694064">
        <ele>237.53752</ele>
        <time>2024-05-26T07:49:18.000Z</time>
      </trkpt>
      <trkpt lat="48.25758" lon="15.695392">
        <ele>237.308763</ele>
        <time>2024-05-26T07:49:41.000Z</time>
      </trkpt>
      <trkpt lat="48.257618" lon="15.695429">
        <ele>237.302638</ele>
        <time>2024-05-26T07:49:42.000Z</time>
      </trkpt>
      <trkpt lat="48.258996" lon="15.696245">
        <ele>237.106627</ele>
        <time>2024-05-26T07:49:58.000Z</time>
      </trkpt>
      <trkpt lat="48.259047" lon="15.69628">
        <ele>237.097944</ele>
        <time>2024-05-26T07:49:59.000Z</time>
      </trkpt>
      <trkpt lat="48.261125" lon="15.697333">
        <ele>236.676804</ele>
        <time>2024-05-26T07:50:23.000Z</time>
      </trkpt>
      <trkpt lat="48.261175" lon="15.697354">
        <ele>236.664867</ele>
        <time>2024-05-26T07:50:24.000Z</time>
      </trkpt>
      <trkpt lat="48.26309" lon="15.698071">
        <ele>236.122197</ele>
        <time>2024-05-26T07:50:46.000Z</time>
      </trkpt>
      <trkpt lat="48.263141" lon="15.698091">
        <ele>236.105669</ele>
        <time>2024-05-26T07:50:47.000Z</time>
      </trkpt>
      <trkpt lat="48.264857" lon="15.698632">
        <ele>235.392447</ele>
        <time>2024-05-26T07:51:06.000Z</time>
      </trkpt>
      <trkpt lat="48.264895" lon="15.69865">
        <ele>235.367872</ele>
        <time>2024-05-26T07:51:06.000Z</time>
      </trkpt>
      <trkpt lat="48.266284" lon="15.698928">
        <ele>234.663236</ele>
        <time>2024-05-26T07:51:22.000Z</time>
      </trkpt>
      <trkpt lat="48.266325" lon="15.69895">
        <ele>234.634744</ele>
        <time>2024-05-26T07:51:22.000Z</time>
      </trkpt>
      <trkpt lat="48.267942" lon="15.699188">
        <ele>233.658991</ele>
        <time>2024-05-26T07:51:40.000Z</time>
      </trkpt>
      <trkpt lat="48.267999" lon="15.699203">
        <ele>233.62145</ele>
        <time>2024-05-26T07:51:41.000Z</time>
      </trkpt>
      <trkpt lat="48.269449" lon="15.699404">
        <ele>232.660092</ele>
        <time>2024-05-26T07:51:57.000Z</time>
      </trkpt>
      <trkpt lat="48.269502" lon="15.699407">
        <ele>232.634429</ele>
        <time>2024-05-26T07:51:58.000Z</time>
      </trkpt>
      <trkpt lat="48.271448" lon="15.69971">
        <ele>231.701322</ele>
        <time>2024-05-26T07:52:20.000Z</time>
      </trkpt>
      <trkpt lat="48.271504" lon="15.699713">
        <ele>231.677192</ele>
        <time>2024-05-26T07:52:21.000Z</time>
      </trkpt>
      <trkpt lat="48.275207" lon="15.700295">
        <ele>230.3916</ele>
        <time>2024-05-26T07:53:02.000Z</time>
      </trkpt>
      <trkpt lat="48.275246" lon="15.700308">
        <ele>230.364669</ele>
        <time>2024-05-26T07:53:02.000Z</time>
      </trkpt>
      <trkpt lat="48.278241" lon="15.700779">
        <ele>229.168855</ele>
        <time>2024-05-26T07:53:35.000Z</time>
      </trkpt>
      <trkpt lat="48.278292" lon="15.700782">
        <ele>229.15145</ele>
        <time>2024-05-26T07:53:36.000Z</time>
      </trkpt>
      <trkpt lat="48.282459" lon="15.701388">
        <ele>228.236945</ele>
        <time>2024-05-26T07:54:23.000Z</time>
      </trkpt>
      <trkpt lat="48.2825" lon="15.701393">
        <ele>228.219783</ele>
        <time>2024-05-26T07:54:23.000Z</time>
      </trkpt>
      <trkpt lat="48.286535" lon="15.702039">
        <ele>226.518488</ele>
        <time>2024-05-26T07:55:08.000Z</time>
      </trkpt>
      <trkpt lat="48.286585" lon="15.702039">
        <ele>226.483902</ele>
        <time>2024-05-26T07:55:09.000Z</time>
      </trkpt>
      <trkpt lat="48.288299" lon="15.702387">
        <ele>224.859939</ele>
        <time>2024-05-26T07:55:28.000Z</time>
      </trkpt>
      <trkpt lat="48.288357" lon="15.702389">
        <ele>224.804696</ele>
        <time>2024-05-26T07:55:29.000Z</time>
      </trkpt>
      <trkpt lat="48.290389" lon="15.70287">
        <ele>222.867015</ele>
        <time>2024-05-26T07:55:52.000Z</time>
      </trkpt>
      <trkpt lat="48.290432" lon="15.702885">
        <ele>222.818335</ele>
        <time>2024-05-26T07:55:52.000Z</time>
      </trkpt>
      <trkpt lat="48.293337" lon="15.703748">
        <ele>220.767615</ele>
        <time>2024-05-26T07:56:25.000Z</time>
      </trkpt>
      <trkpt lat="48.293383" lon="15.703768">
        <ele>220.719011</ele>
        <time>2024-05-26T07:56:26.000Z</time>
      </trkpt>
      <trkpt lat="48.297118" lon="15.705252">
        <ele>218.554757</ele>
        <time>2024-05-26T07:57:09.000Z</time>
      </trkpt>
      <trkpt lat="48.297173" lon="15.705273">
        <ele>218.513089</ele>
        <time>2024-05-26T07:57:10.000Z</time>
      </trkpt>
      <trkpt lat="48.298838" lon="15.706114">
        <ele>216.85864</ele>
        <time>2024-05-26T07:57:30.000Z</time>
      </trkpt>
      <trkpt lat="48.298879" lon="15.706136">
        <ele>216.806362</ele>
        <time>2024-05-26T07:57:30.000Z</time>
      </trkpt>
      <trkpt lat="48.301604" lon="15.708022">
        <ele>215.303868</ele>
        <time>2024-05-26T07:58:03.000Z</time>
      </trkpt>
      <trkpt lat="48.301661" lon="15.708049">
        <ele>215.282298</ele>
        <time>2024-05-26T07:58:04.000Z</time>
      </trkpt>
      <trkpt lat="48.305016" lon="15.71101">
        <ele>213.512659</ele>
        <time>2024-05-26T07:58:47.000Z</time>
      </trkpt>
      <trkpt lat="48.305072" lon="15.711049">
        <ele>213.483947</ele>
        <time>2024-05-26T07:58:48.000Z</time>
      </trkpt>
      <trkpt lat="48.308074" lon="15.713409">
        <ele>212.123051</ele>
        <time>2024-05-26T07:59:26.000Z</time>
      </trkpt>
      <trkpt lat="48.308128" lon="15.713447">
        <ele>212.090098</ele>
        <time>2024-05-26T07:59:27.000Z</time>
      </trkpt>
      <trkpt lat="48.311689" lon="15.715784">
        <ele>210.41234</ele>
        <time>2024-05-26T08:00:10.000Z</time>
      </trkpt>
      <trkpt lat="48.311736" lon="15.715821">
        <ele>210.382215</ele>
        <time>2024-05-26T08:00:11.000Z</time>
      </trkpt>
      <trkpt lat="48.314629" lon="15.717244">
        <ele>209.065718</ele>
        <time>2024-05-26T08:00:45.000Z</time>
      </trkpt>
      <trkpt lat="48.314685" lon="15.717281">
        <ele>209.035615</ele>
        <time>2024-05-26T08:00:46.000Z</time>
      </trkpt>
      <trkpt lat="48.317324" lon="15.718287">
        <ele>208.105559</ele>
        <time>2024-05-26T08:01:16.000Z</time>
      </trkpt>
      <trkpt lat="48.317373" lon="15.718312">
        <ele>208.084357</ele>
        <time>2024-05-26T08:01:17.000Z</time>
      </trkpt>
      <trkpt lat="48.320362" lon="15.719095">
        <ele>206.730765</ele>
        <time>2024-05-26T08:01:51.000Z</time>
      </trkpt>
      <trkpt lat="48.320409" lon="15.719105">
        <ele>206.705216</ele>
        <time>2024-05-26T08:01:52.000Z</time>
      </trkpt>
      <trkpt lat="48.323746" lon="15.719381">
        <ele>205.740738</ele>
        <time>2024-05-26T08:02:29.000Z</time>
      </trkpt>
      <trkpt lat="48.323791" lon="15.719389">
        <ele>205.721068</ele>
        <time>2024-05-26T08:02:30.000Z</time>
      </trkpt>
      <trkpt lat="48.326364" lon="15.719737">
        <ele>205.024034</ele>
        <time>2024-05-26T08:02:59.000Z</time>
      </trkpt>
      <trkpt lat="48.326413" lon="15.71974">
        <ele>205.011956</ele>
        <time>2024-05-26T08:03:00.000Z</time>
      </trkpt>
      <trkpt lat="48.329571" lon="15.720709">
        <ele>204.368465</ele>
        <time>2024-05-26T08:03:36.000Z</time>
      </trkpt>
      <trkpt lat="48.329618" lon="15.720731">
        <ele>204.359015</ele>
        <time>2024-05-26T08:03:37.000Z</time>
      </trkpt>
      <trkpt lat="48.332093" lon="15.721633">
        <ele>203.950942</ele>
        <time>2024-05-26T08:04:05.000Z</time>
      </trkpt>
      <trkpt lat="48.332157" lon="15.721646">
        <ele>203.934324</ele>
        <time>2024-05-26T08:04:06.000Z</time>
      </trkpt>
      <trkpt lat="48.334648" lon="15.722485">
        <ele>203.140692</ele>
        <time>2024-05-26T08:04:34.000Z</time>
      </trkpt>
      <trkpt lat="48.334699" lon="15.722515">
        <ele>203.124187</ele>
        <time>2024-05-26T08:04:35.000Z</time>
      </trkpt>
      <trkpt lat="48.337742" lon="15.723189">
        <ele>202.494029</ele>
        <time>2024-05-26T08:05:09.000Z</time>
      </trkpt>
      <trkpt lat="48.337807" lon="15.723204">
        <ele>202.474565</ele>
        <time>2024-05-26T08:05:10.000Z</time>
      </trkpt>
      <trkpt lat="48.340167" lon="15.723551">
        <ele>201.516602</ele>
        <time>2024-05-26T08:05:36.000Z</time>
      </trkpt>
      <trkpt lat="48.340229" lon="15.723574">
        <ele>201.494093</ele>
        <time>2024-05-26T08:05:37.000Z</time>
      </trkpt>
      <trkpt lat="48.342487" lon="15.723671">
        <ele>200.280723</ele>
        <time>2024-05-26T08:06:02.000Z</time>
      </trkpt>
      <trkpt lat="48.342528" lon="15.723673">
        <ele>200.250244</ele>
        <time>2024-05-26T08:06:02.000Z</time>
      </trkpt>
      <trkpt lat="48.345694" lon="15.723616">
        <ele>198.453936</ele>
        <time>2024-05-26T08:06:37.000Z</time>
      </trkpt>
      <trkpt lat="48.345749" lon="15.723599">
        <ele>198.423142</ele>
        <time>2024-05-26T08:06:38.000Z</time>
      </trkpt>
      <trkpt lat="48.348297" lon="15.723405">
        <ele>196.50298</ele>
        <time>2024-05-26T08:07:06.000Z</time>
      </trkpt>
      <trkpt lat="48.348353" lon="15.723394">
        <ele>196.454854</ele>
        <time>2024-05-26T08:07:07.000Z</time>
      </trkpt>
      <trkpt lat="48.351911" lon="15.722845">
        <ele>194.743118</ele>
        <time>2024-05-26T08:07:47.000Z</time>
      </trkpt>
      <trkpt lat="48.351962" lon="15.72284">
        <ele>194.714803</ele>
        <time>2024-05-26T08:07:48.000Z</time>
      </trkpt>
      <trkpt lat="48.356019" lon="15.721955">
        <ele>192.42865</ele>
        <time>2024-05-26T08:08:34.000Z</time>
      </trkpt>
      <trkpt lat="48.356081" lon="15.721927">
        <ele>192.393856</ele>
        <time>2024-05-26T08:08:35.000Z</time>
      </trkpt>
      <trkpt lat="48.361913" lon="15.720172">
        <ele>190.935345</ele>
        <time>2024-05-26T08:09:41.000Z</time>
      </trkpt>
      <trkpt lat="48.361979" lon="15.720145">
        <ele>190.919994</ele>
        <time>2024-05-26T08:09:42.000Z</time>
      </trkpt>
      <trkpt lat="48.365272" lon="15.718784">
        <ele>190.222537</ele>
        <time>2024-05-26T08:10:20.000Z</time>
      </trkpt>
      <trkpt lat="48.365331" lon="15.71876">
        <ele>190.241792</ele>
        <time>2024-05-26T08:10:21.000Z</time>
      </trkpt>
      <trkpt lat="48.366972" lon="15.718148">
        <ele>190.967804</ele>
        <time>2024-05-26T08:10:40.000Z</time>
      </trkpt>
      <trkpt lat="48.367023" lon="15.718139">
        <ele>190.9907</ele>
        <time>2024-05-26T08:10:41.000Z</time>
      </trkpt>
      <trkpt lat="48.367598" lon="15.718039">
        <ele>192.945693</ele>
        <time>2024-05-26T08:10:47.000Z</time>
      </trkpt>
      <trkpt lat="48.367645" lon="15.718026">
        <ele>193.126902</ele>
        <time>2024-05-26T08:10:48.000Z</time>
      </trkpt>
      <trkpt lat="48.368319" lon="15.718082">
        <ele>195.390296</ele>
        <time>2024-05-26T08:10:56.000Z</time>
      </trkpt>
      <trkpt lat="48.368376" lon="15.718097">
        <ele>195.570457</ele>
        <time>2024-05-26T08:10:57.000Z</time>
      </trkpt>
      <trkpt lat="48.369021" lon="15.718278">
        <ele>197.587945</ele>
        <time>2024-05-26T08:11:04.000Z</time>
      </trkpt>
      <trkpt lat="48.369077" lon="15.718287">
        <ele>197.71586</ele>
        <time>2024-05-26T08:11:05.000Z</time>
      </trkpt>
      <trkpt lat="48.369087" lon="15.718296">
        <ele>197.745316</ele>
        <time>2024-05-26T08:11:05.000Z</time>
      </trkpt>
      <trkpt lat="48.36946" lon="15.716029">
        <ele>201.37537</ele>
        <time>2024-05-26T08:11:22.000Z</time>
      </trkpt>
      <trkpt lat="48.370093" lon="15.712293">
        <ele>204.865834</ele>
        <time>2024-05-26T08:11:50.000Z</time>
      </trkpt>
      <trkpt lat="48.370255" lon="15.711425">
        <ele>206.588261</ele>
        <time>2024-05-26T08:11:57.000Z</time>
      </trkpt>
      <trkpt lat="48.370328" lon="15.711164">
        <ele>207.13498</ele>
        <time>2024-05-26T08:11:59.000Z</time>
      </trkpt>
      <trkpt lat="48.370512" lon="15.710701">
        <ele>208.247592</ele>
        <time>2024-05-26T08:12:03.000Z</time>
      </trkpt>
      <trkpt lat="48.37068" lon="15.710413">
        <ele>209.134511</ele>
        <time>2024-05-26T08:12:06.000Z</time>
      </trkpt>
      <trkpt lat="48.371017" lon="15.710112">
        <ele>210.499838</ele>
        <time>2024-05-26T08:12:10.000Z</time>
      </trkpt>
      <trkpt lat="48.371342" lon="15.709663">
        <ele>212.092704</ele>
        <time>2024-05-26T08:12:15.000Z</time>
      </trkpt>
      <trkpt lat="48.371433" lon="15.709441">
        <ele>212.700596</ele>
        <time>2024-05-26T08:12:17.000Z</time>
      </trkpt>
      <trkpt lat="48.371762" lon="15.708366">
        <ele>214.564172</ele>
        <time>2024-05-26T08:12:26.000Z</time>
      </trkpt>
      <trkpt lat="48.371961" lon="15.707641">
        <ele>215.141501</ele>
        <time>2024-05-26T08:12:32.000Z</time>
      </trkpt>
      <trkpt lat="48.372346" lon="15.707034">
        <ele>215.780029</ele>
        <time>2024-05-26T08:12:38.000Z</time>
      </trkpt>
      <trkpt lat="48.372691" lon="15.706616">
        <ele>216.117338</ele>
        <time>2024-05-26T08:12:43.000Z</time>
      </trkpt>
      <trkpt lat="48.3736" lon="15.705778">
        <ele>215.779238</ele>
        <time>2024-05-26T08:12:55.000Z</time>
      </trkpt>
      <trkpt lat="48.374153" lon="15.70506">
        <ele>215.406228</ele>
        <time>2024-05-26T08:13:03.000Z</time>
      </trkpt>
      <trkpt lat="48.374142" lon="15.705058">
        <ele>215.391814</ele>
        <time>2024-05-26T08:13:03.000Z</time>
      </trkpt>
      <trkpt lat="48.374217" lon="15.704989">
        <ele>215.255315</ele>
        <time>2024-05-26T08:13:04.000Z</time>
      </trkpt>
      <trkpt lat="48.374678" lon="15.704425">
        <ele>214.183945</ele>
        <time>2024-05-26T08:13:11.000Z</time>
      </trkpt>
      <trkpt lat="48.375218" lon="15.703827">
        <ele>212.977063</ele>
        <time>2024-05-26T08:13:18.000Z</time>
      </trkpt>
      <trkpt lat="48.375406" lon="15.703575">
        <ele>212.531065</ele>
        <time>2024-05-26T08:13:21.000Z</time>
      </trkpt>
      <trkpt lat="48.375726" lon="15.703071">
        <ele>211.161842</ele>
        <time>2024-05-26T08:13:26.000Z</time>
      </trkpt>
      <trkpt lat="48.375913" lon="15.702719">
        <ele>210.175112</ele>
        <time>2024-05-26T08:13:29.000Z</time>
      </trkpt>
      <trkpt lat="48.376104" lon="15.702359">
        <ele>209.165361</ele>
        <time>2024-05-26T08:13:32.000Z</time>
      </trkpt>
      <trkpt lat="48.3763" lon="15.70213">
        <ele>208.388979</ele>
        <time>2024-05-26T08:13:35.000Z</time>
      </trkpt>
      <trkpt lat="48.376482" lon="15.701854">
        <ele>207.550622</ele>
        <time>2024-05-26T08:13:38.000Z</time>
      </trkpt>
      <trkpt lat="48.376757" lon="15.701303">
        <ele>206.142464</ele>
        <time>2024-05-26T08:13:43.000Z</time>
      </trkpt>
      <trkpt lat="48.377019" lon="15.700653">
        <ele>204.744683</ele>
        <time>2024-05-26T08:13:49.000Z</time>
      </trkpt>
      <trkpt lat="48.377237" lon="15.700148">
        <ele>203.623551</ele>
        <time>2024-05-26T08:13:53.000Z</time>
      </trkpt>
      <trkpt lat="48.37753" lon="15.699629">
        <ele>202.357616</ele>
        <time>2024-05-26T08:13:58.000Z</time>
      </trkpt>
      <trkpt lat="48.377735" lon="15.699384">
        <ele>201.625834</ele>
        <time>2024-05-26T08:14:01.000Z</time>
      </trkpt>
      <trkpt lat="48.37794" lon="15.699187">
        <ele>201.29608</ele>
        <time>2024-05-26T08:14:04.000Z</time>
      </trkpt>
      <trkpt lat="48.378087" lon="15.698979">
        <ele>201.059397</ele>
        <time>2024-05-26T08:14:06.000Z</time>
      </trkpt>
      <trkpt lat="48.378292" lon="15.698538">
        <ele>200.643851</ele>
        <time>2024-05-26T08:14:10.000Z</time>
      </trkpt>
      <trkpt lat="48.378568" lon="15.697801">
        <ele>200.009283</ele>
        <time>2024-05-26T08:14:16.000Z</time>
      </trkpt>
      <trkpt lat="48.379112" lon="15.695564">
        <ele>199.322081</ele>
        <time>2024-05-26T08:14:34.000Z</time>
      </trkpt>
      <trkpt lat="48.37934" lon="15.694462">
        <ele>199.288946</ele>
        <time>2024-05-26T08:14:43.000Z</time>
      </trkpt>
      <trkpt lat="48.379555" lon="15.693592">
        <ele>199.66441</ele>
        <time>2024-05-26T08:14:50.000Z</time>
      </trkpt>
      <trkpt lat="48.379616" lon="15.692861">
        <ele>199.963383</ele>
        <time>2024-05-26T08:14:55.000Z</time>
      </trkpt>
      <trkpt lat="48.379744" lon="15.691992">
        <ele>200.330668</ele>
        <time>2024-05-26T08:15:02.000Z</time>
      </trkpt>
      <trkpt lat="48.379741" lon="15.691811">
        <ele>200.507568</ele>
        <time>2024-05-26T08:15:03.000Z</time>
      </trkpt>
      <trkpt lat="48.379729" lon="15.691447">
        <ele>200.968725</ele>
        <time>2024-05-26T08:15:06.000Z</time>
      </trkpt>
      <trkpt lat="48.379674" lon="15.690909">
        <ele>201.623472</ele>
        <time>2024-05-26T08:15:10.000Z</time>
      </trkpt>
      <trkpt lat="48.379694" lon="15.690418">
        <ele>202.214237</ele>
        <time>2024-05-26T08:15:14.000Z</time>
      </trkpt>
      <trkpt lat="48.379728" lon="15.689939">
        <ele>202.785231</ele>
        <time>2024-05-26T08:15:18.000Z</time>
      </trkpt>
      <trkpt lat="48.379823" lon="15.689218">
        <ele>203.685643</ele>
        <time>2024-05-26T08:15:23.000Z</time>
      </trkpt>
      <trkpt lat="48.379871" lon="15.689078">
        <ele>203.919767</ele>
        <time>2024-05-26T08:15:24.000Z</time>
      </trkpt>
      <trkpt lat="48.3801" lon="15.688804">
        <ele>204.549193</ele>
        <time>2024-05-26T08:15:27.000Z</time>
      </trkpt>
      <trkpt lat="48.380166" lon="15.688568">
        <ele>204.940711</ele>
        <time>2024-05-26T08:15:29.000Z</time>
      </trkpt>
      <trkpt lat="48.380173" lon="15.688272">
        <ele>205.368436</ele>
        <time>2024-05-26T08:15:31.000Z</time>
      </trkpt>
      <trkpt lat="48.380088" lon="15.687799">
        <ele>206.088891</ele>
        <time>2024-05-26T08:15:35.000Z</time>
      </trkpt>
      <trkpt lat="48.379911" lon="15.687171">
        <ele>207.076843</ele>
        <time>2024-05-26T08:15:40.000Z</time>
      </trkpt>
      <trkpt lat="48.379862" lon="15.686956">
        <ele>207.433291</ele>
        <time>2024-05-26T08:15:42.000Z</time>
      </trkpt>
      <trkpt lat="48.379747" lon="15.686155">
        <ele>208.425826</ele>
        <time>2024-05-26T08:15:48.000Z</time>
      </trkpt>
      <trkpt lat="48.379758" lon="15.685853">
        <ele>208.766337</ele>
        <time>2024-05-26T08:15:50.000Z</time>
      </trkpt>
      <trkpt lat="48.379849" lon="15.684726">
        <ele>210.116545</ele>
        <time>2024-05-26T08:15:58.000Z</time>
      </trkpt>
      <trkpt lat="48.379844" lon="15.684505">
        <ele>210.36313</ele>
        <time>2024-05-26T08:16:00.000Z</time>
      </trkpt>
      <trkpt lat="48.379812" lon="15.684282">
        <ele>210.638345</ele>
        <time>2024-05-26T08:16:02.000Z</time>
      </trkpt>
      <trkpt lat="48.379699" lon="15.683937">
        <ele>211.008349</ele>
        <time>2024-05-26T08:16:05.000Z</time>
      </trkpt>
      <trkpt lat="48.379574" lon="15.683636">
        <ele>211.319282</ele>
        <time>2024-05-26T08:16:08.000Z</time>
      </trkpt>
      <trkpt lat="48.379437" lon="15.68317">
        <ele>211.757774</ele>
        <time>2024-05-26T08:16:12.000Z</time>
      </trkpt>
      <trkpt lat="48.379304" lon="15.682413">
        <ele>212.437874</ele>
        <time>2024-05-26T08:16:18.000Z</time>
      </trkpt>
      <trkpt lat="48.379087" lon="15.681405">
        <ele>213.387386</ele>
        <time>2024-05-26T08:16:26.000Z</time>
      </trkpt>
      <trkpt lat="48.378929" lon="15.680904">
        <ele>213.910961</ele>
        <time>2024-05-26T08:16:30.000Z</time>
      </trkpt>
      <trkpt lat="48.378768" lon="15.680522">
        <ele>214.340349</ele>
        <time>2024-05-26T08:16:33.000Z</time>
      </trkpt>
      <trkpt lat="48.378656" lon="15.680022">
        <ele>214.833959</ele>
        <time>2024-05-26T08:16:37.000Z</time>
      </trkpt>
      <trkpt lat="48.378564" lon="15.680069">
        <ele>214.966402</ele>
        <time>2024-05-26T08:16:38.000Z</time>
      </trkpt>
      <trkpt lat="48.378111" lon="15.679886">
        <ele>215.646975</ele>
        <time>2024-05-26T08:16:43.000Z</time>
      </trkpt>
      <trkpt lat="48.377937" lon="15.679818">
        <ele>216.542426</ele>
        <time>2024-05-26T08:16:45.000Z</time>
      </trkpt>
      <trkpt lat="48.377886" lon="15.67975">
        <ele>216.985777</ele>
        <time>2024-05-26T08:16:46.000Z</time>
      </trkpt>
      <trkpt lat="48.377807" lon="15.679648">
        <ele>217.608572</ele>
        <time>2024-05-26T08:16:47.000Z</time>
      </trkpt>
      <trkpt lat="48.377734" lon="15.679417">
        <ele>218.605877</ele>
        <time>2024-05-26T08:16:49.000Z</time>
      </trkpt>
      <trkpt lat="48.377683" lon="15.679185">
        <ele>219.654277</ele>
        <time>2024-05-26T08:16:51.000Z</time>
      </trkpt>
      <trkpt lat="48.377595" lon="15.679095">
        <ele>220.26896</ele>
        <time>2024-05-26T08:16:52.000Z</time>
      </trkpt>
      <trkpt lat="48.377472" lon="15.679063">
        <ele>221.0121</ele>
        <time>2024-05-26T08:16:53.000Z</time>
      </trkpt>
      <trkpt lat="48.377065" lon="15.679204">
        <ele>223.651301</ele>
        <time>2024-05-26T08:16:58.000Z</time>
      </trkpt>
      <trkpt lat="48.376908" lon="15.679246">
        <ele>224.649612</ele>
        <time>2024-05-26T08:17:00.000Z</time>
      </trkpt>
      <trkpt lat="48.376754" lon="15.679245">
        <ele>225.511319</ele>
        <time>2024-05-26T08:17:02.000Z</time>
      </trkpt>
      <trkpt lat="48.376656" lon="15.679196">
        <ele>226.21857</ele>
        <time>2024-05-26T08:17:03.000Z</time>
      </trkpt>
      <trkpt lat="48.376563" lon="15.679118">
        <ele>226.868578</ele>
        <time>2024-05-26T08:17:04.000Z</time>
      </trkpt>
      <trkpt lat="48.376507" lon="15.679024">
        <ele>227.432003</ele>
        <time>2024-05-26T08:17:05.000Z</time>
      </trkpt>
      <trkpt lat="48.376425" lon="15.678839">
        <ele>228.392004</ele>
        <time>2024-05-26T08:17:07.000Z</time>
      </trkpt>
      <trkpt lat="48.376345" lon="15.677688">
        <ele>233.457161</ele>
        <time>2024-05-26T08:17:16.000Z</time>
      </trkpt>
      <trkpt lat="48.376277" lon="15.677299">
        <ele>235.242198</ele>
        <time>2024-05-26T08:17:19.000Z</time>
      </trkpt>
      <trkpt lat="48.375898" lon="15.675976">
        <ele>241.505662</ele>
        <time>2024-05-26T08:17:30.000Z</time>
      </trkpt>
      <trkpt lat="48.375444" lon="15.674822">
        <ele>247.247464</ele>
        <time>2024-05-26T08:17:40.000Z</time>
      </trkpt>
      <trkpt lat="48.37526" lon="15.674475">
        <ele>249.146622</ele>
        <time>2024-05-26T08:17:43.000Z</time>
      </trkpt>
      <trkpt lat="48.374994" lon="15.674106">
        <ele>252.284366</ele>
        <time>2024-05-26T08:17:47.000Z</time>
      </trkpt>
      <trkpt lat="48.374817" lon="15.673935">
        <ele>254.701906</ele>
        <time>2024-05-26T08:17:49.000Z</time>
      </trkpt>
      <trkpt lat="48.374661" lon="15.673796">
        <ele>256.676358</ele>
        <time>2024-05-26T08:17:51.000Z</time>
      </trkpt>
      <trkpt lat="48.374355" lon="15.673573">
        <ele>260.479437</ele>
        <time>2024-05-26T08:17:55.000Z</time>
      </trkpt>
      <trkpt lat="48.374046" lon="15.673264">
        <ele>264.68456</ele>
        <time>2024-05-26T08:17:59.000Z</time>
      </trkpt>
      <trkpt lat="48.373696" lon="15.672824">
        <ele>269.785953</ele>
        <time>2024-05-26T08:18:04.000Z</time>
      </trkpt>
      <trkpt lat="48.372491" lon="15.671076">
        <ele>281.253395</ele>
        <time>2024-05-26T08:18:23.000Z</time>
      </trkpt>
      <trkpt lat="48.372305" lon="15.670855">
        <ele>283.205603</ele>
        <time>2024-05-26T08:18:26.000Z</time>
      </trkpt>
      <trkpt lat="48.372135" lon="15.670709">
        <ele>285.665998</ele>
        <time>2024-05-26T08:18:28.000Z</time>
      </trkpt>
      <trkpt lat="48.371982" lon="15.670527">
        <ele>288.061171</ele>
        <time>2024-05-26T08:18:30.000Z</time>
      </trkpt>
      <trkpt lat="48.371789" lon="15.670063">
        <ele>292.621189</ele>
        <time>2024-05-26T08:18:34.000Z</time>
      </trkpt>
      <trkpt lat="48.371666" lon="15.669718">
        <ele>295.757973</ele>
        <time>2024-05-26T08:18:37.000Z</time>
      </trkpt>
      <trkpt lat="48.371565" lon="15.669447">
        <ele>298.394793</ele>
        <time>2024-05-26T08:18:39.000Z</time>
      </trkpt>
      <trkpt lat="48.3714" lon="15.669108">
        <ele>301.858567</ele>
        <time>2024-05-26T08:18:42.000Z</time>
      </trkpt>
      <trkpt lat="48.371268" lon="15.668867">
        <ele>304.427151</ele>
        <time>2024-05-26T08:18:44.000Z</time>
      </trkpt>
      <trkpt lat="48.371131" lon="15.668712">
        <ele>305.804245</ele>
        <time>2024-05-26T08:18:46.000Z</time>
      </trkpt>
      <trkpt lat="48.370796" lon="15.668403">
        <ele>308.443241</ele>
        <time>2024-05-26T08:18:50.000Z</time>
      </trkpt>
      <trkpt lat="48.370549" lon="15.668145">
        <ele>310.486048</ele>
        <time>2024-05-26T08:18:53.000Z</time>
      </trkpt>
      <trkpt lat="48.370113" lon="15.667608">
        <ele>314.222299</ele>
        <time>2024-05-26T08:18:59.000Z</time>
      </trkpt>
      <trkpt lat="48.369474" lon="15.666953">
        <ele>318.787686</ele>
        <time>2024-05-26T08:19:08.000Z</time>
      </trkpt>
      <trkpt lat="48.369274" lon="15.666678">
        <ele>320.105126</ele>
        <time>2024-05-26T08:19:11.000Z</time>
      </trkpt>
      <trkpt lat="48.36924" lon="15.666512">
        <ele>320.627943</ele>
        <time>2024-05-26T08:19:12.000Z</time>
      </trkpt>
      <trkpt lat="48.369202" lon="15.666345">
        <ele>321.196874</ele>
        <time>2024-05-26T08:19:13.000Z</time>
      </trkpt>
      <trkpt lat="48.369192" lon="15.666145">
        <ele>321.877876</ele>
        <time>2024-05-26T08:19:14.000Z</time>
      </trkpt>
      <trkpt lat="48.369242" lon="15.665711">
        <ele>323.282276</ele>
        <time>2024-05-26T08:19:17.000Z</time>
      </trkpt>
      <trkpt lat="48.369229" lon="15.665479">
        <ele>324.02781</ele>
        <time>2024-05-26T08:19:19.000Z</time>
      </trkpt>
      <trkpt lat="48.369139" lon="15.665256">
        <ele>324.891218</ele>
        <time>2024-05-26T08:19:21.000Z</time>
      </trkpt>
      <trkpt lat="48.368949" lon="15.664835">
        <ele>325.725038</ele>
        <time>2024-05-26T08:19:25.000Z</time>
      </trkpt>
      <trkpt lat="48.368946" lon="15.664825">
        <ele>325.723634</ele>
        <time>2024-05-26T08:19:25.000Z</time>
      </trkpt>
      <trkpt lat="48.368876" lon="15.664653">
        <ele>325.699733</ele>
        <time>2024-05-26T08:19:26.000Z</time>
      </trkpt>
      <trkpt lat="48.368582" lon="15.663752">
        <ele>325.569646</ele>
        <time>2024-05-26T08:19:33.000Z</time>
      </trkpt>
      <trkpt lat="48.368428" lon="15.663334">
        <ele>325.504558</ele>
        <time>2024-05-26T08:19:37.000Z</time>
      </trkpt>
      <trkpt lat="48.368317" lon="15.663116">
        <ele>325.469783</ele>
        <time>2024-05-26T08:19:39.000Z</time>
      </trkpt>
      <trkpt lat="48.368232" lon="15.663009">
        <ele>325.447683</ele>
        <time>2024-05-26T08:19:40.000Z</time>
      </trkpt>
      <trkpt lat="48.368135" lon="15.662937">
        <ele>325.428399</ele>
        <time>2024-05-26T08:19:41.000Z</time>
      </trkpt>
      <trkpt lat="48.368026" lon="15.662905">
        <ele>325.406253</ele>
        <time>2024-05-26T08:19:42.000Z</time>
      </trkpt>
      <trkpt lat="48.367954" lon="15.662907">
        <ele>325.406378</ele>
        <time>2024-05-26T08:19:43.000Z</time>
      </trkpt>
      <trkpt lat="48.367105" lon="15.663132">
        <ele>325.422605</ele>
        <time>2024-05-26T08:19:53.000Z</time>
      </trkpt>
      <trkpt lat="48.366895" lon="15.663235">
        <ele>325.426751</ele>
        <time>2024-05-26T08:19:55.000Z</time>
      </trkpt>
      <trkpt lat="48.366475" lon="15.663513">
        <ele>325.435663</ele>
        <time>2024-05-26T08:20:00.000Z</time>
      </trkpt>
      <trkpt lat="48.366313" lon="15.663555">
        <ele>325.438555</ele>
        <time>2024-05-26T08:20:02.000Z</time>
      </trkpt>
      <trkpt lat="48.365957" lon="15.663452">
        <ele>326.44971</ele>
        <time>2024-05-26T08:20:06.000Z</time>
      </trkpt>
      <trkpt lat="48.36581" lon="15.663476">
        <ele>326.864227</ele>
        <time>2024-05-26T08:20:08.000Z</time>
      </trkpt>
      <trkpt lat="48.365527" lon="15.663925">
        <ele>328.071572</ele>
        <time>2024-05-26T08:20:13.000Z</time>
      </trkpt>
      <trkpt lat="48.365366" lon="15.664166">
        <ele>328.723698</ele>
        <time>2024-05-26T08:20:16.000Z</time>
      </trkpt>
      <trkpt lat="48.365286" lon="15.664215">
        <ele>328.979038</ele>
        <time>2024-05-26T08:20:17.000Z</time>
      </trkpt>
      <trkpt lat="48.365192" lon="15.664246">
        <ele>329.255638</ele>
        <time>2024-05-26T08:20:18.000Z</time>
      </trkpt>
      <trkpt lat="48.364883" lon="15.664099">
        <ele>330.215436</ele>
        <time>2024-05-26T08:20:22.000Z</time>
      </trkpt>
      <trkpt lat="48.364481" lon="15.663874">
        <ele>332.137266</ele>
        <time>2024-05-26T08:20:27.000Z</time>
      </trkpt>
      <trkpt lat="48.364001" lon="15.663477">
        <ele>335.23393</ele>
        <time>2024-05-26T08:20:33.000Z</time>
      </trkpt>
      <trkpt lat="48.363823" lon="15.663353">
        <ele>336.333769</ele>
        <time>2024-05-26T08:20:35.000Z</time>
      </trkpt>
      <trkpt lat="48.36375" lon="15.663361">
        <ele>336.724832</ele>
        <time>2024-05-26T08:20:36.000Z</time>
      </trkpt>
      <trkpt lat="48.363671" lon="15.663406">
        <ele>337.143127</ele>
        <time>2024-05-26T08:20:37.000Z</time>
      </trkpt>
      <trkpt lat="48.363299" lon="15.663777">
        <ele>339.738651</ele>
        <time>2024-05-26T08:20:42.000Z</time>
      </trkpt>
      <trkpt lat="48.363143" lon="15.663861">
        <ele>340.575262</ele>
        <time>2024-05-26T08:20:44.000Z</time>
      </trkpt>
      <trkpt lat="48.36271" lon="15.663948">
        <ele>342.028167</ele>
        <time>2024-05-26T08:20:49.000Z</time>
      </trkpt>
      <trkpt lat="48.362663" lon="15.663931">
        <ele>342.182189</ele>
        <time>2024-05-26T08:20:50.000Z</time>
      </trkpt>
      <trkpt lat="48.362447" lon="15.663788">
        <ele>342.891974</ele>
        <time>2024-05-26T08:20:53.000Z</time>
      </trkpt>
      <trkpt lat="48.362349" lon="15.663702">
        <ele>343.247766</ele>
        <time>2024-05-26T08:20:54.000Z</time>
      </trkpt>
      <trkpt lat="48.362038" lon="15.662861">
        <ele>345.212217</ele>
        <time>2024-05-26T08:21:01.000Z</time>
      </trkpt>
      <trkpt lat="48.361973" lon="15.662797">
        <ele>345.444022</ele>
        <time>2024-05-26T08:21:02.000Z</time>
      </trkpt>
      <trkpt lat="48.361778" lon="15.662423">
        <ele>346.208179</ele>
        <time>2024-05-26T08:21:06.000Z</time>
      </trkpt>
      <trkpt lat="48.361503" lon="15.661723">
        <ele>345.128394</ele>
        <time>2024-05-26T08:21:12.000Z</time>
      </trkpt>
      <trkpt lat="48.361121" lon="15.660537">
        <ele>343.370178</ele>
        <time>2024-05-26T08:21:22.000Z</time>
      </trkpt>
      <trkpt lat="48.36126" lon="15.660233">
        <ele>342.870122</ele>
        <time>2024-05-26T08:21:25.000Z</time>
      </trkpt>
      <trkpt lat="48.361284" lon="15.660277">
        <ele>342.789646</ele>
        <time>2024-05-26T08:21:25.000Z</time>
      </trkpt>
      <trkpt lat="48.361322" lon="15.660273">
        <ele>342.708243</ele>
        <time>2024-05-26T08:21:25.000Z</time>
      </trkpt>
      <trkpt lat="48.361389" lon="15.660255">
        <ele>342.459836</ele>
        <time>2024-05-26T08:21:26.000Z</time>
      </trkpt>
      <trkpt lat="48.361934" lon="15.659425">
        <ele>337.754502</ele>
        <time>2024-05-26T08:21:35.000Z</time>
      </trkpt>
      <trkpt lat="48.362157" lon="15.659157">
        <ele>336.016709</ele>
        <time>2024-05-26T08:21:38.000Z</time>
      </trkpt>
      <trkpt lat="48.362696" lon="15.658831">
        <ele>332.551649</ele>
        <time>2024-05-26T08:21:44.000Z</time>
      </trkpt>
      <trkpt lat="48.362879" lon="15.65869">
        <ele>331.016416</ele>
        <time>2024-05-26T08:21:46.000Z</time>
      </trkpt>
      <trkpt lat="48.363112" lon="15.658408">
        <ele>327.903673</ele>
        <time>2024-05-26T08:21:49.000Z</time>
      </trkpt>
      <trkpt lat="48.363407" lon="15.658014">
        <ele>324.019046</ele>
        <time>2024-05-26T08:21:53.000Z</time>
      </trkpt>
      <trkpt lat="48.363551" lon="15.657894">
        <ele>322.375882</ele>
        <time>2024-05-26T08:21:55.000Z</time>
      </trkpt>
      <trkpt lat="48.363712" lon="15.657799">
        <ele>320.645374</ele>
        <time>2024-05-26T08:21:57.000Z</time>
      </trkpt>
      <trkpt lat="48.36411" lon="15.657549">
        <ele>316.34409</ele>
        <time>2024-05-26T08:22:02.000Z</time>
      </trkpt>
      <trkpt lat="48.364233" lon="15.657445">
        <ele>314.854414</ele>
        <time>2024-05-26T08:22:04.000Z</time>
      </trkpt>
      <trkpt lat="48.364464" lon="15.657152">
        <ele>311.396723</ele>
        <time>2024-05-26T08:22:07.000Z</time>
      </trkpt>
      <trkpt lat="48.364572" lon="15.657058">
        <ele>309.666562</ele>
        <time>2024-05-26T08:22:08.000Z</time>
      </trkpt>
      <trkpt lat="48.364789" lon="15.656887">
        <ele>306.58297</ele>
        <time>2024-05-26T08:22:11.000Z</time>
      </trkpt>
      <trkpt lat="48.36535" lon="15.656492">
        <ele>298.380118</ele>
        <time>2024-05-26T08:22:18.000Z</time>
      </trkpt>
      <trkpt lat="48.365459" lon="15.656401">
        <ele>296.807255</ele>
        <time>2024-05-26T08:22:19.000Z</time>
      </trkpt>
      <trkpt lat="48.365492" lon="15.656301">
        <ele>295.786119</ele>
        <time>2024-05-26T08:22:20.000Z</time>
      </trkpt>
      <trkpt lat="48.365522" lon="15.656192">
        <ele>294.670135</ele>
        <time>2024-05-26T08:22:21.000Z</time>
      </trkpt>
      <trkpt lat="48.365531" lon="15.655998">
        <ele>292.924439</ele>
        <time>2024-05-26T08:22:22.000Z</time>
      </trkpt>
      <trkpt lat="48.365439" lon="15.655063">
        <ele>284.36141</ele>
        <time>2024-05-26T08:22:29.000Z</time>
      </trkpt>
      <trkpt lat="48.365444" lon="15.655015">
        <ele>283.878389</ele>
        <time>2024-05-26T08:22:29.000Z</time>
      </trkpt>
      <trkpt lat="48.36545" lon="15.654804">
        <ele>281.946303</ele>
        <time>2024-05-26T08:22:31.000Z</time>
      </trkpt>
      <trkpt lat="48.365482" lon="15.654447">
        <ele>278.56155</ele>
        <time>2024-05-26T08:22:34.000Z</time>
      </trkpt>
      <trkpt lat="48.365453" lon="15.654112">
        <ele>275.472819</ele>
        <time>2024-05-26T08:22:37.000Z</time>
      </trkpt>
      <trkpt lat="48.36526" lon="15.653712">
        <ele>270.904139</ele>
        <time>2024-05-26T08:22:41.000Z</time>
      </trkpt>
      <trkpt lat="48.365224" lon="15.653558">
        <ele>269.362442</ele>
        <time>2024-05-26T08:22:42.000Z</time>
      </trkpt>
      <trkpt lat="48.365245" lon="15.653313">
        <ele>267.132458</ele>
        <time>2024-05-26T08:22:44.000Z</time>
      </trkpt>
      <trkpt lat="48.365336" lon="15.652767">
        <ele>263.431455</ele>
        <time>2024-05-26T08:22:48.000Z</time>
      </trkpt>
      <trkpt lat="48.365327" lon="15.651737">
        <ele>258.438</ele>
        <time>2024-05-26T08:22:56.000Z</time>
      </trkpt>
      <trkpt lat="48.365337" lon="15.651194">
        <ele>255.771714</ele>
        <time>2024-05-26T08:23:00.000Z</time>
      </trkpt>
      <trkpt lat="48.365381" lon="15.650525">
        <ele>252.552664</ele>
        <time>2024-05-26T08:23:05.000Z</time>
      </trkpt>
      <trkpt lat="48.365403" lon="15.650419">
        <ele>252.027394</ele>
        <time>2024-05-26T08:23:06.000Z</time>
      </trkpt>
      <trkpt lat="48.365452" lon="15.650292">
        <ele>251.723722</ele>
        <time>2024-05-26T08:23:07.000Z</time>
      </trkpt>
      <trkpt lat="48.365507" lon="15.65022">
        <ele>251.465086</ele>
        <time>2024-05-26T08:23:08.000Z</time>
      </trkpt>
      <trkpt lat="48.365744" lon="15.650089">
        <ele>250.634525</ele>
        <time>2024-05-26T08:23:11.000Z</time>
      </trkpt>
      <trkpt lat="48.367429" lon="15.649524">
        <ele>247.618483</ele>
        <time>2024-05-26T08:23:30.000Z</time>
      </trkpt>
      <trkpt lat="48.367533" lon="15.649467">
        <ele>248.115684</ele>
        <time>2024-05-26T08:23:31.000Z</time>
      </trkpt>
      <trkpt lat="48.367577" lon="15.649414">
        <ele>248.291664</ele>
        <time>2024-05-26T08:23:32.000Z</time>
      </trkpt>
      <trkpt lat="48.367583" lon="15.649384">
        <ele>248.379349</ele>
        <time>2024-05-26T08:23:32.000Z</time>
      </trkpt>
      <trkpt lat="48.367718" lon="15.649476">
        <ele>248.931568</ele>
        <time>2024-05-26T08:23:34.000Z</time>
      </trkpt>
      <trkpt lat="48.367813" lon="15.649504">
        <ele>249.371129</ele>
        <time>2024-05-26T08:23:35.000Z</time>
      </trkpt>
      <trkpt lat="48.36796" lon="15.649489">
        <ele>249.924068</ele>
        <time>2024-05-26T08:23:37.000Z</time>
      </trkpt>
      <trkpt lat="48.368244" lon="15.64942">
        <ele>251.036115</ele>
        <time>2024-05-26T08:23:40.000Z</time>
      </trkpt>
      <trkpt lat="48.368282" lon="15.649386">
        <ele>251.25876</ele>
        <time>2024-05-26T08:23:40.000Z</time>
      </trkpt>
      <trkpt lat="48.368348" lon="15.648818">
        <ele>252.734719</ele>
        <time>2024-05-26T08:23:44.000Z</time>
      </trkpt>
      <trkpt lat="48.368378" lon="15.648615">
        <ele>253.280307</ele>
        <time>2024-05-26T08:23:46.000Z</time>
      </trkpt>
      <trkpt lat="48.368406" lon="15.64862">
        <ele>253.43594</ele>
        <time>2024-05-26T08:23:46.000Z</time>
      </trkpt>
      <trkpt lat="48.369201" lon="15.648564">
        <ele>258.05121</ele>
        <time>2024-05-26T08:23:55.000Z</time>
      </trkpt>
      <trkpt lat="48.369942" lon="15.648484">
        <ele>262.27311</ele>
        <time>2024-05-26T08:24:03.000Z</time>
      </trkpt>
      <trkpt lat="48.37012" lon="15.648493">
        <ele>263.313477</ele>
        <time>2024-05-26T08:24:05.000Z</time>
      </trkpt>
      <trkpt lat="48.370224" lon="15.648542">
        <ele>263.863638</ele>
        <time>2024-05-26T08:24:06.000Z</time>
      </trkpt>
      <trkpt lat="48.370391" lon="15.648636">
        <ele>264.683026</ele>
        <time>2024-05-26T08:24:08.000Z</time>
      </trkpt>
      <trkpt lat="48.370756" lon="15.648615">
        <ele>266.211362</ele>
        <time>2024-05-26T08:24:12.000Z</time>
      </trkpt>
      <trkpt lat="48.371284" lon="15.648537">
        <ele>268.580302</ele>
        <time>2024-05-26T08:24:18.000Z</time>
      </trkpt>
      <trkpt lat="48.372002" lon="15.648449">
        <ele>271.585765</ele>
        <time>2024-05-26T08:24:26.000Z</time>
      </trkpt>
      <trkpt lat="48.372802" lon="15.648668">
        <ele>272.453797</ele>
        <time>2024-05-26T08:24:35.000Z</time>
      </trkpt>
      <trkpt lat="48.37335" lon="15.648608">
        <ele>273.031747</ele>
        <time>2024-05-26T08:24:41.000Z</time>
      </trkpt>
      <trkpt lat="48.373692" lon="15.648546">
        <ele>273.397156</ele>
        <time>2024-05-26T08:24:45.000Z</time>
      </trkpt>
      <trkpt lat="48.37399" lon="15.648427">
        <ele>272.726018</ele>
        <time>2024-05-26T08:24:48.000Z</time>
      </trkpt>
      <trkpt lat="48.374036" lon="15.648432">
        <ele>272.610019</ele>
        <time>2024-05-26T08:24:49.000Z</time>
      </trkpt>
      <trkpt lat="48.374088" lon="15.648424">
        <ele>272.43732</ele>
        <time>2024-05-26T08:24:50.000Z</time>
      </trkpt>
      <trkpt lat="48.374166" lon="15.648389">
        <ele>272.19615</ele>
        <time>2024-05-26T08:24:51.000Z</time>
      </trkpt>
      <trkpt lat="48.374986" lon="15.647751">
        <ele>269.562396</ele>
        <time>2024-05-26T08:25:01.000Z</time>
      </trkpt>
      <trkpt lat="48.375197" lon="15.64752">
        <ele>268.842376</ele>
        <time>2024-05-26T08:25:04.000Z</time>
      </trkpt>
      <trkpt lat="48.375342" lon="15.647282">
        <ele>268.088642</ele>
        <time>2024-05-26T08:25:06.000Z</time>
      </trkpt>
      <trkpt lat="48.375445" lon="15.647189">
        <ele>267.445074</ele>
        <time>2024-05-26T08:25:07.000Z</time>
      </trkpt>
      <trkpt lat="48.375649" lon="15.647014">
        <ele>266.205005</ele>
        <time>2024-05-26T08:25:10.000Z</time>
      </trkpt>
      <trkpt lat="48.376107" lon="15.646696">
        <ele>263.421066</ele>
        <time>2024-05-26T08:25:16.000Z</time>
      </trkpt>
      <trkpt lat="48.376254" lon="15.646603">
        <ele>262.477553</ele>
        <time>2024-05-26T08:25:18.000Z</time>
      </trkpt>
      <trkpt lat="48.376596" lon="15.646204">
        <ele>260.137279</ele>
        <time>2024-05-26T08:25:23.000Z</time>
      </trkpt>
      <trkpt lat="48.376859" lon="15.645878">
        <ele>258.22777</ele>
        <time>2024-05-26T08:25:27.000Z</time>
      </trkpt>
      <trkpt lat="48.376978" lon="15.645616">
        <ele>256.973379</ele>
        <time>2024-05-26T08:25:29.000Z</time>
      </trkpt>
      <trkpt lat="48.37705" lon="15.645343">
        <ele>255.856167</ele>
        <time>2024-05-26T08:25:31.000Z</time>
      </trkpt>
      <trkpt lat="48.377188" lon="15.644669">
        <ele>253.148815</ele>
        <time>2024-05-26T08:25:36.000Z</time>
      </trkpt>
      <trkpt lat="48.377236" lon="15.644244">
        <ele>251.504098</ele>
        <time>2024-05-26T08:25:39.000Z</time>
      </trkpt>
      <trkpt lat="48.377266" lon="15.643955">
        <ele>250.372797</ele>
        <time>2024-05-26T08:25:41.000Z</time>
      </trkpt>
      <trkpt lat="48.377337" lon="15.643775">
        <ele>249.596506</ele>
        <time>2024-05-26T08:25:43.000Z</time>
      </trkpt>
      <trkpt lat="48.377438" lon="15.643703">
        <ele>248.939349</ele>
        <time>2024-05-26T08:25:44.000Z</time>
      </trkpt>
      <trkpt lat="48.377491" lon="15.643693">
        <ele>248.53132</ele>
        <time>2024-05-26T08:25:45.000Z</time>
      </trkpt>
      <trkpt lat="48.377555" lon="15.643779">
        <ele>248.079057</ele>
        <time>2024-05-26T08:25:46.000Z</time>
      </trkpt>
      <trkpt lat="48.377744" lon="15.644158">
        <ele>246.630177</ele>
        <time>2024-05-26T08:25:50.000Z</time>
      </trkpt>
      <trkpt lat="48.377907" lon="15.644342">
        <ele>245.734353</ele>
        <time>2024-05-26T08:25:52.000Z</time>
      </trkpt>
      <trkpt lat="48.378263" lon="15.644388">
        <ele>244.120484</ele>
        <time>2024-05-26T08:25:56.000Z</time>
      </trkpt>
      <trkpt lat="48.378469" lon="15.644371">
        <ele>243.181131</ele>
        <time>2024-05-26T08:25:58.000Z</time>
      </trkpt>
      <trkpt lat="48.378658" lon="15.644216">
        <ele>242.192994</ele>
        <time>2024-05-26T08:26:00.000Z</time>
      </trkpt>
      <trkpt lat="48.379306" lon="15.643431">
        <ele>239.459199</ele>
        <time>2024-05-26T08:26:09.000Z</time>
      </trkpt>
      <trkpt lat="48.379862" lon="15.642711">
        <ele>238.460566</ele>
        <time>2024-05-26T08:26:17.000Z</time>
      </trkpt>
      <trkpt lat="48.381481" lon="15.640238">
        <ele>235.68658</ele>
        <time>2024-05-26T08:26:43.000Z</time>
      </trkpt>
      <trkpt lat="48.381733" lon="15.640372">
        <ele>235.326312</ele>
        <time>2024-05-26T08:26:46.000Z</time>
      </trkpt>
      <trkpt lat="48.382593" lon="15.641014">
        <ele>232.431936</ele>
        <time>2024-05-26T08:26:57.000Z</time>
      </trkpt>
      <trkpt lat="48.3829" lon="15.641202">
        <ele>231.412593</ele>
        <time>2024-05-26T08:27:01.000Z</time>
      </trkpt>
      <trkpt lat="48.382956" lon="15.640881">
        <ele>230.740024</ele>
        <time>2024-05-26T08:27:03.000Z</time>
      </trkpt>
      <trkpt lat="48.383057" lon="15.640276">
        <ele>229.450861</ele>
        <time>2024-05-26T08:27:08.000Z</time>
      </trkpt>
      <trkpt lat="48.383098" lon="15.639992">
        <ele>228.846103</ele>
        <time>2024-05-26T08:27:10.000Z</time>
      </trkpt>
      <trkpt lat="48.383137" lon="15.639751">
        <ele>228.357488</ele>
        <time>2024-05-26T08:27:12.000Z</time>
      </trkpt>
      <trkpt lat="48.383194" lon="15.639139">
        <ele>227.021274</ele>
        <time>2024-05-26T08:27:17.000Z</time>
      </trkpt>
      <trkpt lat="48.383422" lon="15.637118">
        <ele>223.905607</ele>
        <time>2024-05-26T08:27:32.000Z</time>
      </trkpt>
      <trkpt lat="48.383895" lon="15.633774">
        <ele>221.600366</ele>
        <time>2024-05-26T08:27:57.000Z</time>
      </trkpt>
      <trkpt lat="48.384028" lon="15.632979">
        <ele>220.817946</ele>
        <time>2024-05-26T08:28:03.000Z</time>
      </trkpt>
      <trkpt lat="48.384229" lon="15.631866">
        <ele>219.483885</ele>
        <time>2024-05-26T08:28:12.000Z</time>
      </trkpt>
      <trkpt lat="48.384489" lon="15.630348">
        <ele>217.448712</ele>
        <time>2024-05-26T08:28:24.000Z</time>
      </trkpt>
      <trkpt lat="48.384842" lon="15.628554">
        <ele>215.072791</ele>
        <time>2024-05-26T08:28:38.000Z</time>
      </trkpt>
      <trkpt lat="48.385188" lon="15.626918">
        <ele>212.66235</ele>
        <time>2024-05-26T08:28:51.000Z</time>
      </trkpt>
      <trkpt lat="48.385505" lon="15.625242">
        <ele>209.569558</ele>
        <time>2024-05-26T08:29:04.000Z</time>
      </trkpt>
      <trkpt lat="48.385519" lon="15.624487">
        <ele>207.831757</ele>
        <time>2024-05-26T08:29:10.000Z</time>
      </trkpt>
      <trkpt lat="48.38553" lon="15.624228">
        <ele>206.8692</ele>
        <time>2024-05-26T08:29:12.000Z</time>
      </trkpt>
      <trkpt lat="48.385514" lon="15.623283">
        <ele>203.569761</ele>
        <time>2024-05-26T08:29:19.000Z</time>
      </trkpt>
      <trkpt lat="48.385503" lon="15.623036">
        <ele>202.690784</ele>
        <time>2024-05-26T08:29:21.000Z</time>
      </trkpt>
      <trkpt lat="48.385539" lon="15.622825">
        <ele>201.971187</ele>
        <time>2024-05-26T08:29:23.000Z</time>
      </trkpt>
      <trkpt lat="48.385536" lon="15.622292">
        <ele>200.075275</ele>
        <time>2024-05-26T08:29:27.000Z</time>
      </trkpt>
      <trkpt lat="48.385542" lon="15.622285">
        <ele>199.963903</ele>
        <time>2024-05-26T08:29:27.000Z</time>
      </trkpt>
      <trkpt lat="48.385564" lon="15.622259">
        <ele>199.814716</ele>
        <time>2024-05-26T08:29:27.000Z</time>
      </trkpt>
      <trkpt lat="48.385599" lon="15.622214">
        <ele>199.639011</ele>
        <time>2024-05-26T08:29:28.000Z</time>
      </trkpt>
      <trkpt lat="48.385598" lon="15.622184">
        <ele>199.521188</ele>
        <time>2024-05-26T08:29:28.000Z</time>
      </trkpt>
      <trkpt lat="48.386254" lon="15.622192">
        <ele>197.869596</ele>
        <time>2024-05-26T08:29:35.000Z</time>
      </trkpt>
      <trkpt lat="48.386413" lon="15.62216">
        <ele>197.517118</ele>
        <time>2024-05-26T08:29:37.000Z</time>
      </trkpt>
      <trkpt lat="48.387081" lon="15.622172">
        <ele>196.03902</ele>
        <time>2024-05-26T08:29:44.000Z</time>
      </trkpt>
      <trkpt lat="48.387777" lon="15.622271">
        <ele>194.978167</ele>
        <time>2024-05-26T08:29:52.000Z</time>
      </trkpt>
      <trkpt lat="48.387886" lon="15.622289">
        <ele>194.89252</ele>
        <time>2024-05-26T08:29:53.000Z</time>
      </trkpt>
      <trkpt lat="48.387958" lon="15.622308">
        <ele>194.839173</ele>
        <time>2024-05-26T08:29:54.000Z</time>
      </trkpt>
      <trkpt lat="48.387965" lon="15.622308">
        <ele>194.830073</ele>
        <time>2024-05-26T08:29:54.000Z</time>
      </trkpt>
      <trkpt lat="48.388156" lon="15.622337">
        <ele>194.695548</ele>
        <time>2024-05-26T08:29:56.000Z</time>
      </trkpt>
      <trkpt lat="48.38878" lon="15.622504">
        <ele>194.216346</ele>
        <time>2024-05-26T08:30:03.000Z</time>
      </trkpt>
      <trkpt lat="48.389335" lon="15.622688">
        <ele>193.914535</ele>
        <time>2024-05-26T08:30:09.000Z</time>
      </trkpt>
      <trkpt lat="48.389878" lon="15.622937">
        <ele>194.27137</ele>
        <time>2024-05-26T08:30:15.000Z</time>
      </trkpt>
      <trkpt lat="48.390269" lon="15.623122">
        <ele>194.526779</ele>
        <time>2024-05-26T08:30:20.000Z</time>
      </trkpt>
      <trkpt lat="48.390578" lon="15.62331">
        <ele>194.735336</ele>
        <time>2024-05-26T08:30:24.000Z</time>
      </trkpt>
      <trkpt lat="48.391054" lon="15.623625">
        <ele>195.100154</ele>
        <time>2024-05-26T08:30:30.000Z</time>
      </trkpt>
      <trkpt lat="48.391412" lon="15.623865">
        <ele>195.50399</ele>
        <time>2024-05-26T08:30:34.000Z</time>
      </trkpt>
      <trkpt lat="48.391756" lon="15.624115">
        <ele>195.874276</ele>
        <time>2024-05-26T08:30:38.000Z</time>
      </trkpt>
      <trkpt lat="48.392182" lon="15.624494">
        <ele>196.374042</ele>
        <time>2024-05-26T08:30:44.000Z</time>
      </trkpt>
      <trkpt lat="48.392546" lon="15.624865">
        <ele>196.813159</ele>
        <time>2024-05-26T08:30:49.000Z</time>
      </trkpt>
      <trkpt lat="48.392734" lon="15.625126">
        <ele>197.05739</ele>
        <time>2024-05-26T08:30:52.000Z</time>
      </trkpt>
      <trkpt lat="48.392909" lon="15.625421">
        <ele>197.306526</ele>
        <time>2024-05-26T08:30:55.000Z</time>
      </trkpt>
      <trkpt lat="48.393111" lon="15.625923">
        <ele>197.680177</ele>
        <time>2024-05-26T08:30:59.000Z</time>
      </trkpt>
      <trkpt lat="48.393222" lon="15.626092">
        <ele>197.823648</ele>
        <time>2024-05-26T08:31:01.000Z</time>
      </trkpt>
      <trkpt lat="48.393952" lon="15.627678">
        <ele>198.968686</ele>
        <time>2024-05-26T08:31:15.000Z</time>
      </trkpt>
      <trkpt lat="48.394094" lon="15.627938">
        <ele>199.152087</ele>
        <time>2024-05-26T08:31:17.000Z</time>
      </trkpt>
      <trkpt lat="48.394288" lon="15.628079">
        <ele>199.327929</ele>
        <time>2024-05-26T08:31:19.000Z</time>
      </trkpt>
      <trkpt lat="48.394528" lon="15.628141">
        <ele>199.520287</ele>
        <time>2024-05-26T08:31:22.000Z</time>
      </trkpt>
      <trkpt lat="48.394801" lon="15.628111">
        <ele>199.758997</ele>
        <time>2024-05-26T08:31:25.000Z</time>
      </trkpt>
      <trkpt lat="48.395001" lon="15.628013">
        <ele>199.922274</ele>
        <time>2024-05-26T08:31:27.000Z</time>
      </trkpt>
      <trkpt lat="48.39546" lon="15.627774">
        <ele>200.11894</ele>
        <time>2024-05-26T08:31:32.000Z</time>
      </trkpt>
      <trkpt lat="48.396019" lon="15.627443">
        <ele>200.326454</ele>
        <time>2024-05-26T08:31:39.000Z</time>
      </trkpt>
      <trkpt lat="48.396131" lon="15.627437">
        <ele>200.364845</ele>
        <time>2024-05-26T08:31:40.000Z</time>
      </trkpt>
      <trkpt lat="48.396557" lon="15.627107">
        <ele>200.531021</ele>
        <time>2024-05-26T08:31:45.000Z</time>
      </trkpt>
      <trkpt lat="48.397154" lon="15.62667">
        <ele>200.619807</ele>
        <time>2024-05-26T08:31:52.000Z</time>
      </trkpt>
      <trkpt lat="48.397316" lon="15.626508">
        <ele>200.631358</ele>
        <time>2024-05-26T08:31:54.000Z</time>
      </trkpt>
      <trkpt lat="48.397506" lon="15.626225">
        <ele>200.646127</ele>
        <time>2024-05-26T08:31:57.000Z</time>
      </trkpt>
      <trkpt lat="48.397681" lon="15.62591">
        <ele>200.66152</ele>
        <time>2024-05-26T08:32:00.000Z</time>
      </trkpt>
      <trkpt lat="48.397801" lon="15.625456">
        <ele>200.679958</ele>
        <time>2024-05-26T08:32:04.000Z</time>
      </trkpt>
      <trkpt lat="48.397857" lon="15.625174">
        <ele>200.69085</ele>
        <time>2024-05-26T08:32:06.000Z</time>
      </trkpt>
      <trkpt lat="48.397871" lon="15.624756">
        <ele>200.66194</ele>
        <time>2024-05-26T08:32:09.000Z</time>
      </trkpt>
      <trkpt lat="48.397975" lon="15.62353">
        <ele>200.539255</ele>
        <time>2024-05-26T08:32:18.000Z</time>
      </trkpt>
      <trkpt lat="48.398122" lon="15.620464">
        <ele>200.364846</ele>
        <time>2024-05-26T08:32:41.000Z</time>
      </trkpt>
      <trkpt lat="48.398223" lon="15.618171">
        <ele>200.236857</ele>
        <time>2024-05-26T08:32:58.000Z</time>
      </trkpt>
      <trkpt lat="48.398229" lon="15.617957">
        <ele>200.22214</ele>
        <time>2024-05-26T08:33:00.000Z</time>
      </trkpt>
      <trkpt lat="48.398228" lon="15.617659">
        <ele>200.201405</ele>
        <time>2024-05-26T08:33:02.000Z</time>
      </trkpt>
      <trkpt lat="48.398569" lon="15.606133">
        <ele>200.168576</ele>
        <time>2024-05-26T08:34:27.000Z</time>
      </trkpt>
      <trkpt lat="48.398692" lon="15.60122">
        <ele>199.745522</ele>
        <time>2024-05-26T08:35:03.000Z</time>
      </trkpt>
      <trkpt lat="48.398724" lon="15.599657">
        <ele>199.57429</ele>
        <time>2024-05-26T08:35:15.000Z</time>
      </trkpt>
      <trkpt lat="48.398681" lon="15.597621">
        <ele>199.347975</ele>
        <time>2024-05-26T08:35:30.000Z</time>
      </trkpt>
      <trkpt lat="48.398627" lon="15.595577">
        <ele>199.105647</ele>
        <time>2024-05-26T08:35:45.000Z</time>
      </trkpt>
      <trkpt lat="48.398563" lon="15.594129">
        <ele>199.059418</ele>
        <time>2024-05-26T08:35:56.000Z</time>
      </trkpt>
      <trkpt lat="48.398428" lon="15.591987">
        <ele>199.06281</ele>
        <time>2024-05-26T08:36:12.000Z</time>
      </trkpt>
      <trkpt lat="48.398259" lon="15.590045">
        <ele>199.135232</ele>
        <time>2024-05-26T08:36:26.000Z</time>
      </trkpt>
      <trkpt lat="48.398107" lon="15.588603">
        <ele>199.219421</ele>
        <time>2024-05-26T08:36:37.000Z</time>
      </trkpt>
      <trkpt lat="48.398057" lon="15.588236">
        <ele>199.241935</ele>
        <time>2024-05-26T08:36:40.000Z</time>
      </trkpt>
      <trkpt lat="48.397764" lon="15.585867">
        <ele>199.199741</ele>
        <time>2024-05-26T08:36:58.000Z</time>
      </trkpt>
      <trkpt lat="48.39749" lon="15.584076">
        <ele>199.087223</ele>
        <time>2024-05-26T08:37:12.000Z</time>
      </trkpt>
      <trkpt lat="48.396673" lon="15.579076">
        <ele>198.912301</ele>
        <time>2024-05-26T08:37:50.000Z</time>
      </trkpt>
      <trkpt lat="48.396457" lon="15.577873">
        <ele>198.826329</ele>
        <time>2024-05-26T08:37:59.000Z</time>
      </trkpt>
      <trkpt lat="48.396316" lon="15.577294">
        <ele>198.783696</ele>
        <time>2024-05-26T08:38:04.000Z</time>
      </trkpt>
      <trkpt lat="48.3961" lon="15.576559">
        <ele>198.745254</ele>
        <time>2024-05-26T08:38:10.000Z</time>
      </trkpt>
      <trkpt lat="48.395852" lon="15.575889">
        <ele>198.746979</ele>
        <time>2024-05-26T08:38:16.000Z</time>
      </trkpt>
      <trkpt lat="48.395559" lon="15.575089">
        <ele>198.749099</ele>
        <time>2024-05-26T08:38:23.000Z</time>
      </trkpt>
      <trkpt lat="48.393725" lon="15.571024">
        <ele>198.936549</ele>
        <time>2024-05-26T08:38:59.000Z</time>
      </trkpt>
      <trkpt lat="48.392644" lon="15.56843">
        <ele>198.980606</ele>
        <time>2024-05-26T08:39:22.000Z</time>
      </trkpt>
      <trkpt lat="48.391912" lon="15.566659">
        <ele>198.989116</ele>
        <time>2024-05-26T08:39:37.000Z</time>
      </trkpt>
      <trkpt lat="48.390531" lon="15.563182">
        <ele>198.807149</ele>
        <time>2024-05-26T08:40:07.000Z</time>
      </trkpt>
      <trkpt lat="48.390151" lon="15.562264">
        <ele>198.793613</ele>
        <time>2024-05-26T08:40:15.000Z</time>
      </trkpt>
      <trkpt lat="48.390044" lon="15.561997">
        <ele>198.794079</ele>
        <time>2024-05-26T08:40:17.000Z</time>
      </trkpt>
      <trkpt lat="48.390011" lon="15.561817">
        <ele>198.794354</ele>
        <time>2024-05-26T08:40:18.000Z</time>
      </trkpt>
      <trkpt lat="48.389734" lon="15.561117">
        <ele>198.795564</ele>
        <time>2024-05-26T08:40:24.000Z</time>
      </trkpt>
      <trkpt lat="48.389485" lon="15.560513">
        <ele>198.819406</ele>
        <time>2024-05-26T08:40:29.000Z</time>
      </trkpt>
      <trkpt lat="48.389078" lon="15.559664">
        <ele>198.952404</ele>
        <time>2024-05-26T08:40:37.000Z</time>
      </trkpt>
      <trkpt lat="48.388903" lon="15.559305">
        <ele>199.008377</ele>
        <time>2024-05-26T08:40:40.000Z</time>
      </trkpt>
      <trkpt lat="48.388711" lon="15.558855">
        <ele>199.075914</ele>
        <time>2024-05-26T08:40:44.000Z</time>
      </trkpt>
      <trkpt lat="48.388288" lon="15.557932">
        <ele>199.224925</ele>
        <time>2024-05-26T08:40:52.000Z</time>
      </trkpt>
      <trkpt lat="48.387866" lon="15.556907">
        <ele>199.392926</ele>
        <time>2024-05-26T08:41:01.000Z</time>
      </trkpt>
      <trkpt lat="48.387515" lon="15.556014">
        <ele>199.539555</ele>
        <time>2024-05-26T08:41:09.000Z</time>
      </trkpt>
      <trkpt lat="48.387178" lon="15.555105">
        <ele>199.695277</ele>
        <time>2024-05-26T08:41:17.000Z</time>
      </trkpt>
      <trkpt lat="48.386695" lon="15.553709">
        <ele>199.94443</ele>
        <time>2024-05-26T08:41:29.000Z</time>
      </trkpt>
      <trkpt lat="48.385955" lon="15.551307">
        <ele>200.887183</ele>
        <time>2024-05-26T08:41:49.000Z</time>
      </trkpt>
      <trkpt lat="48.385889" lon="15.551097">
        <ele>200.994042</ele>
        <time>2024-05-26T08:41:51.000Z</time>
      </trkpt>
      <trkpt lat="48.385826" lon="15.550878">
        <ele>201.114683</ele>
        <time>2024-05-26T08:41:53.000Z</time>
      </trkpt>
      <trkpt lat="48.38542" lon="15.549638">
        <ele>201.772097</ele>
        <time>2024-05-26T08:42:03.000Z</time>
      </trkpt>
      <trkpt lat="48.385104" lon="15.548917">
        <ele>202.178048</ele>
        <time>2024-05-26T08:42:09.000Z</time>
      </trkpt>
      <trkpt lat="48.384513" lon="15.547353">
        <ele>202.647269</ele>
        <time>2024-05-26T08:42:22.000Z</time>
      </trkpt>
      <trkpt lat="48.384383" lon="15.546922">
        <ele>202.77167</ele>
        <time>2024-05-26T08:42:25.000Z</time>
      </trkpt>
      <trkpt lat="48.384164" lon="15.545956">
        <ele>203.081644</ele>
        <time>2024-05-26T08:42:33.000Z</time>
      </trkpt>
      <trkpt lat="48.383943" lon="15.544831">
        <ele>203.471374</ele>
        <time>2024-05-26T08:42:42.000Z</time>
      </trkpt>
      <trkpt lat="48.383657" lon="15.543153">
        <ele>203.872755</ele>
        <time>2024-05-26T08:42:55.000Z</time>
      </trkpt>
      <trkpt lat="48.383525" lon="15.542197">
        <ele>203.979837</ele>
        <time>2024-05-26T08:43:02.000Z</time>
      </trkpt>
      <trkpt lat="48.383211" lon="15.539482">
        <ele>204.454404</ele>
        <time>2024-05-26T08:43:22.000Z</time>
      </trkpt>
      <trkpt lat="48.383152" lon="15.538969">
        <ele>204.560849</ele>
        <time>2024-05-26T08:43:26.000Z</time>
      </trkpt>
      <trkpt lat="48.382877" lon="15.537332">
        <ele>205.169724</ele>
        <time>2024-05-26T08:43:38.000Z</time>
      </trkpt>
      <trkpt lat="48.382481" lon="15.534473">
        <ele>206.035468</ele>
        <time>2024-05-26T08:44:00.000Z</time>
      </trkpt>
      <trkpt lat="48.382397" lon="15.533613">
        <ele>206.20746</ele>
        <time>2024-05-26T08:44:06.000Z</time>
      </trkpt>
      <trkpt lat="48.382365" lon="15.532382">
        <ele>206.580946</ele>
        <time>2024-05-26T08:44:15.000Z</time>
      </trkpt>
      <trkpt lat="48.382405" lon="15.530017">
        <ele>207.29609</ele>
        <time>2024-05-26T08:44:32.000Z</time>
      </trkpt>
      <trkpt lat="48.382455" lon="15.528644">
        <ele>207.578379</ele>
        <time>2024-05-26T08:44:42.000Z</time>
      </trkpt>
      <trkpt lat="48.382533" lon="15.527564">
        <ele>207.795864</ele>
        <time>2024-05-26T08:44:50.000Z</time>
      </trkpt>
      <trkpt lat="48.382681" lon="15.526597">
        <ele>207.993262</ele>
        <time>2024-05-26T08:44:57.000Z</time>
      </trkpt>
      <trkpt lat="48.382921" lon="15.524813">
        <ele>208.349099</ele>
        <time>2024-05-26T08:45:10.000Z</time>
      </trkpt>
      <trkpt lat="48.382944" lon="15.524624">
        <ele>208.384781</ele>
        <time>2024-05-26T08:45:11.000Z</time>
      </trkpt>
      <trkpt lat="48.383009" lon="15.524073">
        <ele>208.492271</ele>
        <time>2024-05-26T08:45:15.000Z</time>
      </trkpt>
      <trkpt lat="48.383227" lon="15.522399">
        <ele>208.830209</ele>
        <time>2024-05-26T08:45:28.000Z</time>
      </trkpt>
      <trkpt lat="48.383321" lon="15.521899">
        <ele>208.945111</ele>
        <time>2024-05-26T08:45:32.000Z</time>
      </trkpt>
      <trkpt lat="48.383515" lon="15.521316">
        <ele>209.09007</ele>
        <time>2024-05-26T08:45:37.000Z</time>
      </trkpt>
      <trkpt lat="48.38382" lon="15.520836">
        <ele>209.236255</ele>
        <time>2024-05-26T08:45:42.000Z</time>
      </trkpt>
      <trkpt lat="48.384387" lon="15.520093">
        <ele>209.420432</ele>
        <time>2024-05-26T08:45:50.000Z</time>
      </trkpt>
      <trkpt lat="48.385421" lon="15.518724">
        <ele>209.583776</ele>
        <time>2024-05-26T08:46:05.000Z</time>
      </trkpt>
      <trkpt lat="48.385708" lon="15.518292">
        <ele>209.224714</ele>
        <time>2024-05-26T08:46:10.000Z</time>
      </trkpt>
      <trkpt lat="48.385846" lon="15.518056">
        <ele>208.933975</ele>
        <time>2024-05-26T08:46:12.000Z</time>
      </trkpt>
      <trkpt lat="48.386041" lon="15.517857">
        <ele>208.626028</ele>
        <time>2024-05-26T08:46:15.000Z</time>
      </trkpt>
      <trkpt lat="48.386453" lon="15.517424">
        <ele>207.967306</ele>
        <time>2024-05-26T08:46:21.000Z</time>
      </trkpt>
      <trkpt lat="48.386812" lon="15.516962">
        <ele>207.329954</ele>
        <time>2024-05-26T08:46:26.000Z</time>
      </trkpt>
      <trkpt lat="48.386938" lon="15.516903">
        <ele>207.219895</ele>
        <time>2024-05-26T08:46:27.000Z</time>
      </trkpt>
      <trkpt lat="48.387047" lon="15.516894">
        <ele>207.254339</ele>
        <time>2024-05-26T08:46:28.000Z</time>
      </trkpt>
      <trkpt lat="48.387185" lon="15.516936">
        <ele>207.299325</ele>
        <time>2024-05-26T08:46:30.000Z</time>
      </trkpt>
      <trkpt lat="48.387469" lon="15.517088">
        <ele>207.389298</ele>
        <time>2024-05-26T08:46:33.000Z</time>
      </trkpt>
      <trkpt lat="48.387578" lon="15.517131">
        <ele>207.424666</ele>
        <time>2024-05-26T08:46:34.000Z</time>
      </trkpt>
      <trkpt lat="48.387662" lon="15.517091">
        <ele>207.456547</ele>
        <time>2024-05-26T08:46:35.000Z</time>
      </trkpt>
      <trkpt lat="48.387751" lon="15.517016">
        <ele>207.489211</ele>
        <time>2024-05-26T08:46:36.000Z</time>
      </trkpt>
      <trkpt lat="48.387997" lon="15.516457">
        <ele>207.62932</ele>
        <time>2024-05-26T08:46:41.000Z</time>
      </trkpt>
      <trkpt lat="48.388256" lon="15.515881">
        <ele>207.775223</ele>
        <time>2024-05-26T08:46:46.000Z</time>
      </trkpt>
      <trkpt lat="48.388396" lon="15.515741">
        <ele>208.168395</ele>
        <time>2024-05-26T08:46:48.000Z</time>
      </trkpt>
      <trkpt lat="48.388561" lon="15.515591">
        <ele>208.633539</ele>
        <time>2024-05-26T08:46:50.000Z</time>
      </trkpt>
      <trkpt lat="48.388935" lon="15.515338">
        <ele>209.642224</ele>
        <time>2024-05-26T08:46:55.000Z</time>
      </trkpt>
      <trkpt lat="48.389138" lon="15.515154">
        <ele>210.193555</ele>
        <time>2024-05-26T08:46:58.000Z</time>
      </trkpt>
      <trkpt lat="48.389415" lon="15.514858">
        <ele>211.027865</ele>
        <time>2024-05-26T08:47:02.000Z</time>
      </trkpt>
      <trkpt lat="48.390784" lon="15.512686">
        <ele>213.656555</ele>
        <time>2024-05-26T08:47:24.000Z</time>
      </trkpt>
      <trkpt lat="48.391434" lon="15.511605">
        <ele>215.927062</ele>
        <time>2024-05-26T08:47:35.000Z</time>
      </trkpt>
      <trkpt lat="48.391678" lon="15.511341">
        <ele>216.751195</ele>
        <time>2024-05-26T08:47:38.000Z</time>
      </trkpt>
      <trkpt lat="48.392068" lon="15.510939">
        <ele>218.084674</ele>
        <time>2024-05-26T08:47:43.000Z</time>
      </trkpt>
      <trkpt lat="48.392249" lon="15.510712">
        <ele>218.773575</ele>
        <time>2024-05-26T08:47:46.000Z</time>
      </trkpt>
      <trkpt lat="48.392383" lon="15.510511">
        <ele>219.142991</ele>
        <time>2024-05-26T08:47:48.000Z</time>
      </trkpt>
      <trkpt lat="48.394217" lon="15.508057">
        <ele>221.905141</ele>
        <time>2024-05-26T08:48:15.000Z</time>
      </trkpt>
      <trkpt lat="48.39535" lon="15.506424">
        <ele>223.347929</ele>
        <time>2024-05-26T08:48:32.000Z</time>
      </trkpt>
      <trkpt lat="48.395675" lon="15.505951">
        <ele>223.961638</ele>
        <time>2024-05-26T08:48:37.000Z</time>
      </trkpt>
      <trkpt lat="48.395981" lon="15.505541">
        <ele>224.513547</ele>
        <time>2024-05-26T08:48:42.000Z</time>
      </trkpt>
      <trkpt lat="48.396156" lon="15.505385">
        <ele>224.781702</ele>
        <time>2024-05-26T08:48:44.000Z</time>
      </trkpt>
      <trkpt lat="48.396345" lon="15.504845">
        <ele>224.972365</ele>
        <time>2024-05-26T08:48:49.000Z</time>
      </trkpt>
      <trkpt lat="48.396368" lon="15.5044">
        <ele>224.860672</ele>
        <time>2024-05-26T08:48:52.000Z</time>
      </trkpt>
      <trkpt lat="48.396387" lon="15.504286">
        <ele>224.828855</ele>
        <time>2024-05-26T08:48:53.000Z</time>
      </trkpt>
      <trkpt lat="48.396495" lon="15.504047">
        <ele>224.758558</ele>
        <time>2024-05-26T08:48:55.000Z</time>
      </trkpt>
      <trkpt lat="48.396762" lon="15.503592">
        <ele>224.608097</ele>
        <time>2024-05-26T08:48:59.000Z</time>
      </trkpt>
      <trkpt lat="48.397142" lon="15.502802">
        <ele>224.35515</ele>
        <time>2024-05-26T08:49:06.000Z</time>
      </trkpt>
      <trkpt lat="48.397463" lon="15.502059">
        <ele>223.742665</ele>
        <time>2024-05-26T08:49:13.000Z</time>
      </trkpt>
      <trkpt lat="48.398186" lon="15.500224">
        <ele>222.053819</ele>
        <time>2024-05-26T08:49:29.000Z</time>
      </trkpt>
      <trkpt lat="48.398538" lon="15.499347">
        <ele>220.590592</ele>
        <time>2024-05-26T08:49:37.000Z</time>
      </trkpt>
      <trkpt lat="48.398651" lon="15.498977">
        <ele>220.012436</ele>
        <time>2024-05-26T08:49:40.000Z</time>
      </trkpt>
      <trkpt lat="48.398858" lon="15.498266">
        <ele>218.93767</ele>
        <time>2024-05-26T08:49:46.000Z</time>
      </trkpt>
      <trkpt lat="48.399029" lon="15.497311">
        <ele>217.047857</ele>
        <time>2024-05-26T08:49:53.000Z</time>
      </trkpt>
      <trkpt lat="48.399123" lon="15.496546">
        <ele>215.43775</ele>
        <time>2024-05-26T08:49:59.000Z</time>
      </trkpt>
      <trkpt lat="48.399242" lon="15.495758">
        <ele>213.814943</ele>
        <time>2024-05-26T08:50:05.000Z</time>
      </trkpt>
      <trkpt lat="48.399255" lon="15.495417">
        <ele>213.133291</ele>
        <time>2024-05-26T08:50:08.000Z</time>
      </trkpt>
      <trkpt lat="48.399224" lon="15.495131">
        <ele>212.69756</ele>
        <time>2024-05-26T08:50:10.000Z</time>
      </trkpt>
      <trkpt lat="48.399168" lon="15.494792">
        <ele>212.11573</ele>
        <time>2024-05-26T08:50:13.000Z</time>
      </trkpt>
      <trkpt lat="48.398952" lon="15.493944">
        <ele>210.672121</ele>
        <time>2024-05-26T08:50:20.000Z</time>
      </trkpt>
      <trkpt lat="48.398348" lon="15.491632">
        <ele>207.566262</ele>
        <time>2024-05-26T08:50:38.000Z</time>
      </trkpt>
      <trkpt lat="48.39805" lon="15.490683">
        <ele>206.544195</ele>
        <time>2024-05-26T08:50:46.000Z</time>
      </trkpt>
      <trkpt lat="48.397926" lon="15.490283">
        <ele>206.168717</ele>
        <time>2024-05-26T08:50:49.000Z</time>
      </trkpt>
      <trkpt lat="48.397871" lon="15.490112">
        <ele>206.049514</ele>
        <time>2024-05-26T08:50:50.000Z</time>
      </trkpt>
      <trkpt lat="48.397408" lon="15.488744">
        <ele>205.061932</ele>
        <time>2024-05-26T08:51:01.000Z</time>
      </trkpt>
      <trkpt lat="48.39669" lon="15.486754">
        <ele>204.312053</ele>
        <time>2024-05-26T08:51:18.000Z</time>
      </trkpt>
      <trkpt lat="48.396419" lon="15.485926">
        <ele>204.170051</ele>
        <time>2024-05-26T08:51:25.000Z</time>
      </trkpt>
      <trkpt lat="48.396224" lon="15.485473">
        <ele>204.148743</ele>
        <time>2024-05-26T08:51:29.000Z</time>
      </trkpt>
      <trkpt lat="48.395989" lon="15.484989">
        <ele>204.248086</ele>
        <time>2024-05-26T08:51:33.000Z</time>
      </trkpt>
      <trkpt lat="48.395837" lon="15.484584">
        <ele>204.3231</ele>
        <time>2024-05-26T08:51:36.000Z</time>
      </trkpt>
      <trkpt lat="48.395739" lon="15.484267">
        <ele>204.380859</ele>
        <time>2024-05-26T08:51:39.000Z</time>
      </trkpt>
      <trkpt lat="48.395636" lon="15.483873">
        <ele>204.447613</ele>
        <time>2024-05-26T08:51:42.000Z</time>
      </trkpt>
      <trkpt lat="48.395449" lon="15.483387">
        <ele>204.540268</ele>
        <time>2024-05-26T08:51:46.000Z</time>
      </trkpt>
      <trkpt lat="48.395224" lon="15.48291">
        <ele>204.764588</ele>
        <time>2024-05-26T08:51:50.000Z</time>
      </trkpt>
      <trkpt lat="48.394967" lon="15.482404">
        <ele>205.037581</ele>
        <time>2024-05-26T08:51:55.000Z</time>
      </trkpt>
      <trkpt lat="48.394675" lon="15.481737">
        <ele>205.378418</ele>
        <time>2024-05-26T08:52:01.000Z</time>
      </trkpt>
      <trkpt lat="48.394424" lon="15.481114">
        <ele>205.694479</ele>
        <time>2024-05-26T08:52:06.000Z</time>
      </trkpt>
      <trkpt lat="48.394148" lon="15.480304">
        <ele>206.021722</ele>
        <time>2024-05-26T08:52:13.000Z</time>
      </trkpt>
      <trkpt lat="48.393671" lon="15.478814">
        <ele>206.60495</ele>
        <time>2024-05-26T08:52:25.000Z</time>
      </trkpt>
      <trkpt lat="48.393345" lon="15.477958">
        <ele>207.259767</ele>
        <time>2024-05-26T08:52:32.000Z</time>
      </trkpt>
      <trkpt lat="48.39308" lon="15.476885">
        <ele>208.134547</ele>
        <time>2024-05-26T08:52:40.000Z</time>
      </trkpt>
      <trkpt lat="48.393001" lon="15.476616">
        <ele>208.347228</ele>
        <time>2024-05-26T08:52:42.000Z</time>
      </trkpt>
      <trkpt lat="48.392916" lon="15.476354">
        <ele>208.569476</ele>
        <time>2024-05-26T08:52:44.000Z</time>
      </trkpt>
      <trkpt lat="48.392785" lon="15.476061">
        <ele>208.844307</ele>
        <time>2024-05-26T08:52:47.000Z</time>
      </trkpt>
      <trkpt lat="48.392576" lon="15.475677">
        <ele>209.243978</ele>
        <time>2024-05-26T08:52:51.000Z</time>
      </trkpt>
      <trkpt lat="48.392337" lon="15.475256">
        <ele>209.669166</ele>
        <time>2024-05-26T08:52:55.000Z</time>
      </trkpt>
      <trkpt lat="48.392136" lon="15.474804">
        <ele>210.092346</ele>
        <time>2024-05-26T08:52:59.000Z</time>
      </trkpt>
      <trkpt lat="48.391919" lon="15.474412">
        <ele>210.490598</ele>
        <time>2024-05-26T08:53:03.000Z</time>
      </trkpt>
      <trkpt lat="48.391523" lon="15.473843">
        <ele>210.998612</ele>
        <time>2024-05-26T08:53:09.000Z</time>
      </trkpt>
      <trkpt lat="48.390828" lon="15.472952">
        <ele>211.549841</ele>
        <time>2024-05-26T08:53:19.000Z</time>
      </trkpt>
      <trkpt lat="48.390298" lon="15.472314">
        <ele>211.957989</ele>
        <time>2024-05-26T08:53:27.000Z</time>
      </trkpt>
      <trkpt lat="48.389138" lon="15.471064">
        <ele>212.388233</ele>
        <time>2024-05-26T08:53:43.000Z</time>
      </trkpt>
      <trkpt lat="48.388478" lon="15.470277">
        <ele>212.799545</ele>
        <time>2024-05-26T08:53:52.000Z</time>
      </trkpt>
      <trkpt lat="48.388245" lon="15.470035">
        <ele>212.976919</ele>
        <time>2024-05-26T08:53:55.000Z</time>
      </trkpt>
      <trkpt lat="48.387995" lon="15.469791">
        <ele>213.159448</ele>
        <time>2024-05-26T08:53:58.000Z</time>
      </trkpt>
      <trkpt lat="48.387436" lon="15.469325">
        <ele>213.554152</ele>
        <time>2024-05-26T08:54:05.000Z</time>
      </trkpt>
      <trkpt lat="48.385878" lon="15.467995">
        <ele>214.046796</ele>
        <time>2024-05-26T08:54:25.000Z</time>
      </trkpt>
      <trkpt lat="48.385472" lon="15.467628">
        <ele>214.067994</ele>
        <time>2024-05-26T08:54:30.000Z</time>
      </trkpt>
      <trkpt lat="48.385053" lon="15.467199">
        <ele>214.066492</ele>
        <time>2024-05-26T08:54:36.000Z</time>
      </trkpt>
      <trkpt lat="48.384218" lon="15.466223">
        <ele>214.070444</ele>
        <time>2024-05-26T08:54:48.000Z</time>
      </trkpt>
      <trkpt lat="48.383859" lon="15.465726">
        <ele>214.090739</ele>
        <time>2024-05-26T08:54:53.000Z</time>
      </trkpt>
      <trkpt lat="48.382822" lon="15.464096">
        <ele>214.272281</ele>
        <time>2024-05-26T08:55:10.000Z</time>
      </trkpt>
      <trkpt lat="48.381958" lon="15.462662">
        <ele>214.784021</ele>
        <time>2024-05-26T08:55:24.000Z</time>
      </trkpt>
      <trkpt lat="48.381521" lon="15.462012">
        <ele>214.890758</ele>
        <time>2024-05-26T08:55:31.000Z</time>
      </trkpt>
      <trkpt lat="48.381255" lon="15.461651">
        <ele>214.924798</ele>
        <time>2024-05-26T08:55:35.000Z</time>
      </trkpt>
      <trkpt lat="48.380598" lon="15.460823">
        <ele>215.007253</ele>
        <time>2024-05-26T08:55:45.000Z</time>
      </trkpt>
      <trkpt lat="48.379181" lon="15.459046">
        <ele>215.096354</ele>
        <time>2024-05-26T08:56:06.000Z</time>
      </trkpt>
      <trkpt lat="48.378542" lon="15.458184">
        <ele>215.42808</ele>
        <time>2024-05-26T08:56:16.000Z</time>
      </trkpt>
      <trkpt lat="48.377153" lon="15.456133">
        <ele>216.115083</ele>
        <time>2024-05-26T08:56:38.000Z</time>
      </trkpt>
      <trkpt lat="48.376915" lon="15.455857">
        <ele>216.199261</ele>
        <time>2024-05-26T08:56:41.000Z</time>
      </trkpt>
      <trkpt lat="48.376694" lon="15.455653">
        <ele>216.264592</ele>
        <time>2024-05-26T08:56:44.000Z</time>
      </trkpt>
      <trkpt lat="48.375869" lon="15.454976">
        <ele>216.783449</ele>
        <time>2024-05-26T08:56:54.000Z</time>
      </trkpt>
      <trkpt lat="48.375442" lon="15.454631">
        <ele>217.112429</ele>
        <time>2024-05-26T08:56:59.000Z</time>
      </trkpt>
      <trkpt lat="48.374984" lon="15.454263">
        <ele>217.466128</ele>
        <time>2024-05-26T08:57:05.000Z</time>
      </trkpt>
      <trkpt lat="48.374486" lon="15.453694">
        <ele>217.546531</ele>
        <time>2024-05-26T08:57:12.000Z</time>
      </trkpt>
      <trkpt lat="48.374028" lon="15.453148">
        <ele>217.484185</ele>
        <time>2024-05-26T08:57:18.000Z</time>
      </trkpt>
      <trkpt lat="48.373544" lon="15.452515">
        <ele>217.414392</ele>
        <time>2024-05-26T08:57:25.000Z</time>
      </trkpt>
      <trkpt lat="48.373395" lon="15.452283">
        <ele>217.280684</ele>
        <time>2024-05-26T08:57:27.000Z</time>
      </trkpt>
      <trkpt lat="48.373051" lon="15.451863">
        <ele>216.654092</ele>
        <time>2024-05-26T08:57:32.000Z</time>
      </trkpt>
      <trkpt lat="48.372294" lon="15.450908">
        <ele>215.251531</ele>
        <time>2024-05-26T08:57:43.000Z</time>
      </trkpt>
      <trkpt lat="48.372086" lon="15.450525">
        <ele>214.775056</ele>
        <time>2024-05-26T08:57:47.000Z</time>
      </trkpt>
      <trkpt lat="48.372028" lon="15.450404">
        <ele>214.662654</ele>
        <time>2024-05-26T08:57:48.000Z</time>
      </trkpt>
      <trkpt lat="48.371832" lon="15.449937">
        <ele>214.191392</ele>
        <time>2024-05-26T08:57:52.000Z</time>
      </trkpt>
      <trkpt lat="48.371719" lon="15.449701">
        <ele>213.943076</ele>
        <time>2024-05-26T08:57:54.000Z</time>
      </trkpt>
      <trkpt lat="48.371371" lon="15.449259">
        <ele>213.37206</ele>
        <time>2024-05-26T08:57:59.000Z</time>
      </trkpt>
      <trkpt lat="48.371194" lon="15.448978">
        <ele>213.04945</ele>
        <time>2024-05-26T08:58:02.000Z</time>
      </trkpt>
      <trkpt lat="48.371055" lon="15.448684">
        <ele>212.739466</ele>
        <time>2024-05-26T08:58:05.000Z</time>
      </trkpt>
      <trkpt lat="48.370896" lon="15.448342">
        <ele>212.492802</ele>
        <time>2024-05-26T08:58:08.000Z</time>
      </trkpt>
      <trkpt lat="48.370751" lon="15.448134">
        <ele>212.392865</ele>
        <time>2024-05-26T08:58:10.000Z</time>
      </trkpt>
      <trkpt lat="48.370554" lon="15.447873">
        <ele>212.258612</ele>
        <time>2024-05-26T08:58:13.000Z</time>
      </trkpt>
      <trkpt lat="48.370317" lon="15.447613">
        <ele>212.112601</ele>
        <time>2024-05-26T08:58:16.000Z</time>
      </trkpt>
      <trkpt lat="48.369996" lon="15.447256">
        <ele>211.921268</ele>
        <time>2024-05-26T08:58:20.000Z</time>
      </trkpt>
      <trkpt lat="48.369421" lon="15.446394">
        <ele>211.696758</ele>
        <time>2024-05-26T08:58:29.000Z</time>
      </trkpt>
      <trkpt lat="48.368907" lon="15.445601">
        <ele>211.77321</ele>
        <time>2024-05-26T08:58:37.000Z</time>
      </trkpt>
      <trkpt lat="48.368558" lon="15.445061">
        <ele>211.824962</ele>
        <time>2024-05-26T08:58:43.000Z</time>
      </trkpt>
      <trkpt lat="48.368381" lon="15.444754">
        <ele>211.855868</ele>
        <time>2024-05-26T08:58:46.000Z</time>
      </trkpt>
      <trkpt lat="48.368286" lon="15.444485">
        <ele>211.925104</ele>
        <time>2024-05-26T08:58:48.000Z</time>
      </trkpt>
      <trkpt lat="48.368239" lon="15.444358">
        <ele>211.957757</ele>
        <time>2024-05-26T08:58:49.000Z</time>
      </trkpt>
      <trkpt lat="48.368046" lon="15.443846">
        <ele>212.089943</ele>
        <time>2024-05-26T08:58:53.000Z</time>
      </trkpt>
      <trkpt lat="48.367681" lon="15.443046">
        <ele>212.308385</ele>
        <time>2024-05-26T08:59:00.000Z</time>
      </trkpt>
      <trkpt lat="48.3675" lon="15.442111">
        <ele>212.557105</ele>
        <time>2024-05-26T08:59:07.000Z</time>
      </trkpt>
      <trkpt lat="48.367225" lon="15.440916">
        <ele>212.967982</ele>
        <time>2024-05-26T08:59:16.000Z</time>
      </trkpt>
      <trkpt lat="48.366964" lon="15.439989">
        <ele>213.300672</ele>
        <time>2024-05-26T08:59:23.000Z</time>
      </trkpt>
      <trkpt lat="48.366764" lon="15.439415">
        <ele>213.820887</ele>
        <time>2024-05-26T08:59:28.000Z</time>
      </trkpt>
      <trkpt lat="48.366585" lon="15.439046">
        <ele>214.256807</ele>
        <time>2024-05-26T08:59:31.000Z</time>
      </trkpt>
      <trkpt lat="48.366129" lon="15.438518">
        <ele>215.080233</ele>
        <time>2024-05-26T08:59:37.000Z</time>
      </trkpt>
      <trkpt lat="48.365962" lon="15.438258">
        <ele>215.420282</ele>
        <time>2024-05-26T08:59:40.000Z</time>
      </trkpt>
      <trkpt lat="48.365765" lon="15.437806">
        <ele>215.926146</ele>
        <time>2024-05-26T08:59:44.000Z</time>
      </trkpt>
      <trkpt lat="48.365641" lon="15.437424">
        <ele>216.260719</ele>
        <time>2024-05-26T08:59:47.000Z</time>
      </trkpt>
      <trkpt lat="48.365498" lon="15.437067">
        <ele>216.584934</ele>
        <time>2024-05-26T08:59:50.000Z</time>
      </trkpt>
      <trkpt lat="48.365379" lon="15.436839">
        <ele>216.820002</ele>
        <time>2024-05-26T08:59:52.000Z</time>
      </trkpt>
      <trkpt lat="48.365131" lon="15.436424">
        <ele>217.245371</ele>
        <time>2024-05-26T08:59:56.000Z</time>
      </trkpt>
      <trkpt lat="48.364991" lon="15.436162">
        <ele>217.505903</ele>
        <time>2024-05-26T08:59:58.000Z</time>
      </trkpt>
      <trkpt lat="48.364932" lon="15.43601">
        <ele>217.64354</ele>
        <time>2024-05-26T08:59:59.000Z</time>
      </trkpt>
      <trkpt lat="48.364861" lon="15.435679">
        <ele>217.924323</ele>
        <time>2024-05-26T09:00:02.000Z</time>
      </trkpt>
      <trkpt lat="48.364792" lon="15.435585">
        <ele>218.023574</ele>
        <time>2024-05-26T09:00:03.000Z</time>
      </trkpt>
      <trkpt lat="48.364202" lon="15.434201">
        <ele>218.433244</ele>
        <time>2024-05-26T09:00:15.000Z</time>
      </trkpt>
      <trkpt lat="48.363301" lon="15.431879">
        <ele>218.724235</ele>
        <time>2024-05-26T09:00:35.000Z</time>
      </trkpt>
      <trkpt lat="48.362859" lon="15.430268">
        <ele>218.698603</ele>
        <time>2024-05-26T09:00:48.000Z</time>
      </trkpt>
      <trkpt lat="48.362669" lon="15.429712">
        <ele>218.655468</ele>
        <time>2024-05-26T09:00:53.000Z</time>
      </trkpt>
      <trkpt lat="48.362256" lon="15.428772">
        <ele>218.57887</ele>
        <time>2024-05-26T09:01:01.000Z</time>
      </trkpt>
      <trkpt lat="48.361352" lon="15.426856">
        <ele>218.491161</ele>
        <time>2024-05-26T09:01:18.000Z</time>
      </trkpt>
      <trkpt lat="48.361194" lon="15.426455">
        <ele>218.476159</ele>
        <time>2024-05-26T09:01:21.000Z</time>
      </trkpt>
      <trkpt lat="48.360363" lon="15.424649">
        <ele>218.099944</ele>
        <time>2024-05-26T09:01:37.000Z</time>
      </trkpt>
      <trkpt lat="48.360167" lon="15.424164">
        <ele>217.995529</ele>
        <time>2024-05-26T09:01:41.000Z</time>
      </trkpt>
      <trkpt lat="48.359822" lon="15.423201">
        <ele>217.766796</ele>
        <time>2024-05-26T09:01:49.000Z</time>
      </trkpt>
      <trkpt lat="48.359382" lon="15.422048">
        <ele>217.481039</ele>
        <time>2024-05-26T09:01:59.000Z</time>
      </trkpt>
      <trkpt lat="48.35875" lon="15.420571">
        <ele>216.96767</ele>
        <time>2024-05-26T09:02:12.000Z</time>
      </trkpt>
      <trkpt lat="48.358468" lon="15.420023">
        <ele>216.741557</ele>
        <time>2024-05-26T09:02:17.000Z</time>
      </trkpt>
      <trkpt lat="48.358153" lon="15.419583">
        <ele>216.537334</ele>
        <time>2024-05-26T09:02:22.000Z</time>
      </trkpt>
      <trkpt lat="48.357013" lon="15.418155">
        <ele>216.074984</ele>
        <time>2024-05-26T09:02:38.000Z</time>
      </trkpt>
      <trkpt lat="48.356484" lon="15.417636">
        <ele>215.841754</ele>
        <time>2024-05-26T09:02:45.000Z</time>
      </trkpt>
      <trkpt lat="48.355532" lon="15.416722">
        <ele>215.351667</ele>
        <time>2024-05-26T09:02:58.000Z</time>
      </trkpt>
      <trkpt lat="48.355137" lon="15.416216">
        <ele>215.118284</ele>
        <time>2024-05-26T09:03:04.000Z</time>
      </trkpt>
      <trkpt lat="48.354787" lon="15.41578">
        <ele>214.917813</ele>
        <time>2024-05-26T09:03:09.000Z</time>
      </trkpt>
      <trkpt lat="48.354392" lon="15.415374">
        <ele>214.708709</ele>
        <time>2024-05-26T09:03:14.000Z</time>
      </trkpt>
      <trkpt lat="48.353223" lon="15.414252">
        <ele>214.1134</ele>
        <time>2024-05-26T09:03:29.000Z</time>
      </trkpt>
      <trkpt lat="48.352682" lon="15.413993">
        <ele>213.871002</ele>
        <time>2024-05-26T09:03:35.000Z</time>
      </trkpt>
      <trkpt lat="48.352308" lon="15.413747">
        <ele>213.691517</ele>
        <time>2024-05-26T09:03:40.000Z</time>
      </trkpt>
      <trkpt lat="48.351772" lon="15.413449">
        <ele>213.497144</ele>
        <time>2024-05-26T09:03:46.000Z</time>
      </trkpt>
      <trkpt lat="48.350686" lon="15.412788">
        <ele>213.123009</ele>
        <time>2024-05-26T09:03:59.000Z</time>
      </trkpt>
      <trkpt lat="48.350198" lon="15.412653">
        <ele>212.945306</ele>
        <time>2024-05-26T09:04:05.000Z</time>
      </trkpt>
      <trkpt lat="48.349527" lon="15.412525">
        <ele>212.695325</ele>
        <time>2024-05-26T09:04:13.000Z</time>
      </trkpt>
      <trkpt lat="48.349135" lon="15.412334">
        <ele>212.541566</ele>
        <time>2024-05-26T09:04:18.000Z</time>
      </trkpt>
      <trkpt lat="48.348939" lon="15.412238">
        <ele>212.459688</ele>
        <time>2024-05-26T09:04:20.000Z</time>
      </trkpt>
      <trkpt lat="48.348767" lon="15.412228">
        <ele>212.395866</ele>
        <time>2024-05-26T09:04:22.000Z</time>
      </trkpt>
      <trkpt lat="48.348642" lon="15.412214">
        <ele>212.379001</ele>
        <time>2024-05-26T09:04:23.000Z</time>
      </trkpt>
      <trkpt lat="48.348144" lon="15.412208">
        <ele>212.373098</ele>
        <time>2024-05-26T09:04:29.000Z</time>
      </trkpt>
      <trkpt lat="48.347753" lon="15.412125">
        <ele>212.368534</ele>
        <time>2024-05-26T09:04:33.000Z</time>
      </trkpt>
      <trkpt lat="48.347319" lon="15.412005">
        <ele>212.363357</ele>
        <time>2024-05-26T09:04:38.000Z</time>
      </trkpt>
      <trkpt lat="48.346166" lon="15.411934">
        <ele>212.304276</ele>
        <time>2024-05-26T09:04:51.000Z</time>
      </trkpt>
      <trkpt lat="48.345567" lon="15.411686">
        <ele>212.260626</ele>
        <time>2024-05-26T09:04:58.000Z</time>
      </trkpt>
      <trkpt lat="48.345314" lon="15.411591">
        <ele>212.241783</ele>
        <time>2024-05-26T09:05:01.000Z</time>
      </trkpt>
      <trkpt lat="48.344604" lon="15.411453">
        <ele>212.354939</ele>
        <time>2024-05-26T09:05:09.000Z</time>
      </trkpt>
      <trkpt lat="48.344065" lon="15.411286">
        <ele>212.479199</ele>
        <time>2024-05-26T09:05:15.000Z</time>
      </trkpt>
      <trkpt lat="48.343717" lon="15.411225">
        <ele>212.557148</ele>
        <time>2024-05-26T09:05:19.000Z</time>
      </trkpt>
      <trkpt lat="48.342069" lon="15.411193">
        <ele>213.061085</ele>
        <time>2024-05-26T09:05:37.000Z</time>
      </trkpt>
      <trkpt lat="48.341523" lon="15.411165">
        <ele>213.267053</ele>
        <time>2024-05-26T09:05:43.000Z</time>
      </trkpt>
      <trkpt lat="48.340764" lon="15.411019">
        <ele>213.970096</ele>
        <time>2024-05-26T09:05:52.000Z</time>
      </trkpt>
      <trkpt lat="48.340079" lon="15.410957">
        <ele>214.612858</ele>
        <time>2024-05-26T09:06:00.000Z</time>
      </trkpt>
      <trkpt lat="48.339683" lon="15.410901">
        <ele>214.978822</ele>
        <time>2024-05-26T09:06:04.000Z</time>
      </trkpt>
      <trkpt lat="48.339054" lon="15.410682">
        <ele>215.676544</ele>
        <time>2024-05-26T09:06:11.000Z</time>
      </trkpt>
      <trkpt lat="48.337519" lon="15.410285">
        <ele>217.441343</ele>
        <time>2024-05-26T09:06:28.000Z</time>
      </trkpt>
      <trkpt lat="48.337202" lon="15.410209">
        <ele>217.82601</ele>
        <time>2024-05-26T09:06:32.000Z</time>
      </trkpt>
      <trkpt lat="48.336433" lon="15.409902">
        <ele>218.832339</ele>
        <time>2024-05-26T09:06:41.000Z</time>
      </trkpt>
      <trkpt lat="48.336137" lon="15.409811">
        <ele>219.219466</ele>
        <time>2024-05-26T09:06:44.000Z</time>
      </trkpt>
      <trkpt lat="48.335774" lon="15.409776">
        <ele>219.638252</ele>
        <time>2024-05-26T09:06:48.000Z</time>
      </trkpt>
      <trkpt lat="48.33497" lon="15.409805">
        <ele>220.604808</ele>
        <time>2024-05-26T09:06:57.000Z</time>
      </trkpt>
      <trkpt lat="48.333646" lon="15.409916">
        <ele>221.582934</ele>
        <time>2024-05-26T09:07:12.000Z</time>
      </trkpt>
      <trkpt lat="48.332238" lon="15.410412">
        <ele>222.327958</ele>
        <time>2024-05-26T09:07:28.000Z</time>
      </trkpt>
      <trkpt lat="48.331651" lon="15.410613">
        <ele>222.693959</ele>
        <time>2024-05-26T09:07:35.000Z</time>
      </trkpt>
      <trkpt lat="48.330344" lon="15.410761">
        <ele>223.467061</ele>
        <time>2024-05-26T09:07:50.000Z</time>
      </trkpt>
      <trkpt lat="48.330003" lon="15.410807">
        <ele>223.66421</ele>
        <time>2024-05-26T09:07:54.000Z</time>
      </trkpt>
      <trkpt lat="48.329497" lon="15.410937">
        <ele>223.962635</ele>
        <time>2024-05-26T09:08:00.000Z</time>
      </trkpt>
      <trkpt lat="48.328149" lon="15.411378">
        <ele>224.401499</ele>
        <time>2024-05-26T09:08:15.000Z</time>
      </trkpt>
      <trkpt lat="48.326925" lon="15.411762">
        <ele>224.616927</ele>
        <time>2024-05-26T09:08:29.000Z</time>
      </trkpt>
      <trkpt lat="48.325824" lon="15.412167">
        <ele>224.709836</ele>
        <time>2024-05-26T09:08:42.000Z</time>
      </trkpt>
      <trkpt lat="48.325317" lon="15.412347">
        <ele>224.445753</ele>
        <time>2024-05-26T09:08:48.000Z</time>
      </trkpt>
      <trkpt lat="48.325138" lon="15.41239">
        <ele>224.298875</ele>
        <time>2024-05-26T09:08:50.000Z</time>
      </trkpt>
      <trkpt lat="48.324794" lon="15.412392">
        <ele>224.024402</ele>
        <time>2024-05-26T09:08:54.000Z</time>
      </trkpt>
      <trkpt lat="48.324582" lon="15.412397">
        <ele>223.862942</ele>
        <time>2024-05-26T09:08:56.000Z</time>
      </trkpt>
      <trkpt lat="48.324271" lon="15.412427">
        <ele>223.604118</ele>
        <time>2024-05-26T09:08:59.000Z</time>
      </trkpt>
      <trkpt lat="48.323732" lon="15.412524">
        <ele>223.13554</ele>
        <time>2024-05-26T09:09:05.000Z</time>
      </trkpt>
      <trkpt lat="48.323353" lon="15.412643">
        <ele>222.750493</ele>
        <time>2024-05-26T09:09:09.000Z</time>
      </trkpt>
      <trkpt lat="48.323092" lon="15.412699">
        <ele>222.471854</ele>
        <time>2024-05-26T09:09:12.000Z</time>
      </trkpt>
      <trkpt lat="48.322625" lon="15.412871">
        <ele>221.978351</ele>
        <time>2024-05-26T09:09:17.000Z</time>
      </trkpt>
      <trkpt lat="48.322494" lon="15.412891">
        <ele>221.854163</ele>
        <time>2024-05-26T09:09:18.000Z</time>
      </trkpt>
      <trkpt lat="48.322178" lon="15.412944">
        <ele>221.516169</ele>
        <time>2024-05-26T09:09:22.000Z</time>
      </trkpt>
      <trkpt lat="48.321749" lon="15.413015">
        <ele>220.974356</ele>
        <time>2024-05-26T09:09:27.000Z</time>
      </trkpt>
      <trkpt lat="48.321339" lon="15.413116">
        <ele>220.445626</ele>
        <time>2024-05-26T09:09:32.000Z</time>
      </trkpt>
      <trkpt lat="48.320881" lon="15.413213">
        <ele>219.851139</ele>
        <time>2024-05-26T09:09:37.000Z</time>
      </trkpt>
      <trkpt lat="48.320146" lon="15.413437">
        <ele>218.849042</ele>
        <time>2024-05-26T09:09:45.000Z</time>
      </trkpt>
      <trkpt lat="48.319404" lon="15.413662">
        <ele>217.774186</ele>
        <time>2024-05-26T09:09:53.000Z</time>
      </trkpt>
      <trkpt lat="48.318915" lon="15.413748">
        <ele>217.072001</ele>
        <time>2024-05-26T09:09:58.000Z</time>
      </trkpt>
      <trkpt lat="48.318145" lon="15.413796">
        <ele>215.403427</ele>
        <time>2024-05-26T09:10:07.000Z</time>
      </trkpt>
      <trkpt lat="48.317662" lon="15.41379">
        <ele>214.080586</ele>
        <time>2024-05-26T09:10:12.000Z</time>
      </trkpt>
      <trkpt lat="48.317211" lon="15.413712">
        <ele>212.807263</ele>
        <time>2024-05-26T09:10:17.000Z</time>
      </trkpt>
      <trkpt lat="48.317028" lon="15.413714">
        <ele>212.272187</ele>
        <time>2024-05-26T09:10:19.000Z</time>
      </trkpt>
      <trkpt lat="48.316796" lon="15.413732">
        <ele>211.594349</ele>
        <time>2024-05-26T09:10:22.000Z</time>
      </trkpt>
      <trkpt lat="48.316479" lon="15.413761">
        <ele>210.84821</ele>
        <time>2024-05-26T09:10:26.000Z</time>
      </trkpt>
      <trkpt lat="48.316103" lon="15.413738">
        <ele>209.960222</ele>
        <time>2024-05-26T09:10:30.000Z</time>
      </trkpt>
      <trkpt lat="48.315552" lon="15.413636">
        <ele>208.667401</ele>
        <time>2024-05-26T09:10:36.000Z</time>
      </trkpt>
      <trkpt lat="48.315196" lon="15.413558">
        <ele>207.8388</ele>
        <time>2024-05-26T09:10:40.000Z</time>
      </trkpt>
      <trkpt lat="48.314971" lon="15.413525">
        <ele>207.300063</ele>
        <time>2024-05-26T09:10:43.000Z</time>
      </trkpt>
      <trkpt lat="48.314537" lon="15.413482">
        <ele>206.866876</ele>
        <time>2024-05-26T09:10:48.000Z</time>
      </trkpt>
      <trkpt lat="48.314215" lon="15.413479">
        <ele>206.547291</ele>
        <time>2024-05-26T09:10:52.000Z</time>
      </trkpt>
      <trkpt lat="48.314089" lon="15.413456">
        <ele>206.419909</ele>
        <time>2024-05-26T09:10:53.000Z</time>
      </trkpt>
      <trkpt lat="48.313747" lon="15.413365">
        <ele>206.086635</ele>
        <time>2024-05-26T09:10:57.000Z</time>
      </trkpt>
      <trkpt lat="48.313292" lon="15.413207">
        <ele>205.638806</ele>
        <time>2024-05-26T09:11:02.000Z</time>
      </trkpt>
      <trkpt lat="48.312744" lon="15.413035">
        <ele>205.596307</ele>
        <time>2024-05-26T09:11:08.000Z</time>
      </trkpt>
      <trkpt lat="48.312567" lon="15.413012">
        <ele>205.622618</ele>
        <time>2024-05-26T09:11:10.000Z</time>
      </trkpt>
      <trkpt lat="48.312361" lon="15.413017">
        <ele>205.651716</ele>
        <time>2024-05-26T09:11:12.000Z</time>
      </trkpt>
      <trkpt lat="48.312137" lon="15.413074">
        <ele>205.68549</ele>
        <time>2024-05-26T09:11:15.000Z</time>
      </trkpt>
      <trkpt lat="48.311855" lon="15.41318">
        <ele>205.72616</ele>
        <time>2024-05-26T09:11:18.000Z</time>
      </trkpt>
      <trkpt lat="48.311353" lon="15.413413">
        <ele>205.817222</ele>
        <time>2024-05-26T09:11:24.000Z</time>
      </trkpt>
      <trkpt lat="48.311181" lon="15.413469">
        <ele>205.871695</ele>
        <time>2024-05-26T09:11:26.000Z</time>
      </trkpt>
      <trkpt lat="48.310951" lon="15.413489">
        <ele>205.94101</ele>
        <time>2024-05-26T09:11:29.000Z</time>
      </trkpt>
      <trkpt lat="48.310807" lon="15.413489">
        <ele>205.988234</ele>
        <time>2024-05-26T09:11:31.000Z</time>
      </trkpt>
      <trkpt lat="48.310691" lon="15.41344">
        <ele>206.023817</ele>
        <time>2024-05-26T09:11:32.000Z</time>
      </trkpt>
      <trkpt lat="48.310454" lon="15.413345">
        <ele>206.102148</ele>
        <time>2024-05-26T09:11:35.000Z</time>
      </trkpt>
      <trkpt lat="48.310202" lon="15.413173">
        <ele>206.187604</ele>
        <time>2024-05-26T09:11:38.000Z</time>
      </trkpt>
      <trkpt lat="48.309999" lon="15.412989">
        <ele>206.268459</ele>
        <time>2024-05-26T09:11:41.000Z</time>
      </trkpt>
      <trkpt lat="48.309696" lon="15.412648">
        <ele>206.346853</ele>
        <time>2024-05-26T09:11:45.000Z</time>
      </trkpt>
      <trkpt lat="48.309477" lon="15.412411">
        <ele>206.315499</ele>
        <time>2024-05-26T09:11:48.000Z</time>
      </trkpt>
      <trkpt lat="48.309291" lon="15.412267">
        <ele>206.288827</ele>
        <time>2024-05-26T09:11:50.000Z</time>
      </trkpt>
      <trkpt lat="48.309016" lon="15.412115">
        <ele>206.253564</ele>
        <time>2024-05-26T09:11:53.000Z</time>
      </trkpt>
      <trkpt lat="48.308862" lon="15.412061">
        <ele>206.233541</ele>
        <time>2024-05-26T09:11:55.000Z</time>
      </trkpt>
      <trkpt lat="48.308815" lon="15.41207">
        <ele>206.227363</ele>
        <time>2024-05-26T09:11:56.000Z</time>
      </trkpt>
      <trkpt lat="48.308717" lon="15.412043">
        <ele>206.216225</ele>
        <time>2024-05-26T09:11:57.000Z</time>
      </trkpt>
      <trkpt lat="48.308527" lon="15.412014">
        <ele>206.191598</ele>
        <time>2024-05-26T09:11:59.000Z</time>
      </trkpt>
      <trkpt lat="48.306415" lon="15.411816">
        <ele>206.32071</ele>
        <time>2024-05-26T09:12:23.000Z</time>
      </trkpt>
      <trkpt lat="48.30525" lon="15.411689">
        <ele>206.678951</ele>
        <time>2024-05-26T09:12:36.000Z</time>
      </trkpt>
      <trkpt lat="48.304912" lon="15.411674">
        <ele>206.788557</ele>
        <time>2024-05-26T09:12:40.000Z</time>
      </trkpt>
      <trkpt lat="48.304638" lon="15.411603">
        <ele>206.885714</ele>
        <time>2024-05-26T09:12:43.000Z</time>
      </trkpt>
      <trkpt lat="48.304238" lon="15.411505">
        <ele>207.127241</ele>
        <time>2024-05-26T09:12:48.000Z</time>
      </trkpt>
      <trkpt lat="48.303516" lon="15.411295">
        <ele>207.655847</ele>
        <time>2024-05-26T09:12:56.000Z</time>
      </trkpt>
      <trkpt lat="48.302923" lon="15.411138">
        <ele>208.101875</ele>
        <time>2024-05-26T09:13:03.000Z</time>
      </trkpt>
      <trkpt lat="48.302631" lon="15.411068">
        <ele>208.363509</ele>
        <time>2024-05-26T09:13:06.000Z</time>
      </trkpt>
      <trkpt lat="48.301904" lon="15.410913">
        <ele>209.267552</ele>
        <time>2024-05-26T09:13:14.000Z</time>
      </trkpt>
      <trkpt lat="48.301285" lon="15.41069">
        <ele>210.048201</ele>
        <time>2024-05-26T09:13:21.000Z</time>
      </trkpt>
      <trkpt lat="48.301032" lon="15.410592">
        <ele>210.365223</ele>
        <time>2024-05-26T09:13:24.000Z</time>
      </trkpt>
      <trkpt lat="48.300566" lon="15.410371">
        <ele>210.976293</ele>
        <time>2024-05-26T09:13:29.000Z</time>
      </trkpt>
      <trkpt lat="48.299888" lon="15.410035">
        <ele>211.853356</ele>
        <time>2024-05-26T09:13:37.000Z</time>
      </trkpt>
      <trkpt lat="48.298434" lon="15.409626">
        <ele>214.402267</ele>
        <time>2024-05-26T09:13:53.000Z</time>
      </trkpt>
      <trkpt lat="48.298233" lon="15.409547">
        <ele>214.817457</ele>
        <time>2024-05-26T09:13:55.000Z</time>
      </trkpt>
      <trkpt lat="48.297989" lon="15.409423">
        <ele>215.369672</ele>
        <time>2024-05-26T09:13:58.000Z</time>
      </trkpt>
      <trkpt lat="48.297723" lon="15.409274">
        <ele>215.973573</ele>
        <time>2024-05-26T09:14:01.000Z</time>
      </trkpt>
      <trkpt lat="48.297627" lon="15.409214">
        <ele>216.187382</ele>
        <time>2024-05-26T09:14:02.000Z</time>
      </trkpt>
      <trkpt lat="48.297261" lon="15.408953">
        <ele>216.635186</ele>
        <time>2024-05-26T09:14:07.000Z</time>
      </trkpt>
      <trkpt lat="48.297244" lon="15.408948">
        <ele>216.647802</ele>
        <time>2024-05-26T09:14:07.000Z</time>
      </trkpt>
      <trkpt lat="48.296501" lon="15.40851">
        <ele>217.122922</ele>
        <time>2024-05-26T09:14:16.000Z</time>
      </trkpt>
      <trkpt lat="48.295936" lon="15.408242">
        <ele>217.479655</ele>
        <time>2024-05-26T09:14:23.000Z</time>
      </trkpt>
      <trkpt lat="48.295797" lon="15.408209">
        <ele>217.52815</ele>
        <time>2024-05-26T09:14:25.000Z</time>
      </trkpt>
      <trkpt lat="48.295562" lon="15.408162">
        <ele>217.371151</ele>
        <time>2024-05-26T09:14:28.000Z</time>
      </trkpt>
      <trkpt lat="48.29483" lon="15.408075">
        <ele>216.845474</ele>
        <time>2024-05-26T09:14:36.000Z</time>
      </trkpt>
      <trkpt lat="48.294577" lon="15.408025">
        <ele>216.666099</ele>
        <time>2024-05-26T09:14:39.000Z</time>
      </trkpt>
      <trkpt lat="48.294415" lon="15.40796">
        <ele>216.549268</ele>
        <time>2024-05-26T09:14:41.000Z</time>
      </trkpt>
      <trkpt lat="48.293911" lon="15.407697">
        <ele>216.003758</ele>
        <time>2024-05-26T09:14:47.000Z</time>
      </trkpt>
      <trkpt lat="48.293577" lon="15.407547">
        <ele>215.366173</ele>
        <time>2024-05-26T09:14:51.000Z</time>
      </trkpt>
      <trkpt lat="48.293312" lon="15.407502">
        <ele>214.912388</ele>
        <time>2024-05-26T09:14:54.000Z</time>
      </trkpt>
      <trkpt lat="48.293122" lon="15.407502">
        <ele>214.552322</ele>
        <time>2024-05-26T09:14:56.000Z</time>
      </trkpt>
      <trkpt lat="48.292965" lon="15.407541">
        <ele>214.279718</ele>
        <time>2024-05-26T09:14:58.000Z</time>
      </trkpt>
      <trkpt lat="48.292967" lon="15.407554">
        <ele>214.270149</ele>
        <time>2024-05-26T09:14:58.000Z</time>
      </trkpt>
      <trkpt lat="48.292579" lon="15.407578">
        <ele>213.572539</ele>
        <time>2024-05-26T09:15:02.000Z</time>
      </trkpt>
      <trkpt lat="48.292578" lon="15.407647">
        <ele>213.504938</ele>
        <time>2024-05-26T09:15:03.000Z</time>
      </trkpt>
      <trkpt lat="48.292573" lon="15.407643">
        <ele>213.50313</ele>
        <time>2024-05-26T09:15:03.000Z</time>
      </trkpt>
      <trkpt lat="48.292556" lon="15.407887">
        <ele>213.205984</ele>
        <time>2024-05-26T09:15:05.000Z</time>
      </trkpt>
      <trkpt lat="48.292232" lon="15.408655">
        <ele>212.834494</ele>
        <time>2024-05-26T09:15:12.000Z</time>
      </trkpt>
      <trkpt lat="48.292019" lon="15.409624">
        <ele>212.557052</ele>
        <time>2024-05-26T09:15:20.000Z</time>
      </trkpt>
      <trkpt lat="48.292067" lon="15.410666">
        <ele>212.332041</ele>
        <time>2024-05-26T09:15:28.000Z</time>
      </trkpt>
      <trkpt lat="48.292061" lon="15.410792">
        <ele>212.353543</ele>
        <time>2024-05-26T09:15:29.000Z</time>
      </trkpt>
      <trkpt lat="48.292074" lon="15.410897">
        <ele>212.373112</ele>
        <time>2024-05-26T09:15:30.000Z</time>
      </trkpt>
      <trkpt lat="48.292112" lon="15.411283">
        <ele>212.443172</ele>
        <time>2024-05-26T09:15:33.000Z</time>
      </trkpt>
      <trkpt lat="48.292104" lon="15.411291">
        <ele>212.443164</ele>
        <time>2024-05-26T09:15:33.000Z</time>
      </trkpt>
      <trkpt lat="48.292109" lon="15.411426">
        <ele>212.468556</ele>
        <time>2024-05-26T09:15:34.000Z</time>
      </trkpt>
      <trkpt lat="48.292108" lon="15.411419">
        <ele>212.468558</ele>
        <time>2024-05-26T09:15:34.000Z</time>
      </trkpt>
      <trkpt lat="48.292258" lon="15.412263">
        <ele>212.625219</ele>
        <time>2024-05-26T09:15:40.000Z</time>
      </trkpt>
      <trkpt lat="48.292451" lon="15.412732">
        <ele>212.72535</ele>
        <time>2024-05-26T09:15:44.000Z</time>
      </trkpt>
      <trkpt lat="48.292962" lon="15.413299">
        <ele>213.060972</ele>
        <time>2024-05-26T09:15:51.000Z</time>
      </trkpt>
      <trkpt lat="48.293073" lon="15.413413">
        <ele>213.148924</ele>
        <time>2024-05-26T09:15:52.000Z</time>
      </trkpt>
      <trkpt lat="48.29328" lon="15.413752">
        <ele>213.371307</ele>
        <time>2024-05-26T09:15:55.000Z</time>
      </trkpt>
      <trkpt lat="48.293278" lon="15.413746">
        <ele>213.371309</ele>
        <time>2024-05-26T09:15:55.000Z</time>
      </trkpt>
      <trkpt lat="48.293977" lon="15.415314">
        <ele>214.317894</ele>
        <time>2024-05-26T09:16:09.000Z</time>
      </trkpt>
      <trkpt lat="48.293998" lon="15.415382">
        <ele>214.362852</ele>
        <time>2024-05-26T09:16:10.000Z</time>
      </trkpt>
      <trkpt lat="48.294046" lon="15.415597">
        <ele>214.497834</ele>
        <time>2024-05-26T09:16:12.000Z</time>
      </trkpt>
      <trkpt lat="48.294048" lon="15.415582">
        <ele>214.497834</ele>
        <time>2024-05-26T09:16:12.000Z</time>
      </trkpt>
      <trkpt lat="48.294488" lon="15.41712">
        <ele>215.517223</ele>
        <time>2024-05-26T09:16:24.000Z</time>
      </trkpt>
      <trkpt lat="48.294473" lon="15.417112">
        <ele>215.517232</ele>
        <time>2024-05-26T09:16:24.000Z</time>
      </trkpt>
      <trkpt lat="48.294662" lon="15.417746">
        <ele>216.040636</ele>
        <time>2024-05-26T09:16:29.000Z</time>
      </trkpt>
      <trkpt lat="48.29467" lon="15.417751">
        <ele>216.063799</ele>
        <time>2024-05-26T09:16:29.000Z</time>
      </trkpt>
      <trkpt lat="48.294697" lon="15.417837">
        <ele>216.156819</ele>
        <time>2024-05-26T09:16:30.000Z</time>
      </trkpt>
      <trkpt lat="48.294785" lon="15.418416">
        <ele>216.691313</ele>
        <time>2024-05-26T09:16:34.000Z</time>
      </trkpt>
      <trkpt lat="48.294784" lon="15.41894">
        <ele>217.160543</ele>
        <time>2024-05-26T09:16:38.000Z</time>
      </trkpt>
      <trkpt lat="48.294833" lon="15.419545">
        <ele>217.708035</ele>
        <time>2024-05-26T09:16:43.000Z</time>
      </trkpt>
      <trkpt lat="48.294901" lon="15.419786">
        <ele>217.944511</ele>
        <time>2024-05-26T09:16:45.000Z</time>
      </trkpt>
      <trkpt lat="48.295259" lon="15.420773">
        <ele>219.302971</ele>
        <time>2024-05-26T09:16:53.000Z</time>
      </trkpt>
      <trkpt lat="48.295348" lon="15.421238">
        <ele>219.904563</ele>
        <time>2024-05-26T09:16:57.000Z</time>
      </trkpt>
      <trkpt lat="48.295353" lon="15.422223">
        <ele>221.183348</ele>
        <time>2024-05-26T09:17:04.000Z</time>
      </trkpt>
      <trkpt lat="48.295329" lon="15.422517">
        <ele>221.559906</ele>
        <time>2024-05-26T09:17:06.000Z</time>
      </trkpt>
      <trkpt lat="48.295349" lon="15.422819">
        <ele>222.039325</ele>
        <time>2024-05-26T09:17:08.000Z</time>
      </trkpt>
      <trkpt lat="48.295393" lon="15.423055">
        <ele>222.479534</ele>
        <time>2024-05-26T09:17:10.000Z</time>
      </trkpt>
      <trkpt lat="48.295563" lon="15.423435">
        <ele>223.251693</ele>
        <time>2024-05-26T09:17:13.000Z</time>
      </trkpt>
      <trkpt lat="48.295681" lon="15.423832">
        <ele>224.016064</ele>
        <time>2024-05-26T09:17:16.000Z</time>
      </trkpt>
      <trkpt lat="48.296307" lon="15.42571">
        <ele>228.34325</ele>
        <time>2024-05-26T09:17:32.000Z</time>
      </trkpt>
      <trkpt lat="48.296749" lon="15.425875">
        <ele>230.165786</ele>
        <time>2024-05-26T09:17:37.000Z</time>
      </trkpt>
      <trkpt lat="48.296918" lon="15.425975">
        <ele>230.860925</ele>
        <time>2024-05-26T09:17:39.000Z</time>
      </trkpt>
      <trkpt lat="48.297138" lon="15.426478">
        <ele>232.438621</ele>
        <time>2024-05-26T09:17:43.000Z</time>
      </trkpt>
      <trkpt lat="48.297231" lon="15.426662">
        <ele>233.085193</ele>
        <time>2024-05-26T09:17:45.000Z</time>
      </trkpt>
      <trkpt lat="48.297404" lon="15.426879">
        <ele>234.042419</ele>
        <time>2024-05-26T09:17:48.000Z</time>
      </trkpt>
      <trkpt lat="48.298235" lon="15.427574">
        <ele>238.547499</ele>
        <time>2024-05-26T09:17:59.000Z</time>
      </trkpt>
      <trkpt lat="48.298374" lon="15.427694">
        <ele>239.26306</ele>
        <time>2024-05-26T09:18:01.000Z</time>
      </trkpt>
      <trkpt lat="48.298699" lon="15.428086">
        <ele>241.232078</ele>
        <time>2024-05-26T09:18:06.000Z</time>
      </trkpt>
      <trkpt lat="48.299289" lon="15.428814">
        <ele>243.656666</ele>
        <time>2024-05-26T09:18:14.000Z</time>
      </trkpt>
      <trkpt lat="48.299903" lon="15.429698">
        <ele>246.093617</ele>
        <time>2024-05-26T09:18:23.000Z</time>
      </trkpt>
      <trkpt lat="48.300386" lon="15.430584">
        <ele>248.598104</ele>
        <time>2024-05-26T09:18:31.000Z</time>
      </trkpt>
      <trkpt lat="48.300854" lon="15.431401">
        <ele>251.258171</ele>
        <time>2024-05-26T09:18:39.000Z</time>
      </trkpt>
      <trkpt lat="48.301116" lon="15.431795">
        <ele>252.589204</ele>
        <time>2024-05-26T09:18:43.000Z</time>
      </trkpt>
      <trkpt lat="48.301652" lon="15.43223">
        <ele>255.437672</ele>
        <time>2024-05-26T09:18:50.000Z</time>
      </trkpt>
      <trkpt lat="48.302027" lon="15.432469">
        <ele>257.598236</ele>
        <time>2024-05-26T09:18:55.000Z</time>
      </trkpt>
      <trkpt lat="48.302396" lon="15.432843">
        <ele>259.93637</ele>
        <time>2024-05-26T09:19:00.000Z</time>
      </trkpt>
      <trkpt lat="48.302637" lon="15.433247">
        <ele>261.884188</ele>
        <time>2024-05-26T09:19:04.000Z</time>
      </trkpt>
      <trkpt lat="48.302823" lon="15.433729">
        <ele>263.686594</ele>
        <time>2024-05-26T09:19:08.000Z</time>
      </trkpt>
      <trkpt lat="48.30307" lon="15.434146">
        <ele>265.007643</ele>
        <time>2024-05-26T09:19:12.000Z</time>
      </trkpt>
      <trkpt lat="48.303287" lon="15.434478">
        <ele>266.107197</ele>
        <time>2024-05-26T09:19:15.000Z</time>
      </trkpt>
      <trkpt lat="48.304165" lon="15.435817">
        <ele>270.051843</ele>
        <time>2024-05-26T09:19:29.000Z</time>
      </trkpt>
      <trkpt lat="48.305084" lon="15.437181">
        <ele>272.00504</ele>
        <time>2024-05-26T09:19:43.000Z</time>
      </trkpt>
      <trkpt lat="48.306558" lon="15.439196">
        <ele>274.959981</ele>
        <time>2024-05-26T09:20:05.000Z</time>
      </trkpt>
      <trkpt lat="48.30691" lon="15.439861">
        <ele>276.764606</ele>
        <time>2024-05-26T09:20:11.000Z</time>
      </trkpt>
      <trkpt lat="48.307036" lon="15.440261">
        <ele>277.75332</ele>
        <time>2024-05-26T09:20:14.000Z</time>
      </trkpt>
      <trkpt lat="48.307127" lon="15.440627">
        <ele>278.64622</ele>
        <time>2024-05-26T09:20:17.000Z</time>
      </trkpt>
      <trkpt lat="48.307257" lon="15.440942">
        <ele>279.47881</ele>
        <time>2024-05-26T09:20:20.000Z</time>
      </trkpt>
      <trkpt lat="48.307471" lon="15.441265">
        <ele>280.546621</ele>
        <time>2024-05-26T09:20:23.000Z</time>
      </trkpt>
      <trkpt lat="48.307861" lon="15.441606">
        <ele>281.605408</ele>
        <time>2024-05-26T09:20:28.000Z</time>
      </trkpt>
      <trkpt lat="48.30794" lon="15.441719">
        <ele>281.777017</ele>
        <time>2024-05-26T09:20:29.000Z</time>
      </trkpt>
      <trkpt lat="48.308136" lon="15.441929">
        <ele>282.163183</ele>
        <time>2024-05-26T09:20:32.000Z</time>
      </trkpt>
      <trkpt lat="48.308751" lon="15.442664">
        <ele>283.403958</ele>
        <time>2024-05-26T09:20:41.000Z</time>
      </trkpt>
      <trkpt lat="48.308966" lon="15.443044">
        <ele>283.924135</ele>
        <time>2024-05-26T09:20:45.000Z</time>
      </trkpt>
      <trkpt lat="48.309067" lon="15.443292">
        <ele>284.151985</ele>
        <time>2024-05-26T09:20:47.000Z</time>
      </trkpt>
      <trkpt lat="48.309134" lon="15.443518">
        <ele>284.294746</ele>
        <time>2024-05-26T09:20:49.000Z</time>
      </trkpt>
      <trkpt lat="48.309136" lon="15.443636">
        <ele>284.365523</ele>
        <time>2024-05-26T09:20:50.000Z</time>
      </trkpt>
      <trkpt lat="48.309105" lon="15.444075">
        <ele>284.631274</ele>
        <time>2024-05-26T09:20:53.000Z</time>
      </trkpt>
      <trkpt lat="48.309081" lon="15.444445">
        <ele>284.848553</ele>
        <time>2024-05-26T09:20:56.000Z</time>
      </trkpt>
      <trkpt lat="48.309111" lon="15.444685">
        <ele>284.991482</ele>
        <time>2024-05-26T09:20:58.000Z</time>
      </trkpt>
      <trkpt lat="48.309179" lon="15.444873">
        <ele>285.118622</ele>
        <time>2024-05-26T09:21:00.000Z</time>
      </trkpt>
      <trkpt lat="48.309283" lon="15.445106">
        <ele>285.279456</ele>
        <time>2024-05-26T09:21:02.000Z</time>
      </trkpt>
      <trkpt lat="48.309601" lon="15.44573">
        <ele>286.168639</ele>
        <time>2024-05-26T09:21:08.000Z</time>
      </trkpt>
      <trkpt lat="48.309716" lon="15.445933">
        <ele>287.087922</ele>
        <time>2024-05-26T09:21:10.000Z</time>
      </trkpt>
      <trkpt lat="48.309859" lon="15.446253">
        <ele>288.332103</ele>
        <time>2024-05-26T09:21:13.000Z</time>
      </trkpt>
      <trkpt lat="48.309917" lon="15.446396">
        <ele>288.889216</ele>
        <time>2024-05-26T09:21:14.000Z</time>
      </trkpt>
      <trkpt lat="48.309967" lon="15.44665">
        <ele>289.756038</ele>
        <time>2024-05-26T09:21:16.000Z</time>
      </trkpt>
      <trkpt lat="48.309987" lon="15.446918">
        <ele>290.664958</ele>
        <time>2024-05-26T09:21:18.000Z</time>
      </trkpt>
      <trkpt lat="48.310032" lon="15.447583">
        <ele>292.89856</ele>
        <time>2024-05-26T09:21:23.000Z</time>
      </trkpt>
      <trkpt lat="48.310188" lon="15.44839">
        <ele>296.261286</ele>
        <time>2024-05-26T09:21:29.000Z</time>
      </trkpt>
      <trkpt lat="48.310268" lon="15.448724">
        <ele>298.186004</ele>
        <time>2024-05-26T09:21:32.000Z</time>
      </trkpt>
      <trkpt lat="48.310335" lon="15.449123">
        <ele>300.361511</ele>
        <time>2024-05-26T09:21:35.000Z</time>
      </trkpt>
      <trkpt lat="48.310347" lon="15.449403">
        <ele>301.834231</ele>
        <time>2024-05-26T09:21:37.000Z</time>
      </trkpt>
      <trkpt lat="48.310242" lon="15.450303">
        <ele>306.569154</ele>
        <time>2024-05-26T09:21:44.000Z</time>
      </trkpt>
      <trkpt lat="48.310262" lon="15.450923">
        <ele>310.109899</ele>
        <time>2024-05-26T09:21:49.000Z</time>
      </trkpt>
      <trkpt lat="48.310192" lon="15.451724">
        <ele>315.61482</ele>
        <time>2024-05-26T09:21:55.000Z</time>
      </trkpt>
      <trkpt lat="48.310119" lon="15.452274">
        <ele>319.351597</ele>
        <time>2024-05-26T09:21:59.000Z</time>
      </trkpt>
      <trkpt lat="48.310044" lon="15.452616">
        <ele>321.787598</ele>
        <time>2024-05-26T09:22:02.000Z</time>
      </trkpt>
      <trkpt lat="48.309996" lon="15.453123">
        <ele>325.256224</ele>
        <time>2024-05-26T09:22:06.000Z</time>
      </trkpt>
      <trkpt lat="48.310003" lon="15.453414">
        <ele>327.22171</ele>
        <time>2024-05-26T09:22:08.000Z</time>
      </trkpt>
      <trkpt lat="48.310087" lon="15.453943">
        <ele>331.108174</ele>
        <time>2024-05-26T09:22:12.000Z</time>
      </trkpt>
      <trkpt lat="48.310148" lon="15.454737">
        <ele>336.693959</ele>
        <time>2024-05-26T09:22:18.000Z</time>
      </trkpt>
      <trkpt lat="48.310144" lon="15.45504">
        <ele>338.804094</ele>
        <time>2024-05-26T09:22:20.000Z</time>
      </trkpt>
      <trkpt lat="48.310033" lon="15.455476">
        <ele>342.070568</ele>
        <time>2024-05-26T09:22:23.000Z</time>
      </trkpt>
      <trkpt lat="48.309801" lon="15.456115">
        <ele>347.342435</ele>
        <time>2024-05-26T09:22:28.000Z</time>
      </trkpt>
      <trkpt lat="48.309454" lon="15.456552">
        <ele>353.38571</ele>
        <time>2024-05-26T09:22:33.000Z</time>
      </trkpt>
      <trkpt lat="48.30932" lon="15.456645">
        <ele>355.233159</ele>
        <time>2024-05-26T09:22:35.000Z</time>
      </trkpt>
      <trkpt lat="48.308939" lon="15.456905">
        <ele>360.705887</ele>
        <time>2024-05-26T09:22:40.000Z</time>
      </trkpt>
      <trkpt lat="48.308831" lon="15.457013">
        <ele>362.305323</ele>
        <time>2024-05-26T09:22:41.000Z</time>
      </trkpt>
      <trkpt lat="48.308739" lon="15.457274">
        <ele>364.898253</ele>
        <time>2024-05-26T09:22:43.000Z</time>
      </trkpt>
      <trkpt lat="48.308662" lon="15.457652">
        <ele>368.283614</ele>
        <time>2024-05-26T09:22:46.000Z</time>
      </trkpt>
      <trkpt lat="48.308646" lon="15.457997">
        <ele>370.608094</ele>
        <time>2024-05-26T09:22:49.000Z</time>
      </trkpt>
      <trkpt lat="48.308527" lon="15.458361">
        <ele>373.15274</ele>
        <time>2024-05-26T09:22:52.000Z</time>
      </trkpt>
      <trkpt lat="48.308117" lon="15.458993">
        <ele>378.441558</ele>
        <time>2024-05-26T09:22:59.000Z</time>
      </trkpt>
      <trkpt lat="48.307549" lon="15.459871">
        <ele>385.993918</ele>
        <time>2024-05-26T09:23:08.000Z</time>
      </trkpt>
      <trkpt lat="48.307334" lon="15.460413">
        <ele>391.023499</ele>
        <time>2024-05-26T09:23:13.000Z</time>
      </trkpt>
      <trkpt lat="48.307222" lon="15.460672">
        <ele>393.5357</ele>
        <time>2024-05-26T09:23:15.000Z</time>
      </trkpt>
      <trkpt lat="48.307146" lon="15.460848">
        <ele>395.16577</ele>
        <time>2024-05-26T09:23:17.000Z</time>
      </trkpt>
      <trkpt lat="48.306952" lon="15.461135">
        <ele>398.543047</ele>
        <time>2024-05-26T09:23:20.000Z</time>
      </trkpt>
      <trkpt lat="48.306599" lon="15.461616">
        <ele>404.480359</ele>
        <time>2024-05-26T09:23:25.000Z</time>
      </trkpt>
      <trkpt lat="48.306388" lon="15.461898">
        <ele>407.829415</ele>
        <time>2024-05-26T09:23:28.000Z</time>
      </trkpt>
      <trkpt lat="48.306286" lon="15.462117">
        <ele>409.985385</ele>
        <time>2024-05-26T09:23:30.000Z</time>
      </trkpt>
      <trkpt lat="48.306247" lon="15.462289">
        <ele>411.563659</ele>
        <time>2024-05-26T09:23:31.000Z</time>
      </trkpt>
      <trkpt lat="48.306053" lon="15.46323">
        <ele>419.46365</ele>
        <time>2024-05-26T09:23:38.000Z</time>
      </trkpt>
      <trkpt lat="48.306049" lon="15.463287">
        <ele>419.978347</ele>
        <time>2024-05-26T09:23:38.000Z</time>
      </trkpt>
      <trkpt lat="48.305923" lon="15.463847">
        <ele>424.661711</ele>
        <time>2024-05-26T09:23:42.000Z</time>
      </trkpt>
      <trkpt lat="48.305845" lon="15.464061">
        <ele>426.751461</ele>
        <time>2024-05-26T09:23:44.000Z</time>
      </trkpt>
      <trkpt lat="48.30558" lon="15.464517">
        <ele>430.916008</ele>
        <time>2024-05-26T09:23:48.000Z</time>
      </trkpt>
      <trkpt lat="48.305293" lon="15.464816">
        <ele>433.758476</ele>
        <time>2024-05-26T09:23:52.000Z</time>
      </trkpt>
      <trkpt lat="48.304958" lon="15.465087">
        <ele>436.888799</ele>
        <time>2024-05-26T09:23:56.000Z</time>
      </trkpt>
      <trkpt lat="48.304585" lon="15.465531">
        <ele>440.698149</ele>
        <time>2024-05-26T09:24:01.000Z</time>
      </trkpt>
      <trkpt lat="48.304377" lon="15.465939">
        <ele>443.477496</ele>
        <time>2024-05-26T09:24:05.000Z</time>
      </trkpt>
      <trkpt lat="48.304154" lon="15.46645">
        <ele>446.217315</ele>
        <time>2024-05-26T09:24:10.000Z</time>
      </trkpt>
      <trkpt lat="48.303796" lon="15.467669">
        <ele>451.939739</ele>
        <time>2024-05-26T09:24:20.000Z</time>
      </trkpt>
      <trkpt lat="48.30371" lon="15.468157">
        <ele>454.061393</ele>
        <time>2024-05-26T09:24:24.000Z</time>
      </trkpt>
      <trkpt lat="48.303716" lon="15.468406">
        <ele>455.176173</ele>
        <time>2024-05-26T09:24:26.000Z</time>
      </trkpt>
      <trkpt lat="48.303788" lon="15.468838">
        <ele>457.388192</ele>
        <time>2024-05-26T09:24:29.000Z</time>
      </trkpt>
      <trkpt lat="48.303974" lon="15.469363">
        <ele>460.681888</ele>
        <time>2024-05-26T09:24:33.000Z</time>
      </trkpt>
      <trkpt lat="48.304265" lon="15.470038">
        <ele>464.902478</ele>
        <time>2024-05-26T09:24:39.000Z</time>
      </trkpt>
      <trkpt lat="48.304364" lon="15.470505">
        <ele>467.562978</ele>
        <time>2024-05-26T09:24:43.000Z</time>
      </trkpt>
      <trkpt lat="48.30446" lon="15.471114">
        <ele>470.979722</ele>
        <time>2024-05-26T09:24:48.000Z</time>
      </trkpt>
      <trkpt lat="48.304477" lon="15.471315">
        <ele>472.120538</ele>
        <time>2024-05-26T09:24:50.000Z</time>
      </trkpt>
      <trkpt lat="48.304476" lon="15.471649">
        <ele>473.981974</ele>
        <time>2024-05-26T09:24:52.000Z</time>
      </trkpt>
      <trkpt lat="48.304444" lon="15.471883">
        <ele>475.359439</ele>
        <time>2024-05-26T09:24:54.000Z</time>
      </trkpt>
      <trkpt lat="48.304444" lon="15.472109">
        <ele>476.6004</ele>
        <time>2024-05-26T09:24:56.000Z</time>
      </trkpt>
      <trkpt lat="48.304384" lon="15.472609">
        <ele>479.466278</ele>
        <time>2024-05-26T09:25:00.000Z</time>
      </trkpt>
      <trkpt lat="48.304332" lon="15.472927">
        <ele>481.341662</ele>
        <time>2024-05-26T09:25:02.000Z</time>
      </trkpt>
      <trkpt lat="48.304004" lon="15.473947">
        <ele>486.771214</ele>
        <time>2024-05-26T09:25:10.000Z</time>
      </trkpt>
      <trkpt lat="48.30379" lon="15.474665">
        <ele>489.321756</ele>
        <time>2024-05-26T09:25:16.000Z</time>
      </trkpt>
      <trkpt lat="48.303579" lon="15.475212">
        <ele>491.364249</ele>
        <time>2024-05-26T09:25:21.000Z</time>
      </trkpt>
      <trkpt lat="48.303447" lon="15.475504">
        <ele>492.424292</ele>
        <time>2024-05-26T09:25:24.000Z</time>
      </trkpt>
      <trkpt lat="48.303354" lon="15.47584">
        <ele>493.607398</ele>
        <time>2024-05-26T09:25:27.000Z</time>
      </trkpt>
      <trkpt lat="48.302841" lon="15.476891">
        <ele>497.220507</ele>
        <time>2024-05-26T09:25:37.000Z</time>
      </trkpt>
      <trkpt lat="48.302518" lon="15.47754">
        <ele>499.403702</ele>
        <time>2024-05-26T09:25:43.000Z</time>
      </trkpt>
      <trkpt lat="48.302225" lon="15.477926">
        <ele>500.962936</ele>
        <time>2024-05-26T09:25:47.000Z</time>
      </trkpt>
      <trkpt lat="48.301955" lon="15.478186">
        <ele>502.106919</ele>
        <time>2024-05-26T09:25:51.000Z</time>
      </trkpt>
      <trkpt lat="48.30161" lon="15.478479">
        <ele>503.443821</ele>
        <time>2024-05-26T09:25:55.000Z</time>
      </trkpt>
      <trkpt lat="48.301118" lon="15.478709">
        <ele>505.154531</ele>
        <time>2024-05-26T09:26:01.000Z</time>
      </trkpt>
      <trkpt lat="48.299807" lon="15.479114">
        <ele>508.869248</ele>
        <time>2024-05-26T09:26:16.000Z</time>
      </trkpt>
      <trkpt lat="48.298996" lon="15.479382">
        <ele>510.687479</ele>
        <time>2024-05-26T09:26:25.000Z</time>
      </trkpt>
      <trkpt lat="48.298498" lon="15.479732">
        <ele>512.194634</ele>
        <time>2024-05-26T09:26:31.000Z</time>
      </trkpt>
      <trkpt lat="48.298082" lon="15.480052">
        <ele>513.804279</ele>
        <time>2024-05-26T09:26:36.000Z</time>
      </trkpt>
      <trkpt lat="48.297755" lon="15.480423">
        <ele>515.256588</ele>
        <time>2024-05-26T09:26:41.000Z</time>
      </trkpt>
      <trkpt lat="48.297321" lon="15.481077">
        <ele>517.43291</ele>
        <time>2024-05-26T09:26:48.000Z</time>
      </trkpt>
      <trkpt lat="48.297092" lon="15.481487">
        <ele>518.940449</ele>
        <time>2024-05-26T09:26:52.000Z</time>
      </trkpt>
      <trkpt lat="48.296974" lon="15.481752">
        <ele>519.893568</ele>
        <time>2024-05-26T09:26:54.000Z</time>
      </trkpt>
      <trkpt lat="48.296807" lon="15.482266">
        <ele>521.638684</ele>
        <time>2024-05-26T09:26:58.000Z</time>
      </trkpt>
      <trkpt lat="48.296752" lon="15.482568">
        <ele>522.54101</ele>
        <time>2024-05-26T09:27:00.000Z</time>
      </trkpt>
      <trkpt lat="48.296672" lon="15.483166">
        <ele>524.41368</ele>
        <time>2024-05-26T09:27:05.000Z</time>
      </trkpt>
      <trkpt lat="48.296657" lon="15.483527">
        <ele>525.506466</ele>
        <time>2024-05-26T09:27:08.000Z</time>
      </trkpt>
      <trkpt lat="48.2966" lon="15.484194">
        <ele>527.198626</ele>
        <time>2024-05-26T09:27:13.000Z</time>
      </trkpt>
      <trkpt lat="48.296517" lon="15.48473">
        <ele>528.514671</ele>
        <time>2024-05-26T09:27:17.000Z</time>
      </trkpt>
      <trkpt lat="48.29619" lon="15.485596">
        <ele>530.88543</ele>
        <time>2024-05-26T09:27:24.000Z</time>
      </trkpt>
      <trkpt lat="48.295924" lon="15.486224">
        <ele>532.703203</ele>
        <time>2024-05-26T09:27:30.000Z</time>
      </trkpt>
      <trkpt lat="48.295625" lon="15.487226">
        <ele>535.443945</ele>
        <time>2024-05-26T09:27:38.000Z</time>
      </trkpt>
      <trkpt lat="48.295372" lon="15.487991">
        <ele>537.573883</ele>
        <time>2024-05-26T09:27:44.000Z</time>
      </trkpt>
      <trkpt lat="48.295095" lon="15.488582">
        <ele>539.455581</ele>
        <time>2024-05-26T09:27:49.000Z</time>
      </trkpt>
      <trkpt lat="48.294628" lon="15.489306">
        <ele>542.655417</ele>
        <time>2024-05-26T09:27:56.000Z</time>
      </trkpt>
      <trkpt lat="48.294506" lon="15.489506">
        <ele>543.480624</ele>
        <time>2024-05-26T09:27:58.000Z</time>
      </trkpt>
      <trkpt lat="48.294251" lon="15.489998">
        <ele>545.425677</ele>
        <time>2024-05-26T09:28:03.000Z</time>
      </trkpt>
      <trkpt lat="48.294155" lon="15.490248">
        <ele>546.371647</ele>
        <time>2024-05-26T09:28:05.000Z</time>
      </trkpt>
      <trkpt lat="48.294038" lon="15.49097">
        <ele>548.350422</ele>
        <time>2024-05-26T09:28:11.000Z</time>
      </trkpt>
      <trkpt lat="48.294001" lon="15.491674">
        <ele>549.794882</ele>
        <time>2024-05-26T09:28:16.000Z</time>
      </trkpt>
      <trkpt lat="48.293987" lon="15.492471">
        <ele>551.46738</ele>
        <time>2024-05-26T09:28:22.000Z</time>
      </trkpt>
      <trkpt lat="48.293843" lon="15.493161">
        <ele>552.945824</ele>
        <time>2024-05-26T09:28:27.000Z</time>
      </trkpt>
      <trkpt lat="48.293568" lon="15.493801">
        <ele>554.816231</ele>
        <time>2024-05-26T09:28:33.000Z</time>
      </trkpt>
      <trkpt lat="48.293377" lon="15.494194">
        <ele>556.055544</ele>
        <time>2024-05-26T09:28:37.000Z</time>
      </trkpt>
      <trkpt lat="48.293263" lon="15.494389">
        <ele>556.690638</ele>
        <time>2024-05-26T09:28:39.000Z</time>
      </trkpt>
      <trkpt lat="48.293026" lon="15.494946">
        <ele>558.328701</ele>
        <time>2024-05-26T09:28:44.000Z</time>
      </trkpt>
      <trkpt lat="48.292943" lon="15.495216">
        <ele>559.097098</ele>
        <time>2024-05-26T09:28:46.000Z</time>
      </trkpt>
      <trkpt lat="48.292833" lon="15.495734">
        <ele>560.407599</ele>
        <time>2024-05-26T09:28:50.000Z</time>
      </trkpt>
      <trkpt lat="48.292753" lon="15.496364">
        <ele>561.891058</ele>
        <time>2024-05-26T09:28:55.000Z</time>
      </trkpt>
      <trkpt lat="48.292734" lon="15.496472">
        <ele>562.116427</ele>
        <time>2024-05-26T09:28:56.000Z</time>
      </trkpt>
      <trkpt lat="48.292628" lon="15.497423">
        <ele>564.329466</ele>
        <time>2024-05-26T09:29:03.000Z</time>
      </trkpt>
      <trkpt lat="48.292516" lon="15.498399">
        <ele>566.307867</ele>
        <time>2024-05-26T09:29:10.000Z</time>
      </trkpt>
      <trkpt lat="48.292435" lon="15.498875">
        <ele>566.692834</ele>
        <time>2024-05-26T09:29:14.000Z</time>
      </trkpt>
      <trkpt lat="48.292317" lon="15.499449">
        <ele>567.167246</ele>
        <time>2024-05-26T09:29:18.000Z</time>
      </trkpt>
      <trkpt lat="48.292047" lon="15.500201">
        <ele>567.8454</ele>
        <time>2024-05-26T09:29:24.000Z</time>
      </trkpt>
      <trkpt lat="48.291788" lon="15.50071">
        <ele>568.242053</ele>
        <time>2024-05-26T09:29:29.000Z</time>
      </trkpt>
      <trkpt lat="48.291486" lon="15.50109">
        <ele>567.420756</ele>
        <time>2024-05-26T09:29:33.000Z</time>
      </trkpt>
      <trkpt lat="48.291286" lon="15.501264">
        <ele>566.959635</ele>
        <time>2024-05-26T09:29:36.000Z</time>
      </trkpt>
      <trkpt lat="48.291148" lon="15.501382">
        <ele>566.616971</ele>
        <time>2024-05-26T09:29:38.000Z</time>
      </trkpt>
      <trkpt lat="48.290959" lon="15.5015">
        <ele>566.193831</ele>
        <time>2024-05-26T09:29:40.000Z</time>
      </trkpt>
      <trkpt lat="48.290828" lon="15.501555">
        <ele>565.914629</ele>
        <time>2024-05-26T09:29:42.000Z</time>
      </trkpt>
      <trkpt lat="48.290607" lon="15.501635">
        <ele>565.469841</ele>
        <time>2024-05-26T09:29:45.000Z</time>
      </trkpt>
      <trkpt lat="48.290206" lon="15.501713">
        <ele>564.622646</ele>
        <time>2024-05-26T09:29:49.000Z</time>
      </trkpt>
      <trkpt lat="48.289834" lon="15.501744">
        <ele>563.457835</ele>
        <time>2024-05-26T09:29:53.000Z</time>
      </trkpt>
      <trkpt lat="48.289601" lon="15.501749">
        <ele>562.735041</ele>
        <time>2024-05-26T09:29:56.000Z</time>
      </trkpt>
      <trkpt lat="48.288705" lon="15.50156">
        <ele>559.910065</ele>
        <time>2024-05-26T09:30:06.000Z</time>
      </trkpt>
      <trkpt lat="48.288336" lon="15.501518">
        <ele>558.618438</ele>
        <time>2024-05-26T09:30:10.000Z</time>
      </trkpt>
      <trkpt lat="48.288067" lon="15.501539">
        <ele>557.293033</ele>
        <time>2024-05-26T09:30:13.000Z</time>
      </trkpt>
      <trkpt lat="48.287601" lon="15.501655">
        <ele>554.947829</ele>
        <time>2024-05-26T09:30:18.000Z</time>
      </trkpt>
      <trkpt lat="48.287062" lon="15.501829">
        <ele>552.288317</ele>
        <time>2024-05-26T09:30:24.000Z</time>
      </trkpt>
      <trkpt lat="48.286857" lon="15.501885">
        <ele>551.244909</ele>
        <time>2024-05-26T09:30:26.000Z</time>
      </trkpt>
      <trkpt lat="48.286694" lon="15.501899">
        <ele>550.410004</ele>
        <time>2024-05-26T09:30:28.000Z</time>
      </trkpt>
      <trkpt lat="48.28635" lon="15.501897">
        <ele>549.149962</ele>
        <time>2024-05-26T09:30:32.000Z</time>
      </trkpt>
      <trkpt lat="48.284877" lon="15.501785">
        <ele>544.033986</ele>
        <time>2024-05-26T09:30:48.000Z</time>
      </trkpt>
      <trkpt lat="48.284522" lon="15.501837">
        <ele>542.560149</ele>
        <time>2024-05-26T09:30:52.000Z</time>
      </trkpt>
      <trkpt lat="48.284289" lon="15.501924">
        <ele>541.534835</ele>
        <time>2024-05-26T09:30:55.000Z</time>
      </trkpt>
      <trkpt lat="48.283944" lon="15.502106">
        <ele>540.040645</ele>
        <time>2024-05-26T09:30:59.000Z</time>
      </trkpt>
      <trkpt lat="48.28361" lon="15.502366">
        <ele>538.508834</ele>
        <time>2024-05-26T09:31:03.000Z</time>
      </trkpt>
      <trkpt lat="48.282793" lon="15.503157">
        <ele>535.289799</ele>
        <time>2024-05-26T09:31:14.000Z</time>
      </trkpt>
      <trkpt lat="48.282355" lon="15.503828">
        <ele>533.81466</ele>
        <time>2024-05-26T09:31:21.000Z</time>
      </trkpt>
      <trkpt lat="48.281989" lon="15.504599">
        <ele>532.283646</ele>
        <time>2024-05-26T09:31:28.000Z</time>
      </trkpt>
      <trkpt lat="48.281845" lon="15.504901">
        <ele>531.920362</ele>
        <time>2024-05-26T09:31:31.000Z</time>
      </trkpt>
      <trkpt lat="48.281141" lon="15.506763">
        <ele>530.352387</ele>
        <time>2024-05-26T09:31:47.000Z</time>
      </trkpt>
      <trkpt lat="48.280847" lon="15.507499">
        <ele>529.798188</ele>
        <time>2024-05-26T09:31:53.000Z</time>
      </trkpt>
      <trkpt lat="48.280474" lon="15.508198">
        <ele>529.238224</ele>
        <time>2024-05-26T09:32:00.000Z</time>
      </trkpt>
      <trkpt lat="48.28025" lon="15.508552">
        <ele>528.932771</ele>
        <time>2024-05-26T09:32:04.000Z</time>
      </trkpt>
      <trkpt lat="48.280111" lon="15.508739">
        <ele>528.763565</ele>
        <time>2024-05-26T09:32:06.000Z</time>
      </trkpt>
      <trkpt lat="48.279643" lon="15.509418">
        <ele>528.33204</ele>
        <time>2024-05-26T09:32:13.000Z</time>
      </trkpt>
      <trkpt lat="48.279415" lon="15.509794">
        <ele>528.197573</ele>
        <time>2024-05-26T09:32:17.000Z</time>
      </trkpt>
      <trkpt lat="48.278924" lon="15.510751">
        <ele>527.873786</ele>
        <time>2024-05-26T09:32:26.000Z</time>
      </trkpt>
      <trkpt lat="48.278684" lon="15.511248">
        <ele>527.785276</ele>
        <time>2024-05-26T09:32:31.000Z</time>
      </trkpt>
      <trkpt lat="48.278493" lon="15.511718">
        <ele>527.936848</ele>
        <time>2024-05-26T09:32:35.000Z</time>
      </trkpt>
      <trkpt lat="48.278395" lon="15.512114">
        <ele>528.053676</ele>
        <time>2024-05-26T09:32:38.000Z</time>
      </trkpt>
      <trkpt lat="48.278317" lon="15.512636">
        <ele>528.206583</ele>
        <time>2024-05-26T09:32:42.000Z</time>
      </trkpt>
      <trkpt lat="48.278198" lon="15.513198">
        <ele>528.368382</ele>
        <time>2024-05-26T09:32:46.000Z</time>
      </trkpt>
      <trkpt lat="48.278066" lon="15.513738">
        <ele>528.444317</ele>
        <time>2024-05-26T09:32:50.000Z</time>
      </trkpt>
      <trkpt lat="48.277955" lon="15.514075">
        <ele>528.193082</ele>
        <time>2024-05-26T09:32:53.000Z</time>
      </trkpt>
      <trkpt lat="48.277713" lon="15.514667">
        <ele>527.757285</ele>
        <time>2024-05-26T09:32:58.000Z</time>
      </trkpt>
      <trkpt lat="48.277402" lon="15.515223">
        <ele>527.293567</ele>
        <time>2024-05-26T09:33:03.000Z</time>
      </trkpt>
      <trkpt lat="48.277263" lon="15.515485">
        <ele>527.085083</ele>
        <time>2024-05-26T09:33:05.000Z</time>
      </trkpt>
      <trkpt lat="48.277005" lon="15.516001">
        <ele>526.352292</ele>
        <time>2024-05-26T09:33:10.000Z</time>
      </trkpt>
      <trkpt lat="48.276656" lon="15.516668">
        <ele>524.199168</ele>
        <time>2024-05-26T09:33:16.000Z</time>
      </trkpt>
      <trkpt lat="48.276501" lon="15.516855">
        <ele>523.438851</ele>
        <time>2024-05-26T09:33:18.000Z</time>
      </trkpt>
      <trkpt lat="48.276197" lon="15.517284">
        <ele>521.867003</ele>
        <time>2024-05-26T09:33:23.000Z</time>
      </trkpt>
      <trkpt lat="48.275767" lon="15.517957">
        <ele>519.36565</ele>
        <time>2024-05-26T09:33:30.000Z</time>
      </trkpt>
      <trkpt lat="48.275642" lon="15.518171">
        <ele>518.357269</ele>
        <time>2024-05-26T09:33:32.000Z</time>
      </trkpt>
      <trkpt lat="48.275331" lon="15.518843">
        <ele>515.435278</ele>
        <time>2024-05-26T09:33:38.000Z</time>
      </trkpt>
      <trkpt lat="48.275049" lon="15.519663">
        <ele>512.118013</ele>
        <time>2024-05-26T09:33:45.000Z</time>
      </trkpt>
      <trkpt lat="48.274877" lon="15.520405">
        <ele>509.248575</ele>
        <time>2024-05-26T09:33:51.000Z</time>
      </trkpt>
      <trkpt lat="48.274772" lon="15.520931">
        <ele>507.00831</ele>
        <time>2024-05-26T09:33:55.000Z</time>
      </trkpt>
      <trkpt lat="48.274727" lon="15.521403">
        <ele>505.154136</ele>
        <time>2024-05-26T09:33:59.000Z</time>
      </trkpt>
      <trkpt lat="48.274666" lon="15.522346">
        <ele>501.333936</ele>
        <time>2024-05-26T09:34:06.000Z</time>
      </trkpt>
      <trkpt lat="48.27454" lon="15.523008">
        <ele>498.925931</ele>
        <time>2024-05-26T09:34:11.000Z</time>
      </trkpt>
      <trkpt lat="48.274268" lon="15.524345">
        <ele>495.225498</ele>
        <time>2024-05-26T09:34:21.000Z</time>
      </trkpt>
      <trkpt lat="48.27408" lon="15.525473">
        <ele>492.008678</ele>
        <time>2024-05-26T09:34:30.000Z</time>
      </trkpt>
      <trkpt lat="48.273978" lon="15.526209">
        <ele>489.150581</ele>
        <time>2024-05-26T09:34:36.000Z</time>
      </trkpt>
      <trkpt lat="48.273837" lon="15.52718">
        <ele>485.306853</ele>
        <time>2024-05-26T09:34:43.000Z</time>
      </trkpt>
      <trkpt lat="48.273776" lon="15.527748">
        <ele>483.131683</ele>
        <time>2024-05-26T09:34:47.000Z</time>
      </trkpt>
      <trkpt lat="48.273731" lon="15.52799">
        <ele>482.130629</ele>
        <time>2024-05-26T09:34:49.000Z</time>
      </trkpt>
      <trkpt lat="48.273681" lon="15.528584">
        <ele>479.265831</ele>
        <time>2024-05-26T09:34:53.000Z</time>
      </trkpt>
      <trkpt lat="48.273731" lon="15.529214">
        <ele>476.178531</ele>
        <time>2024-05-26T09:34:58.000Z</time>
      </trkpt>
      <trkpt lat="48.273782" lon="15.529517">
        <ele>474.673662</ele>
        <time>2024-05-26T09:35:00.000Z</time>
      </trkpt>
      <trkpt lat="48.273821" lon="15.530033">
        <ele>472.126505</ele>
        <time>2024-05-26T09:35:04.000Z</time>
      </trkpt>
      <trkpt lat="48.273845" lon="15.530591">
        <ele>469.397621</ele>
        <time>2024-05-26T09:35:08.000Z</time>
      </trkpt>
      <trkpt lat="48.273778" lon="15.531394">
        <ele>467.182504</ele>
        <time>2024-05-26T09:35:14.000Z</time>
      </trkpt>
      <trkpt lat="48.273702" lon="15.532171">
        <ele>465.269842</ele>
        <time>2024-05-26T09:35:20.000Z</time>
      </trkpt>
      <trkpt lat="48.274413" lon="15.533621">
        <ele>460.999961</ele>
        <time>2024-05-26T09:35:33.000Z</time>
      </trkpt>
      <trkpt lat="48.274781" lon="15.534375">
        <ele>458.885764</ele>
        <time>2024-05-26T09:35:40.000Z</time>
      </trkpt>
      <trkpt lat="48.27499" lon="15.534868">
        <ele>457.563662</ele>
        <time>2024-05-26T09:35:44.000Z</time>
      </trkpt>
      <trkpt lat="48.275233" lon="15.535441">
        <ele>456.097161</ele>
        <time>2024-05-26T09:35:49.000Z</time>
      </trkpt>
      <trkpt lat="48.275357" lon="15.535766">
        <ele>455.664566</ele>
        <time>2024-05-26T09:35:52.000Z</time>
      </trkpt>
      <trkpt lat="48.275703" lon="15.536839">
        <ele>454.27098</ele>
        <time>2024-05-26T09:36:01.000Z</time>
      </trkpt>
      <trkpt lat="48.275901" lon="15.537308">
        <ele>453.613963</ele>
        <time>2024-05-26T09:36:05.000Z</time>
      </trkpt>
      <trkpt lat="48.276002" lon="15.537472">
        <ele>453.326167</ele>
        <time>2024-05-26T09:36:07.000Z</time>
      </trkpt>
      <trkpt lat="48.276231" lon="15.537763">
        <ele>452.971697</ele>
        <time>2024-05-26T09:36:10.000Z</time>
      </trkpt>
      <trkpt lat="48.276415" lon="15.537919">
        <ele>452.897622</ele>
        <time>2024-05-26T09:36:12.000Z</time>
      </trkpt>
      <trkpt lat="48.276843" lon="15.538304">
        <ele>452.710188</ele>
        <time>2024-05-26T09:36:18.000Z</time>
      </trkpt>
      <trkpt lat="48.277076" lon="15.538556">
        <ele>452.599016</ele>
        <time>2024-05-26T09:36:21.000Z</time>
      </trkpt>
      <trkpt lat="48.277443" lon="15.538978">
        <ele>452.427776</ele>
        <time>2024-05-26T09:36:26.000Z</time>
      </trkpt>
      <trkpt lat="48.277829" lon="15.539482">
        <ele>452.078707</ele>
        <time>2024-05-26T09:36:32.000Z</time>
      </trkpt>
      <trkpt lat="48.278141" lon="15.539967">
        <ele>451.641422</ele>
        <time>2024-05-26T09:36:37.000Z</time>
      </trkpt>
      <trkpt lat="48.278444" lon="15.540504">
        <ele>451.204967</ele>
        <time>2024-05-26T09:36:42.000Z</time>
      </trkpt>
      <trkpt lat="48.278688" lon="15.540939">
        <ele>450.852934</ele>
        <time>2024-05-26T09:36:46.000Z</time>
      </trkpt>
      <trkpt lat="48.279121" lon="15.541691">
        <ele>449.605719</ele>
        <time>2024-05-26T09:36:53.000Z</time>
      </trkpt>
      <trkpt lat="48.279443" lon="15.542198">
        <ele>448.551419</ele>
        <time>2024-05-26T09:36:58.000Z</time>
      </trkpt>
      <trkpt lat="48.279808" lon="15.542707">
        <ele>447.409697</ele>
        <time>2024-05-26T09:37:04.000Z</time>
      </trkpt>
      <trkpt lat="48.280002" lon="15.543023">
        <ele>446.719531</ele>
        <time>2024-05-26T09:37:07.000Z</time>
      </trkpt>
      <trkpt lat="48.280163" lon="15.543334">
        <ele>445.381255</ele>
        <time>2024-05-26T09:37:10.000Z</time>
      </trkpt>
      <trkpt lat="48.280258" lon="15.543574">
        <ele>444.248572</ele>
        <time>2024-05-26T09:37:12.000Z</time>
      </trkpt>
      <trkpt lat="48.280358" lon="15.543905">
        <ele>442.626209</ele>
        <time>2024-05-26T09:37:15.000Z</time>
      </trkpt>
      <trkpt lat="48.280429" lon="15.544405">
        <ele>440.42421</ele>
        <time>2024-05-26T09:37:19.000Z</time>
      </trkpt>
      <trkpt lat="48.280494" lon="15.544952">
        <ele>437.991734</ele>
        <time>2024-05-26T09:37:23.000Z</time>
      </trkpt>
      <trkpt lat="48.280558" lon="15.545657">
        <ele>434.859165</ele>
        <time>2024-05-26T09:37:28.000Z</time>
      </trkpt>
      <trkpt lat="48.280593" lon="15.546323">
        <ele>432.162893</ele>
        <time>2024-05-26T09:37:33.000Z</time>
      </trkpt>
      <trkpt lat="48.280607" lon="15.547446">
        <ele>427.73584</ele>
        <time>2024-05-26T09:37:41.000Z</time>
      </trkpt>
      <trkpt lat="48.280608" lon="15.548721">
        <ele>421.825673</ele>
        <time>2024-05-26T09:37:50.000Z</time>
      </trkpt>
      <trkpt lat="48.280603" lon="15.549146">
        <ele>419.039874</ele>
        <time>2024-05-26T09:37:53.000Z</time>
      </trkpt>
      <trkpt lat="48.280613" lon="15.549803">
        <ele>414.826866</ele>
        <time>2024-05-26T09:37:58.000Z</time>
      </trkpt>
      <trkpt lat="48.280659" lon="15.550182">
        <ele>412.271928</ele>
        <time>2024-05-26T09:38:01.000Z</time>
      </trkpt>
      <trkpt lat="48.280768" lon="15.550958">
        <ele>407.172898</ele>
        <time>2024-05-26T09:38:07.000Z</time>
      </trkpt>
      <trkpt lat="48.280812" lon="15.55173">
        <ele>403.47783</ele>
        <time>2024-05-26T09:38:13.000Z</time>
      </trkpt>
      <trkpt lat="48.280912" lon="15.552783">
        <ele>398.693319</ele>
        <time>2024-05-26T09:38:21.000Z</time>
      </trkpt>
      <trkpt lat="48.281125" lon="15.554325">
        <ele>391.05335</ele>
        <time>2024-05-26T09:38:33.000Z</time>
      </trkpt>
      <trkpt lat="48.281235" lon="15.555137">
        <ele>386.411267</ele>
        <time>2024-05-26T09:38:39.000Z</time>
      </trkpt>
      <trkpt lat="48.281392" lon="15.555876">
        <ele>382.171481</ele>
        <time>2024-05-26T09:38:45.000Z</time>
      </trkpt>
      <trkpt lat="48.281489" lon="15.556482">
        <ele>378.660844</ele>
        <time>2024-05-26T09:38:50.000Z</time>
      </trkpt>
      <trkpt lat="48.281493" lon="15.556768">
        <ele>376.988845</ele>
        <time>2024-05-26T09:38:52.000Z</time>
      </trkpt>
      <trkpt lat="48.281655" lon="15.557386">
        <ele>373.07194</ele>
        <time>2024-05-26T09:38:57.000Z</time>
      </trkpt>
      <trkpt lat="48.281748" lon="15.558051">
        <ele>369.013663</ele>
        <time>2024-05-26T09:39:02.000Z</time>
      </trkpt>
      <trkpt lat="48.281783" lon="15.558571">
        <ele>365.894182</ele>
        <time>2024-05-26T09:39:06.000Z</time>
      </trkpt>
      <trkpt lat="48.281812" lon="15.559752">
        <ele>360.368738</ele>
        <time>2024-05-26T09:39:15.000Z</time>
      </trkpt>
      <trkpt lat="48.281911" lon="15.560701">
        <ele>356.648597</ele>
        <time>2024-05-26T09:39:22.000Z</time>
      </trkpt>
      <trkpt lat="48.281961" lon="15.561042">
        <ele>355.29869</ele>
        <time>2024-05-26T09:39:25.000Z</time>
      </trkpt>
      <trkpt lat="48.282103" lon="15.561737">
        <ele>352.663684</ele>
        <time>2024-05-26T09:39:30.000Z</time>
      </trkpt>
      <trkpt lat="48.282316" lon="15.562169">
        <ele>351.662196</ele>
        <time>2024-05-26T09:39:34.000Z</time>
      </trkpt>
      <trkpt lat="48.283186" lon="15.564028">
        <ele>347.348763</ele>
        <time>2024-05-26T09:39:51.000Z</time>
      </trkpt>
      <trkpt lat="48.283497" lon="15.564705">
        <ele>345.600163</ele>
        <time>2024-05-26T09:39:57.000Z</time>
      </trkpt>
      <trkpt lat="48.283571" lon="15.564868">
        <ele>345.183001</ele>
        <time>2024-05-26T09:39:58.000Z</time>
      </trkpt>
      <trkpt lat="48.283765" lon="15.56549">
        <ele>343.694673</ele>
        <time>2024-05-26T09:40:03.000Z</time>
      </trkpt>
      <trkpt lat="48.283816" lon="15.565729">
        <ele>343.187788</ele>
        <time>2024-05-26T09:40:05.000Z</time>
      </trkpt>
      <trkpt lat="48.283882" lon="15.566473">
        <ele>341.830882</ele>
        <time>2024-05-26T09:40:11.000Z</time>
      </trkpt>
      <trkpt lat="48.283978" lon="15.567247">
        <ele>341.277328</ele>
        <time>2024-05-26T09:40:17.000Z</time>
      </trkpt>
      <trkpt lat="48.284007" lon="15.568168">
        <ele>340.640227</ele>
        <time>2024-05-26T09:40:24.000Z</time>
      </trkpt>
      <trkpt lat="48.284063" lon="15.568807">
        <ele>340.182683</ele>
        <time>2024-05-26T09:40:29.000Z</time>
      </trkpt>
      <trkpt lat="48.284129" lon="15.569087">
        <ele>339.977948</ele>
        <time>2024-05-26T09:40:31.000Z</time>
      </trkpt>
      <trkpt lat="48.284212" lon="15.569263">
        <ele>339.817007</ele>
        <time>2024-05-26T09:40:33.000Z</time>
      </trkpt>
      <trkpt lat="48.284278" lon="15.569341">
        <ele>339.726558</ele>
        <time>2024-05-26T09:40:34.000Z</time>
      </trkpt>
      <trkpt lat="48.284341" lon="15.569375">
        <ele>339.648238</ele>
        <time>2024-05-26T09:40:35.000Z</time>
      </trkpt>
      <trkpt lat="48.284575" lon="15.569361">
        <ele>339.400821</ele>
        <time>2024-05-26T09:40:38.000Z</time>
      </trkpt>
      <trkpt lat="48.285023" lon="15.569329">
        <ele>338.926611</ele>
        <time>2024-05-26T09:40:43.000Z</time>
      </trkpt>
      <trkpt lat="48.286053" lon="15.569099">
        <ele>337.851684</ele>
        <time>2024-05-26T09:40:55.000Z</time>
      </trkpt>
      <trkpt lat="48.286306" lon="15.569084">
        <ele>337.619834</ele>
        <time>2024-05-26T09:40:58.000Z</time>
      </trkpt>
      <trkpt lat="48.286502" lon="15.569138">
        <ele>337.432769</ele>
        <time>2024-05-26T09:41:00.000Z</time>
      </trkpt>
      <trkpt lat="48.286617" lon="15.56921">
        <ele>337.319465</ele>
        <time>2024-05-26T09:41:01.000Z</time>
      </trkpt>
      <trkpt lat="48.286785" lon="15.56931">
        <ele>337.150213</ele>
        <time>2024-05-26T09:41:03.000Z</time>
      </trkpt>
      <trkpt lat="48.287182" lon="15.569674">
        <ele>336.706842</ele>
        <time>2024-05-26T09:41:08.000Z</time>
      </trkpt>
      <trkpt lat="48.287664" lon="15.569873">
        <ele>336.082792</ele>
        <time>2024-05-26T09:41:14.000Z</time>
      </trkpt>
      <trkpt lat="48.288017" lon="15.569889">
        <ele>335.480295</ele>
        <time>2024-05-26T09:41:18.000Z</time>
      </trkpt>
      <trkpt lat="48.288464" lon="15.569957">
        <ele>334.721936</ele>
        <time>2024-05-26T09:41:23.000Z</time>
      </trkpt>
      <trkpt lat="48.288881" lon="15.570325">
        <ele>333.921569</ele>
        <time>2024-05-26T09:41:28.000Z</time>
      </trkpt>
      <trkpt lat="48.289253" lon="15.570744">
        <ele>332.700039</ele>
        <time>2024-05-26T09:41:33.000Z</time>
      </trkpt>
      <trkpt lat="48.289368" lon="15.570846">
        <ele>332.097955</ele>
        <time>2024-05-26T09:41:34.000Z</time>
      </trkpt>
      <trkpt lat="48.289649" lon="15.571102">
        <ele>330.759668</ele>
        <time>2024-05-26T09:41:38.000Z</time>
      </trkpt>
      <trkpt lat="48.289984" lon="15.571511">
        <ele>328.928037</ele>
        <time>2024-05-26T09:41:43.000Z</time>
      </trkpt>
      <trkpt lat="48.290516" lon="15.572339">
        <ele>325.746922</ele>
        <time>2024-05-26T09:41:52.000Z</time>
      </trkpt>
      <trkpt lat="48.290647" lon="15.57265">
        <ele>324.67994</ele>
        <time>2024-05-26T09:41:55.000Z</time>
      </trkpt>
      <trkpt lat="48.290746" lon="15.573024">
        <ele>323.491829</ele>
        <time>2024-05-26T09:41:58.000Z</time>
      </trkpt>
      <trkpt lat="48.290802" lon="15.573343">
        <ele>322.502726</ele>
        <time>2024-05-26T09:42:00.000Z</time>
      </trkpt>
      <trkpt lat="48.290872" lon="15.574153">
        <ele>320.072707</ele>
        <time>2024-05-26T09:42:06.000Z</time>
      </trkpt>
      <trkpt lat="48.291245" lon="15.57792">
        <ele>314.438246</ele>
        <time>2024-05-26T09:42:34.000Z</time>
      </trkpt>
      <trkpt lat="48.291298" lon="15.578623">
        <ele>313.328156</ele>
        <time>2024-05-26T09:42:39.000Z</time>
      </trkpt>
      <trkpt lat="48.291426" lon="15.580777">
        <ele>309.319548</ele>
        <time>2024-05-26T09:42:55.000Z</time>
      </trkpt>
      <trkpt lat="48.291522" lon="15.581615">
        <ele>307.108807</ele>
        <time>2024-05-26T09:43:01.000Z</time>
      </trkpt>
      <trkpt lat="48.291535" lon="15.581774">
        <ele>306.680824</ele>
        <time>2024-05-26T09:43:02.000Z</time>
      </trkpt>
      <trkpt lat="48.291715" lon="15.582239">
        <ele>305.274467</ele>
        <time>2024-05-26T09:43:06.000Z</time>
      </trkpt>
      <trkpt lat="48.291907" lon="15.58278">
        <ele>303.667754</ele>
        <time>2024-05-26T09:43:11.000Z</time>
      </trkpt>
      <trkpt lat="48.292427" lon="15.584047">
        <ele>302.19212</ele>
        <time>2024-05-26T09:43:22.000Z</time>
      </trkpt>
      <trkpt lat="48.293284" lon="15.586286">
        <ele>300.215311</ele>
        <time>2024-05-26T09:43:41.000Z</time>
      </trkpt>
      <trkpt lat="48.293653" lon="15.587177">
        <ele>299.633336</ele>
        <time>2024-05-26T09:43:49.000Z</time>
      </trkpt>
      <trkpt lat="48.293901" lon="15.587682">
        <ele>299.398541</ele>
        <time>2024-05-26T09:43:54.000Z</time>
      </trkpt>
      <trkpt lat="48.294094" lon="15.587956">
        <ele>299.310488</ele>
        <time>2024-05-26T09:43:57.000Z</time>
      </trkpt>
      <trkpt lat="48.294941" lon="15.588967">
        <ele>298.943028</ele>
        <time>2024-05-26T09:44:09.000Z</time>
      </trkpt>
      <trkpt lat="48.294529" lon="15.590445">
        <ele>301.204082</ele>
        <time>2024-05-26T09:44:21.000Z</time>
      </trkpt>
      <trkpt lat="48.294452" lon="15.590688">
        <ele>301.671308</ele>
        <time>2024-05-26T09:44:23.000Z</time>
      </trkpt>
      <trkpt lat="48.29424" lon="15.591424">
        <ele>303.100293</ele>
        <time>2024-05-26T09:44:29.000Z</time>
      </trkpt>
      <trkpt lat="48.294108" lon="15.591768">
        <ele>303.899354</ele>
        <time>2024-05-26T09:44:32.000Z</time>
      </trkpt>
      <trkpt lat="48.293821" lon="15.592413">
        <ele>306.49479</ele>
        <time>2024-05-26T09:44:38.000Z</time>
      </trkpt>
      <trkpt lat="48.293693" lon="15.592808">
        <ele>307.911593</ele>
        <time>2024-05-26T09:44:41.000Z</time>
      </trkpt>
      <trkpt lat="48.293462" lon="15.593579">
        <ele>310.710235</ele>
        <time>2024-05-26T09:44:47.000Z</time>
      </trkpt>
      <trkpt lat="48.293188" lon="15.594669">
        <ele>315.352231</ele>
        <time>2024-05-26T09:44:56.000Z</time>
      </trkpt>
      <trkpt lat="48.293038" lon="15.595028">
        <ele>317.334006</ele>
        <time>2024-05-26T09:44:59.000Z</time>
      </trkpt>
      <trkpt lat="48.292873" lon="15.595328">
        <ele>319.124125</ele>
        <time>2024-05-26T09:45:02.000Z</time>
      </trkpt>
      <trkpt lat="48.292728" lon="15.595517">
        <ele>320.551098</ele>
        <time>2024-05-26T09:45:04.000Z</time>
      </trkpt>
      <trkpt lat="48.292241" lon="15.595972">
        <ele>324.450742</ele>
        <time>2024-05-26T09:45:10.000Z</time>
      </trkpt>
      <trkpt lat="48.291893" lon="15.596401">
        <ele>327.183348</ele>
        <time>2024-05-26T09:45:15.000Z</time>
      </trkpt>
      <trkpt lat="48.291401" lon="15.597088">
        <ele>331.018058</ele>
        <time>2024-05-26T09:45:22.000Z</time>
      </trkpt>
      <trkpt lat="48.29085" lon="15.597949">
        <ele>335.624983</ele>
        <time>2024-05-26T09:45:31.000Z</time>
      </trkpt>
      <trkpt lat="48.290808" lon="15.59811">
        <ele>336.791207</ele>
        <time>2024-05-26T09:45:32.000Z</time>
      </trkpt>
      <trkpt lat="48.290615" lon="15.598575">
        <ele>340.363261</ele>
        <time>2024-05-26T09:45:36.000Z</time>
      </trkpt>
      <trkpt lat="48.290377" lon="15.598968">
        <ele>343.868103</ele>
        <time>2024-05-26T09:45:40.000Z</time>
      </trkpt>
      <trkpt lat="48.29022" lon="15.599176">
        <ele>345.946306</ele>
        <time>2024-05-26T09:45:42.000Z</time>
      </trkpt>
      <trkpt lat="48.2899" lon="15.599398">
        <ele>349.408645</ele>
        <time>2024-05-26T09:45:46.000Z</time>
      </trkpt>
      <trkpt lat="48.289703" lon="15.599441">
        <ele>351.430907</ele>
        <time>2024-05-26T09:45:48.000Z</time>
      </trkpt>
      <trkpt lat="48.289553" lon="15.599453">
        <ele>352.918279</ele>
        <time>2024-05-26T09:45:50.000Z</time>
      </trkpt>
      <trkpt lat="48.289403" lon="15.59944">
        <ele>354.175836</ele>
        <time>2024-05-26T09:45:52.000Z</time>
      </trkpt>
      <trkpt lat="48.289283" lon="15.599454">
        <ele>355.287299</ele>
        <time>2024-05-26T09:45:53.000Z</time>
      </trkpt>
      <trkpt lat="48.289151" lon="15.599532">
        <ele>356.382113</ele>
        <time>2024-05-26T09:45:55.000Z</time>
      </trkpt>
      <trkpt lat="48.289055" lon="15.599742">
        <ele>357.939474</ele>
        <time>2024-05-26T09:45:57.000Z</time>
      </trkpt>
      <trkpt lat="48.288806" lon="15.600265">
        <ele>361.570065</ele>
        <time>2024-05-26T09:46:02.000Z</time>
      </trkpt>
      <trkpt lat="48.28874" lon="15.600514">
        <ele>363.07409</ele>
        <time>2024-05-26T09:46:04.000Z</time>
      </trkpt>
      <trkpt lat="48.288699" lon="15.600749">
        <ele>364.364765</ele>
        <time>2024-05-26T09:46:06.000Z</time>
      </trkpt>
      <trkpt lat="48.288634" lon="15.601439">
        <ele>368.37072</ele>
        <time>2024-05-26T09:46:11.000Z</time>
      </trkpt>
      <trkpt lat="48.288541" lon="15.601875">
        <ele>370.122817</ele>
        <time>2024-05-26T09:46:14.000Z</time>
      </trkpt>
      <trkpt lat="48.288383" lon="15.602426">
        <ele>372.249029</ele>
        <time>2024-05-26T09:46:18.000Z</time>
      </trkpt>
      <trkpt lat="48.288262" lon="15.603083">
        <ele>374.724855</ele>
        <time>2024-05-26T09:46:23.000Z</time>
      </trkpt>
      <trkpt lat="48.288164" lon="15.603724">
        <ele>377.112945</ele>
        <time>2024-05-26T09:46:28.000Z</time>
      </trkpt>
      <trkpt lat="48.288113" lon="15.604249">
        <ele>378.857516</ele>
        <time>2024-05-26T09:46:32.000Z</time>
      </trkpt>
      <trkpt lat="48.288079" lon="15.604379">
        <ele>379.248607</ele>
        <time>2024-05-26T09:46:33.000Z</time>
      </trkpt>
      <trkpt lat="48.287973" lon="15.604478">
        <ele>379.776197</ele>
        <time>2024-05-26T09:46:34.000Z</time>
      </trkpt>
      <trkpt lat="48.287803" lon="15.604579">
        <ele>380.515854</ele>
        <time>2024-05-26T09:46:36.000Z</time>
      </trkpt>
      <trkpt lat="48.287646" lon="15.604606">
        <ele>381.177547</ele>
        <time>2024-05-26T09:46:38.000Z</time>
      </trkpt>
      <trkpt lat="48.287439" lon="15.604661">
        <ele>382.060284</ele>
        <time>2024-05-26T09:46:40.000Z</time>
      </trkpt>
      <trkpt lat="48.287125" lon="15.604746">
        <ele>383.302546</ele>
        <time>2024-05-26T09:46:44.000Z</time>
      </trkpt>
      <trkpt lat="48.286795" lon="15.604822">
        <ele>384.677925</ele>
        <time>2024-05-26T09:46:48.000Z</time>
      </trkpt>
      <trkpt lat="48.286333" lon="15.604992">
        <ele>385.553818</ele>
        <time>2024-05-26T09:46:53.000Z</time>
      </trkpt>
      <trkpt lat="48.2859" lon="15.605196">
        <ele>385.048498</ele>
        <time>2024-05-26T09:46:58.000Z</time>
      </trkpt>
      <trkpt lat="48.285468" lon="15.605372">
        <ele>384.559736</ele>
        <time>2024-05-26T09:47:03.000Z</time>
      </trkpt>
      <trkpt lat="48.285204" lon="15.605451">
        <ele>384.268014</ele>
        <time>2024-05-26T09:47:06.000Z</time>
      </trkpt>
      <trkpt lat="48.284336" lon="15.605668">
        <ele>382.197578</ele>
        <time>2024-05-26T09:47:16.000Z</time>
      </trkpt>
      <trkpt lat="48.283666" lon="15.605918">
        <ele>379.780798</ele>
        <time>2024-05-26T09:47:24.000Z</time>
      </trkpt>
      <trkpt lat="48.283066" lon="15.606178">
        <ele>377.588149</ele>
        <time>2024-05-26T09:47:31.000Z</time>
      </trkpt>
      <trkpt lat="48.282746" lon="15.606363">
        <ele>374.072379</ele>
        <time>2024-05-26T09:47:35.000Z</time>
      </trkpt>
      <trkpt lat="48.282451" lon="15.606658">
        <ele>370.343916</ele>
        <time>2024-05-26T09:47:39.000Z</time>
      </trkpt>
      <trkpt lat="48.282086" lon="15.606995">
        <ele>365.701852</ele>
        <time>2024-05-26T09:47:44.000Z</time>
      </trkpt>
      <trkpt lat="48.281964" lon="15.607132">
        <ele>364.07578</ele>
        <time>2024-05-26T09:47:46.000Z</time>
      </trkpt>
      <trkpt lat="48.281896" lon="15.607279">
        <ele>362.814588</ele>
        <time>2024-05-26T09:47:47.000Z</time>
      </trkpt>
      <trkpt lat="48.281828" lon="15.607478">
        <ele>361.205013</ele>
        <time>2024-05-26T09:47:49.000Z</time>
      </trkpt>
      <trkpt lat="48.281715" lon="15.607811">
        <ele>358.512211</ele>
        <time>2024-05-26T09:47:52.000Z</time>
      </trkpt>
      <trkpt lat="48.281513" lon="15.60892">
        <ele>352.331941</ele>
        <time>2024-05-26T09:48:01.000Z</time>
      </trkpt>
      <trkpt lat="48.281102" lon="15.609724">
        <ele>347.010803</ele>
        <time>2024-05-26T09:48:09.000Z</time>
      </trkpt>
      <trkpt lat="48.280731" lon="15.610432">
        <ele>342.286487</ele>
        <time>2024-05-26T09:48:16.000Z</time>
      </trkpt>
      <trkpt lat="48.280604" lon="15.610653">
        <ele>340.825497</ele>
        <time>2024-05-26T09:48:18.000Z</time>
      </trkpt>
      <trkpt lat="48.280395" lon="15.610908">
        <ele>338.856794</ele>
        <time>2024-05-26T09:48:21.000Z</time>
      </trkpt>
      <trkpt lat="48.280123" lon="15.61118">
        <ele>336.408865</ele>
        <time>2024-05-26T09:48:25.000Z</time>
      </trkpt>
      <trkpt lat="48.279769" lon="15.611496">
        <ele>333.223342</ele>
        <time>2024-05-26T09:48:30.000Z</time>
      </trkpt>
      <trkpt lat="48.279254" lon="15.611731">
        <ele>329.839711</ele>
        <time>2024-05-26T09:48:36.000Z</time>
      </trkpt>
      <trkpt lat="48.278537" lon="15.61191">
        <ele>327.082382</ele>
        <time>2024-05-26T09:48:44.000Z</time>
      </trkpt>
      <trkpt lat="48.278258" lon="15.611939">
        <ele>326.008944</ele>
        <time>2024-05-26T09:48:47.000Z</time>
      </trkpt>
      <trkpt lat="48.277879" lon="15.611946">
        <ele>324.55287</ele>
        <time>2024-05-26T09:48:51.000Z</time>
      </trkpt>
      <trkpt lat="48.277168" lon="15.611958">
        <ele>322.509196</ele>
        <time>2024-05-26T09:48:59.000Z</time>
      </trkpt>
      <trkpt lat="48.276919" lon="15.611939">
        <ele>321.899223</ele>
        <time>2024-05-26T09:49:02.000Z</time>
      </trkpt>
      <trkpt lat="48.276342" lon="15.611832">
        <ele>320.556361</ele>
        <time>2024-05-26T09:49:08.000Z</time>
      </trkpt>
      <trkpt lat="48.276195" lon="15.611835">
        <ele>320.227969</ele>
        <time>2024-05-26T09:49:10.000Z</time>
      </trkpt>
      <trkpt lat="48.276024" lon="15.611767">
        <ele>319.818816</ele>
        <time>2024-05-26T09:49:12.000Z</time>
      </trkpt>
      <trkpt lat="48.275865" lon="15.611709">
        <ele>319.409671</ele>
        <time>2024-05-26T09:49:14.000Z</time>
      </trkpt>
      <trkpt lat="48.275796" lon="15.611706">
        <ele>319.372517</ele>
        <time>2024-05-26T09:49:15.000Z</time>
      </trkpt>
      <trkpt lat="48.275429" lon="15.611618">
        <ele>319.488797</ele>
        <time>2024-05-26T09:49:19.000Z</time>
      </trkpt>
      <trkpt lat="48.275232" lon="15.611652">
        <ele>319.544292</ele>
        <time>2024-05-26T09:49:21.000Z</time>
      </trkpt>
      <trkpt lat="48.274982" lon="15.611686">
        <ele>319.621328</ele>
        <time>2024-05-26T09:49:24.000Z</time>
      </trkpt>
      <trkpt lat="48.274695" lon="15.611725">
        <ele>319.710567</ele>
        <time>2024-05-26T09:49:27.000Z</time>
      </trkpt>
      <trkpt lat="48.274593" lon="15.61175">
        <ele>319.741481</ele>
        <time>2024-05-26T09:49:28.000Z</time>
      </trkpt>
      <trkpt lat="48.274532" lon="15.611808">
        <ele>319.763557</ele>
        <time>2024-05-26T09:49:29.000Z</time>
      </trkpt>
      <trkpt lat="48.274234" lon="15.612136">
        <ele>319.877489</ele>
        <time>2024-05-26T09:49:33.000Z</time>
      </trkpt>
      <trkpt lat="48.274199" lon="15.612281">
        <ele>319.910439</ele>
        <time>2024-05-26T09:49:34.000Z</time>
      </trkpt>
      <trkpt lat="48.274221" lon="15.612634">
        <ele>320.072696</ele>
        <time>2024-05-26T09:49:37.000Z</time>
      </trkpt>
      <trkpt lat="48.274243" lon="15.612873">
        <ele>320.192386</ele>
        <time>2024-05-26T09:49:39.000Z</time>
      </trkpt>
      <trkpt lat="48.274309" lon="15.613604">
        <ele>320.542994</ele>
        <time>2024-05-26T09:49:44.000Z</time>
      </trkpt>
      <trkpt lat="48.274273" lon="15.614043">
        <ele>320.749383</ele>
        <time>2024-05-26T09:49:47.000Z</time>
      </trkpt>
      <trkpt lat="48.274226" lon="15.614267">
        <ele>320.857798</ele>
        <time>2024-05-26T09:49:49.000Z</time>
      </trkpt>
      <trkpt lat="48.274128" lon="15.614512">
        <ele>320.996454</ele>
        <time>2024-05-26T09:49:51.000Z</time>
      </trkpt>
      <trkpt lat="48.273991" lon="15.614665">
        <ele>321.119269</ele>
        <time>2024-05-26T09:49:53.000Z</time>
      </trkpt>
      <trkpt lat="48.273808" lon="15.614827">
        <ele>321.266068</ele>
        <time>2024-05-26T09:49:55.000Z</time>
      </trkpt>
      <trkpt lat="48.273698" lon="15.614997">
        <ele>321.368141</ele>
        <time>2024-05-26T09:49:57.000Z</time>
      </trkpt>
      <trkpt lat="48.27358" lon="15.615162">
        <ele>321.478122</ele>
        <time>2024-05-26T09:49:59.000Z</time>
      </trkpt>
      <trkpt lat="48.273446" lon="15.615444">
        <ele>321.63328</ele>
        <time>2024-05-26T09:50:02.000Z</time>
      </trkpt>
      <trkpt lat="48.273304" lon="15.615605">
        <ele>321.753419</ele>
        <time>2024-05-26T09:50:04.000Z</time>
      </trkpt>
      <trkpt lat="48.273162" lon="15.615675">
        <ele>321.853299</ele>
        <time>2024-05-26T09:50:06.000Z</time>
      </trkpt>
      <trkpt lat="48.273093" lon="15.6157">
        <ele>321.894275</ele>
        <time>2024-05-26T09:50:07.000Z</time>
      </trkpt>
      <trkpt lat="48.272998" lon="15.615657">
        <ele>321.97091</ele>
        <time>2024-05-26T09:50:08.000Z</time>
      </trkpt>
      <trkpt lat="48.272335" lon="15.615435">
        <ele>322.386822</ele>
        <time>2024-05-26T09:50:16.000Z</time>
      </trkpt>
      <trkpt lat="48.271273" lon="15.615153">
        <ele>322.124278</ele>
        <time>2024-05-26T09:50:28.000Z</time>
      </trkpt>
      <trkpt lat="48.270876" lon="15.615146">
        <ele>322.027453</ele>
        <time>2024-05-26T09:50:32.000Z</time>
      </trkpt>
      <trkpt lat="48.270659" lon="15.615162">
        <ele>321.974126</ele>
        <time>2024-05-26T09:50:34.000Z</time>
      </trkpt>
      <trkpt lat="48.270445" lon="15.615214">
        <ele>321.907977</ele>
        <time>2024-05-26T09:50:36.000Z</time>
      </trkpt>
      <trkpt lat="48.269741" lon="15.615459">
        <ele>321.664133</ele>
        <time>2024-05-26T09:50:44.000Z</time>
      </trkpt>
      <trkpt lat="48.268677" lon="15.615768">
        <ele>321.262157</ele>
        <time>2024-05-26T09:50:56.000Z</time>
      </trkpt>
      <trkpt lat="48.268293" lon="15.61583">
        <ele>321.036919</ele>
        <time>2024-05-26T09:51:00.000Z</time>
      </trkpt>
      <trkpt lat="48.268206" lon="15.61584">
        <ele>320.985058</ele>
        <time>2024-05-26T09:51:01.000Z</time>
      </trkpt>
      <trkpt lat="48.267501" lon="15.615764">
        <ele>320.587434</ele>
        <time>2024-05-26T09:51:09.000Z</time>
      </trkpt>
      <trkpt lat="48.266639" lon="15.615621">
        <ele>319.62483</ele>
        <time>2024-05-26T09:51:19.000Z</time>
      </trkpt>
      <trkpt lat="48.266189" lon="15.615579">
        <ele>318.88092</ele>
        <time>2024-05-26T09:51:24.000Z</time>
      </trkpt>
      <trkpt lat="48.266088" lon="15.615555">
        <ele>318.694354</ele>
        <time>2024-05-26T09:51:25.000Z</time>
      </trkpt>
      <trkpt lat="48.2659" lon="15.615459">
        <ele>318.374926</ele>
        <time>2024-05-26T09:51:27.000Z</time>
      </trkpt>
      <trkpt lat="48.265691" lon="15.615278">
        <ele>317.962157</ele>
        <time>2024-05-26T09:51:30.000Z</time>
      </trkpt>
      <trkpt lat="48.265256" lon="15.614896">
        <ele>317.08216</ele>
        <time>2024-05-26T09:51:36.000Z</time>
      </trkpt>
      <trkpt lat="48.264742" lon="15.614541">
        <ele>316.02123</ele>
        <time>2024-05-26T09:51:42.000Z</time>
      </trkpt>
      <trkpt lat="48.264134" lon="15.614112">
        <ele>314.725267</ele>
        <time>2024-05-26T09:51:49.000Z</time>
      </trkpt>
      <trkpt lat="48.263865" lon="15.614037">
        <ele>314.177086</ele>
        <time>2024-05-26T09:51:52.000Z</time>
      </trkpt>
      <trkpt lat="48.263639" lon="15.614064">
        <ele>313.755635</ele>
        <time>2024-05-26T09:51:55.000Z</time>
      </trkpt>
      <trkpt lat="48.263495" lon="15.614155">
        <ele>313.45914</ele>
        <time>2024-05-26T09:51:57.000Z</time>
      </trkpt>
      <trkpt lat="48.263318" lon="15.614282">
        <ele>313.103261</ele>
        <time>2024-05-26T09:51:59.000Z</time>
      </trkpt>
      <trkpt lat="48.263172" lon="15.614473">
        <ele>312.743092</ele>
        <time>2024-05-26T09:52:01.000Z</time>
      </trkpt>
      <trkpt lat="48.263126" lon="15.614559">
        <ele>312.630372</ele>
        <time>2024-05-26T09:52:02.000Z</time>
      </trkpt>
      <trkpt lat="48.262674" lon="15.615606">
        <ele>311.084142</ele>
        <time>2024-05-26T09:52:11.000Z</time>
      </trkpt>
      <trkpt lat="48.262425" lon="15.616412">
        <ele>310.17734</ele>
        <time>2024-05-26T09:52:18.000Z</time>
      </trkpt>
      <trkpt lat="48.262209" lon="15.617197">
        <ele>309.500457</ele>
        <time>2024-05-26T09:52:24.000Z</time>
      </trkpt>
      <trkpt lat="48.262035" lon="15.617615">
        <ele>309.107689</ele>
        <time>2024-05-26T09:52:28.000Z</time>
      </trkpt>
      <trkpt lat="48.261939" lon="15.617736">
        <ele>308.968414</ele>
        <time>2024-05-26T09:52:29.000Z</time>
      </trkpt>
      <trkpt lat="48.261772" lon="15.617846">
        <ele>308.753773</ele>
        <time>2024-05-26T09:52:31.000Z</time>
      </trkpt>
      <trkpt lat="48.261678" lon="15.617865">
        <ele>308.633472</ele>
        <time>2024-05-26T09:52:32.000Z</time>
      </trkpt>
      <trkpt lat="48.26153" lon="15.617839">
        <ele>308.451838</ele>
        <time>2024-05-26T09:52:34.000Z</time>
      </trkpt>
      <trkpt lat="48.261446" lon="15.617808">
        <ele>308.367931</ele>
        <time>2024-05-26T09:52:35.000Z</time>
      </trkpt>
      <trkpt lat="48.261052" lon="15.61759">
        <ele>308.397281</ele>
        <time>2024-05-26T09:52:40.000Z</time>
      </trkpt>
      <trkpt lat="48.260588" lon="15.617229">
        <ele>308.435969</ele>
        <time>2024-05-26T09:52:46.000Z</time>
      </trkpt>
      <trkpt lat="48.2603" lon="15.617094">
        <ele>308.457098</ele>
        <time>2024-05-26T09:52:49.000Z</time>
      </trkpt>
      <trkpt lat="48.260099" lon="15.617072">
        <ele>308.471582</ele>
        <time>2024-05-26T09:52:51.000Z</time>
      </trkpt>
      <trkpt lat="48.259826" lon="15.617092">
        <ele>308.491075</ele>
        <time>2024-05-26T09:52:54.000Z</time>
      </trkpt>
      <trkpt lat="48.259662" lon="15.617131">
        <ele>308.548237</ele>
        <time>2024-05-26T09:52:56.000Z</time>
      </trkpt>
      <trkpt lat="48.259262" lon="15.617266">
        <ele>308.759086</ele>
        <time>2024-05-26T09:53:01.000Z</time>
      </trkpt>
      <trkpt lat="48.25886" lon="15.617424">
        <ele>308.970725</ele>
        <time>2024-05-26T09:53:06.000Z</time>
      </trkpt>
      <trkpt lat="48.258226" lon="15.617649">
        <ele>309.308532</ele>
        <time>2024-05-26T09:53:13.000Z</time>
      </trkpt>
      <trkpt lat="48.2577" lon="15.617865">
        <ele>309.240996</ele>
        <time>2024-05-26T09:53:19.000Z</time>
      </trkpt>
      <trkpt lat="48.257152" lon="15.618087">
        <ele>308.928476</ele>
        <time>2024-05-26T09:53:25.000Z</time>
      </trkpt>
      <trkpt lat="48.256987" lon="15.618103">
        <ele>308.834203</ele>
        <time>2024-05-26T09:53:27.000Z</time>
      </trkpt>
      <trkpt lat="48.256765" lon="15.618115">
        <ele>308.718551</ele>
        <time>2024-05-26T09:53:29.000Z</time>
      </trkpt>
      <trkpt lat="48.256289" lon="15.61798">
        <ele>308.449949</ele>
        <time>2024-05-26T09:53:34.000Z</time>
      </trkpt>
      <trkpt lat="48.255654" lon="15.617797">
        <ele>307.842293</ele>
        <time>2024-05-26T09:53:41.000Z</time>
      </trkpt>
      <trkpt lat="48.255308" lon="15.617668">
        <ele>307.491596</ele>
        <time>2024-05-26T09:53:45.000Z</time>
      </trkpt>
      <trkpt lat="48.254689" lon="15.617259">
        <ele>306.821166</ele>
        <time>2024-05-26T09:53:53.000Z</time>
      </trkpt>
      <trkpt lat="48.254349" lon="15.617013">
        <ele>306.201836</ele>
        <time>2024-05-26T09:53:57.000Z</time>
      </trkpt>
      <trkpt lat="48.253856" lon="15.616627">
        <ele>305.050228</ele>
        <time>2024-05-26T09:54:03.000Z</time>
      </trkpt>
      <trkpt lat="48.253286" lon="15.616269">
        <ele>303.785262</ele>
        <time>2024-05-26T09:54:10.000Z</time>
      </trkpt>
      <trkpt lat="48.253028" lon="15.616146">
        <ele>303.20431</ele>
        <time>2024-05-26T09:54:13.000Z</time>
      </trkpt>
      <trkpt lat="48.252854" lon="15.61613">
        <ele>302.830746</ele>
        <time>2024-05-26T09:54:15.000Z</time>
      </trkpt>
      <trkpt lat="48.252354" lon="15.616158">
        <ele>301.576875</ele>
        <time>2024-05-26T09:54:21.000Z</time>
      </trkpt>
      <trkpt lat="48.251739" lon="15.616273">
        <ele>300.037373</ele>
        <time>2024-05-26T09:54:28.000Z</time>
      </trkpt>
      <trkpt lat="48.251031" lon="15.616441">
        <ele>298.275324</ele>
        <time>2024-05-26T09:54:36.000Z</time>
      </trkpt>
      <trkpt lat="48.250323" lon="15.616685">
        <ele>296.828377</ele>
        <time>2024-05-26T09:54:44.000Z</time>
      </trkpt>
      <trkpt lat="48.249475" lon="15.617028">
        <ele>295.079453</ele>
        <time>2024-05-26T09:54:54.000Z</time>
      </trkpt>
      <trkpt lat="48.24853" lon="15.617418">
        <ele>293.40593</ele>
        <time>2024-05-26T09:55:05.000Z</time>
      </trkpt>
      <trkpt lat="48.247654" lon="15.617701">
        <ele>291.890928</ele>
        <time>2024-05-26T09:55:15.000Z</time>
      </trkpt>
      <trkpt lat="48.246797" lon="15.617922">
        <ele>290.518439</ele>
        <time>2024-05-26T09:55:25.000Z</time>
      </trkpt>
      <trkpt lat="48.246142" lon="15.618051">
        <ele>289.503747</ele>
        <time>2024-05-26T09:55:32.000Z</time>
      </trkpt>
      <trkpt lat="48.244975" lon="15.617956">
        <ele>288.022638</ele>
        <time>2024-05-26T09:55:45.000Z</time>
      </trkpt>
      <trkpt lat="48.244313" lon="15.618002">
        <ele>287.281485</ele>
        <time>2024-05-26T09:55:52.000Z</time>
      </trkpt>
      <trkpt lat="48.242543" lon="15.618248">
        <ele>286.019044</ele>
        <time>2024-05-26T09:56:12.000Z</time>
      </trkpt>
      <trkpt lat="48.241131" lon="15.618393">
        <ele>284.871099</ele>
        <time>2024-05-26T09:56:28.000Z</time>
      </trkpt>
      <trkpt lat="48.240478" lon="15.618471">
        <ele>284.292138</ele>
        <time>2024-05-26T09:56:35.000Z</time>
      </trkpt>
      <trkpt lat="48.239933" lon="15.618495">
        <ele>283.73796</ele>
        <time>2024-05-26T09:56:41.000Z</time>
      </trkpt>
      <trkpt lat="48.239472" lon="15.618432">
        <ele>283.272442</ele>
        <time>2024-05-26T09:56:46.000Z</time>
      </trkpt>
      <trkpt lat="48.238786" lon="15.618349">
        <ele>282.547869</ele>
        <time>2024-05-26T09:56:54.000Z</time>
      </trkpt>
      <trkpt lat="48.238462" lon="15.618314">
        <ele>282.359209</ele>
        <time>2024-05-26T09:56:58.000Z</time>
      </trkpt>
      <trkpt lat="48.238291" lon="15.618316">
        <ele>282.302438</ele>
        <time>2024-05-26T09:57:00.000Z</time>
      </trkpt>
      <trkpt lat="48.238206" lon="15.618302">
        <ele>282.26827</ele>
        <time>2024-05-26T09:57:01.000Z</time>
      </trkpt>
      <trkpt lat="48.237802" lon="15.618395">
        <ele>282.130366</ele>
        <time>2024-05-26T09:57:06.000Z</time>
      </trkpt>
      <trkpt lat="48.237656" lon="15.618425">
        <ele>282.082026</ele>
        <time>2024-05-26T09:57:08.000Z</time>
      </trkpt>
      <trkpt lat="48.237001" lon="15.618563">
        <ele>281.857289</ele>
        <time>2024-05-26T09:57:15.000Z</time>
      </trkpt>
      <trkpt lat="48.236471" lon="15.618732">
        <ele>281.999283</ele>
        <time>2024-05-26T09:57:21.000Z</time>
      </trkpt>
      <trkpt lat="48.235827" lon="15.618962">
        <ele>282.298317</ele>
        <time>2024-05-26T09:57:28.000Z</time>
      </trkpt>
      <trkpt lat="48.235528" lon="15.619007">
        <ele>282.429005</ele>
        <time>2024-05-26T09:57:31.000Z</time>
      </trkpt>
      <trkpt lat="48.23522" lon="15.618983">
        <ele>282.568166</ele>
        <time>2024-05-26T09:57:34.000Z</time>
      </trkpt>
      <trkpt lat="48.234334" lon="15.618902">
        <ele>283.191827</ele>
        <time>2024-05-26T09:57:44.000Z</time>
      </trkpt>
      <trkpt lat="48.233673" lon="15.618855">
        <ele>283.683925</ele>
        <time>2024-05-26T09:57:51.000Z</time>
      </trkpt>
      <trkpt lat="48.233292" lon="15.618872">
        <ele>283.977931</ele>
        <time>2024-05-26T09:57:55.000Z</time>
      </trkpt>
      <trkpt lat="48.233069" lon="15.618913">
        <ele>284.186404</ele>
        <time>2024-05-26T09:57:57.000Z</time>
      </trkpt>
      <trkpt lat="48.233117" lon="15.619432">
        <ele>284.50291</ele>
        <time>2024-05-26T09:58:01.000Z</time>
      </trkpt>
      <trkpt lat="48.233057" lon="15.620458">
        <ele>285.111058</ele>
        <time>2024-05-26T09:58:09.000Z</time>
      </trkpt>
      <trkpt lat="48.233087" lon="15.621194">
        <ele>285.561215</ele>
        <time>2024-05-26T09:58:14.000Z</time>
      </trkpt>
      <trkpt lat="48.233107" lon="15.621718">
        <ele>286.198649</ele>
        <time>2024-05-26T09:58:18.000Z</time>
      </trkpt>
      <trkpt lat="48.233084" lon="15.622182">
        <ele>286.804221</ele>
        <time>2024-05-26T09:58:21.000Z</time>
      </trkpt>
      <trkpt lat="48.233018" lon="15.622509">
        <ele>287.249528</ele>
        <time>2024-05-26T09:58:24.000Z</time>
      </trkpt>
      <trkpt lat="48.232935" lon="15.622734">
        <ele>287.571831</ele>
        <time>2024-05-26T09:58:26.000Z</time>
      </trkpt>
      <trkpt lat="48.232807" lon="15.623033">
        <ele>288.042859</ele>
        <time>2024-05-26T09:58:29.000Z</time>
      </trkpt>
      <trkpt lat="48.232674" lon="15.623277">
        <ele>288.430715</ele>
        <time>2024-05-26T09:58:31.000Z</time>
      </trkpt>
      <trkpt lat="48.232457" lon="15.623608">
        <ele>289.031063</ele>
        <time>2024-05-26T09:58:34.000Z</time>
      </trkpt>
      <trkpt lat="48.23255" lon="15.624">
        <ele>289.501526</ele>
        <time>2024-05-26T09:58:37.000Z</time>
      </trkpt>
      <trkpt lat="48.232608" lon="15.624137">
        <ele>289.675392</ele>
        <time>2024-05-26T09:58:38.000Z</time>
      </trkpt>
      <trkpt lat="48.232597" lon="15.624598">
        <ele>290.179095</ele>
        <time>2024-05-26T09:58:41.000Z</time>
      </trkpt>
      <trkpt lat="48.232597" lon="15.625325">
        <ele>290.967277</ele>
        <time>2024-05-26T09:58:46.000Z</time>
      </trkpt>
      <trkpt lat="48.232675" lon="15.625982">
        <ele>291.709531</ele>
        <time>2024-05-26T09:58:51.000Z</time>
      </trkpt>
      <trkpt lat="48.232676" lon="15.626401">
        <ele>292.075051</ele>
        <time>2024-05-26T09:58:54.000Z</time>
      </trkpt>
      <trkpt lat="48.232485" lon="15.627398">
        <ele>292.553773</ele>
        <time>2024-05-26T09:59:02.000Z</time>
      </trkpt>
      <trkpt lat="48.231967" lon="15.629874">
        <ele>293.702539</ele>
        <time>2024-05-26T09:59:21.000Z</time>
      </trkpt>
      <trkpt lat="48.231814" lon="15.630534">
        <ele>293.989403</ele>
        <time>2024-05-26T09:59:26.000Z</time>
      </trkpt>
      <trkpt lat="48.231559" lon="15.631618">
        <ele>294.415951</ele>
        <time>2024-05-26T09:59:35.000Z</time>
      </trkpt>
      <trkpt lat="48.231498" lon="15.632025">
        <ele>294.502394</ele>
        <time>2024-05-26T09:59:38.000Z</time>
      </trkpt>
      <trkpt lat="48.231426" lon="15.633331">
        <ele>294.776992</ele>
        <time>2024-05-26T09:59:48.000Z</time>
      </trkpt>
      <trkpt lat="48.231416" lon="15.633706">
        <ele>294.851747</ele>
        <time>2024-05-26T09:59:51.000Z</time>
      </trkpt>
      <trkpt lat="48.231354" lon="15.634478">
        <ele>294.888932</ele>
        <time>2024-05-26T09:59:57.000Z</time>
      </trkpt>
      <trkpt lat="48.231285" lon="15.634942">
        <ele>294.839552</ele>
        <time>2024-05-26T10:00:01.000Z</time>
      </trkpt>
      <trkpt lat="48.230842" lon="15.636574">
        <ele>294.653896</ele>
        <time>2024-05-26T10:00:14.000Z</time>
      </trkpt>
      <trkpt lat="48.230412" lon="15.636349">
        <ele>294.528468</ele>
        <time>2024-05-26T10:00:19.000Z</time>
      </trkpt>
      <trkpt lat="48.227951" lon="15.63498">
        <ele>293.429131</ele>
        <time>2024-05-26T10:00:48.000Z</time>
      </trkpt>
      <trkpt lat="48.227297" lon="15.634568">
        <ele>292.737252</ele>
        <time>2024-05-26T10:00:56.000Z</time>
      </trkpt>
      <trkpt lat="48.227024" lon="15.634391">
        <ele>292.061639</ele>
        <time>2024-05-26T10:00:59.000Z</time>
      </trkpt>
      <trkpt lat="48.226711" lon="15.634139">
        <ele>291.269445</ele>
        <time>2024-05-26T10:01:03.000Z</time>
      </trkpt>
      <trkpt lat="48.226331" lon="15.633774">
        <ele>290.222431</ele>
        <time>2024-05-26T10:01:08.000Z</time>
      </trkpt>
      <trkpt lat="48.226007" lon="15.633457">
        <ele>289.343101</ele>
        <time>2024-05-26T10:01:12.000Z</time>
      </trkpt>
      <trkpt lat="48.225535" lon="15.632937">
        <ele>287.484122</ele>
        <time>2024-05-26T10:01:19.000Z</time>
      </trkpt>
      <trkpt lat="48.225238" lon="15.632507">
        <ele>285.976985</ele>
        <time>2024-05-26T10:01:24.000Z</time>
      </trkpt>
      <trkpt lat="48.225117" lon="15.632321">
        <ele>285.419273</ele>
        <time>2024-05-26T10:01:26.000Z</time>
      </trkpt>
      <trkpt lat="48.224637" lon="15.631428">
        <ele>282.687704</ele>
        <time>2024-05-26T10:01:35.000Z</time>
      </trkpt>
      <trkpt lat="48.224233" lon="15.630553">
        <ele>279.300065</ele>
        <time>2024-05-26T10:01:43.000Z</time>
      </trkpt>
      <trkpt lat="48.224056" lon="15.630164">
        <ele>277.798242</ele>
        <time>2024-05-26T10:01:46.000Z</time>
      </trkpt>
      <trkpt lat="48.223883" lon="15.629865">
        <ele>276.473711</ele>
        <time>2024-05-26T10:01:49.000Z</time>
      </trkpt>
      <trkpt lat="48.223643" lon="15.629524">
        <ele>274.935411</ele>
        <time>2024-05-26T10:01:53.000Z</time>
      </trkpt>
      <trkpt lat="48.223401" lon="15.629278">
        <ele>273.448547</ele>
        <time>2024-05-26T10:01:56.000Z</time>
      </trkpt>
      <trkpt lat="48.223173" lon="15.629099">
        <ele>272.084513</ele>
        <time>2024-05-26T10:01:59.000Z</time>
      </trkpt>
      <trkpt lat="48.222752" lon="15.628855">
        <ele>269.798017</ele>
        <time>2024-05-26T10:02:04.000Z</time>
      </trkpt>
      <trkpt lat="48.222547" lon="15.62876">
        <ele>268.618589</ele>
        <time>2024-05-26T10:02:06.000Z</time>
      </trkpt>
      <trkpt lat="48.221721" lon="15.628392">
        <ele>264.399961</ele>
        <time>2024-05-26T10:02:16.000Z</time>
      </trkpt>
      <trkpt lat="48.221738" lon="15.628415">
        <ele>264.381512</ele>
        <time>2024-05-26T10:02:16.000Z</time>
      </trkpt>
      <trkpt lat="48.221257" lon="15.628191">
        <ele>262.998091</ele>
        <time>2024-05-26T10:02:22.000Z</time>
      </trkpt>
      <trkpt lat="48.221101" lon="15.62807">
        <ele>262.518817</ele>
        <time>2024-05-26T10:02:24.000Z</time>
      </trkpt>
      <trkpt lat="48.220986" lon="15.627996">
        <ele>262.162578</ele>
        <time>2024-05-26T10:02:25.000Z</time>
      </trkpt>
      <trkpt lat="48.220948" lon="15.627915">
        <ele>261.963116</ele>
        <time>2024-05-26T10:02:26.000Z</time>
      </trkpt>
      <trkpt lat="48.220906" lon="15.627887">
        <ele>261.839402</ele>
        <time>2024-05-26T10:02:27.000Z</time>
      </trkpt>
      <trkpt lat="48.220852" lon="15.627876">
        <ele>261.699815</ele>
        <time>2024-05-26T10:02:28.000Z</time>
      </trkpt>
      <trkpt lat="48.220794" lon="15.627883">
        <ele>261.556652</ele>
        <time>2024-05-26T10:02:29.000Z</time>
      </trkpt>
      <trkpt lat="48.220742" lon="15.628009">
        <ele>261.311162</ele>
        <time>2024-05-26T10:02:30.000Z</time>
      </trkpt>
      <trkpt lat="48.220752" lon="15.628107">
        <ele>261.126806</ele>
        <time>2024-05-26T10:02:31.000Z</time>
      </trkpt>
      <trkpt lat="48.220781" lon="15.628193">
        <ele>260.924617</ele>
        <time>2024-05-26T10:02:32.000Z</time>
      </trkpt>
      <trkpt lat="48.220891" lon="15.628606">
        <ele>260.115895</ele>
        <time>2024-05-26T10:02:35.000Z</time>
      </trkpt>
      <trkpt lat="48.220961" lon="15.628726">
        <ele>259.821865</ele>
        <time>2024-05-26T10:02:36.000Z</time>
      </trkpt>
      <trkpt lat="48.221104" lon="15.62888">
        <ele>259.687332</ele>
        <time>2024-05-26T10:02:38.000Z</time>
      </trkpt>
      <trkpt lat="48.221697" lon="15.629774">
        <ele>260.206044</ele>
        <time>2024-05-26T10:02:47.000Z</time>
      </trkpt>
      <trkpt lat="48.221961" lon="15.630266">
        <ele>260.467276</ele>
        <time>2024-05-26T10:02:52.000Z</time>
      </trkpt>
      <trkpt lat="48.222141" lon="15.630603">
        <ele>260.642501</ele>
        <time>2024-05-26T10:02:55.000Z</time>
      </trkpt>
      <trkpt lat="48.222472" lon="15.631148">
        <ele>261.049635</ele>
        <time>2024-05-26T10:03:00.000Z</time>
      </trkpt>
      <trkpt lat="48.222768" lon="15.631746">
        <ele>261.513745</ele>
        <time>2024-05-26T10:03:06.000Z</time>
      </trkpt>
      <trkpt lat="48.222834" lon="15.63185">
        <ele>261.598068</ele>
        <time>2024-05-26T10:03:07.000Z</time>
      </trkpt>
      <trkpt lat="48.223147" lon="15.632416">
        <ele>262.055616</ele>
        <time>2024-05-26T10:03:12.000Z</time>
      </trkpt>
      <trkpt lat="48.223217" lon="15.632519">
        <ele>262.139075</ele>
        <time>2024-05-26T10:03:13.000Z</time>
      </trkpt>
      <trkpt lat="48.223328" lon="15.632739">
        <ele>262.309657</ele>
        <time>2024-05-26T10:03:15.000Z</time>
      </trkpt>
      <trkpt lat="48.223835" lon="15.633754">
        <ele>262.522197</ele>
        <time>2024-05-26T10:03:24.000Z</time>
      </trkpt>
      <trkpt lat="48.223673" lon="15.633905">
        <ele>262.55076</ele>
        <time>2024-05-26T10:03:26.000Z</time>
      </trkpt>
      <trkpt lat="48.223485" lon="15.634125">
        <ele>262.587364</ele>
        <time>2024-05-26T10:03:29.000Z</time>
      </trkpt>
      <trkpt lat="48.223226" lon="15.634505">
        <ele>262.644402</ele>
        <time>2024-05-26T10:03:33.000Z</time>
      </trkpt>
      <trkpt lat="48.223166" lon="15.634642">
        <ele>262.662499</ele>
        <time>2024-05-26T10:03:34.000Z</time>
      </trkpt>
      <trkpt lat="48.22303" lon="15.634976">
        <ele>262.686958</ele>
        <time>2024-05-26T10:03:37.000Z</time>
      </trkpt>
      <trkpt lat="48.222989" lon="15.635173">
        <ele>262.688852</ele>
        <time>2024-05-26T10:03:39.000Z</time>
      </trkpt>
      <trkpt lat="48.222534" lon="15.637424">
        <ele>262.703076</ele>
        <time>2024-05-26T10:03:56.000Z</time>
      </trkpt>
      <trkpt lat="48.222299" lon="15.638563">
        <ele>262.309474</ele>
        <time>2024-05-26T10:04:05.000Z</time>
      </trkpt>
      <trkpt lat="48.222084" lon="15.63939">
        <ele>262.015993</ele>
        <time>2024-05-26T10:04:12.000Z</time>
      </trkpt>
      <trkpt lat="48.221694" lon="15.640651">
        <ele>261.445765</ele>
        <time>2024-05-26T10:04:22.000Z</time>
      </trkpt>
      <trkpt lat="48.221375" lon="15.641586">
        <ele>260.948145</ele>
        <time>2024-05-26T10:04:30.000Z</time>
      </trkpt>
      <trkpt lat="48.220849" lon="15.642999">
        <ele>260.322027</ele>
        <time>2024-05-26T10:04:42.000Z</time>
      </trkpt>
      <trkpt lat="48.220463" lon="15.643674">
        <ele>260.060639</ele>
        <time>2024-05-26T10:04:49.000Z</time>
      </trkpt>
      <trkpt lat="48.220101" lon="15.644258">
        <ele>259.825799</ele>
        <time>2024-05-26T10:04:55.000Z</time>
      </trkpt>
      <trkpt lat="48.219681" lon="15.644784">
        <ele>259.692327</ele>
        <time>2024-05-26T10:05:01.000Z</time>
      </trkpt>
      <trkpt lat="48.218826" lon="15.645873">
        <ele>259.52379</ele>
        <time>2024-05-26T10:05:13.000Z</time>
      </trkpt>
      <trkpt lat="48.218065" lon="15.646821">
        <ele>259.411685</ele>
        <time>2024-05-26T10:05:24.000Z</time>
      </trkpt>
      <trkpt lat="48.217444" lon="15.647621">
        <ele>259.334477</ele>
        <time>2024-05-26T10:05:33.000Z</time>
      </trkpt>
      <trkpt lat="48.217252" lon="15.647864">
        <ele>259.310139</ele>
        <time>2024-05-26T10:05:36.000Z</time>
      </trkpt>
      <trkpt lat="48.216791" lon="15.648491">
        <ele>259.279761</ele>
        <time>2024-05-26T10:05:43.000Z</time>
      </trkpt>
      <trkpt lat="48.216805" lon="15.648496">
        <ele>259.27947</ele>
        <time>2024-05-26T10:05:43.000Z</time>
      </trkpt>
      <trkpt lat="48.2164" lon="15.649108">
        <ele>259.253615</ele>
        <time>2024-05-26T10:05:49.000Z</time>
      </trkpt>
      <trkpt lat="48.216662" lon="15.649654">
        <ele>259.233488</ele>
        <time>2024-05-26T10:05:54.000Z</time>
      </trkpt>
      <trkpt lat="48.217633" lon="15.651046">
        <ele>259.14496</ele>
        <time>2024-05-26T10:06:09.000Z</time>
      </trkpt>
      <trkpt lat="48.21829" lon="15.65196">
        <ele>258.983297</ele>
        <time>2024-05-26T10:06:19.000Z</time>
      </trkpt>
      <trkpt lat="48.218587" lon="15.652385">
        <ele>258.780225</ele>
        <time>2024-05-26T10:06:24.000Z</time>
      </trkpt>
      <trkpt lat="48.21893" lon="15.652843">
        <ele>258.548144</ele>
        <time>2024-05-26T10:06:29.000Z</time>
      </trkpt>
      <trkpt lat="48.219394" lon="15.653507">
        <ele>258.224778</ele>
        <time>2024-05-26T10:06:36.000Z</time>
      </trkpt>
      <trkpt lat="48.220393" lon="15.65184">
        <ele>258.20216</ele>
        <time>2024-05-26T10:06:53.000Z</time>
      </trkpt>
    </trkseg>
  </trk>
</gpx>

<!--
Performance optimized by W3 Total Cache. Learn more: https://www.boldgrid.com/w3-total-cache/?utm_source=w3tc&utm_medium=footer_comment&utm_campaign=free_plugin

Page Caching using Disk: Enhanced{w3tc_pagecache_reject_reason} 

Served from: www.aquabike.world @ 2026-05-06 21:39:11 by W3 Total Cache
-->